[[{"header":{"parameterUnit":"m.s-1","parameterCategory":1,"la1":30.6,"la2":29.2853,"lo1":-89.7004,"lo2":-87.6739,"dy":0.0162,"dx":0.0183,"nx":112,"ny":82,"refTime":"2024-08-03T12:00:00:Z","depth":0,"parameterNumber":2,"parameterNumberName":"U-component_of_WINDS"},"data":[0.0,0.0,0.0,0.0,0.0,0.0,0.0,0.0,0.0,0.0,0.0,0.0,0.0,0.0,0.0,0.0,0.0,0.0,0.0,0.0,0.0,0.0,0.0,0.0,0.0,0.0,0.0,0.0,0.0,0.0,0.0,0.0,0.0,0.0,0.0,0.0,0.0,0.0,0.0,0.0,0.0,0.0,0.0,0.0,0.0,0.0,0.0,0.0,0.0,0.0,0.0,0.0,0.0,0.0,0.0,0.0,0.0,0.0,0.0,0.0,0.0,0.0,0.0,0.0,0.0,0.0,0.0,0.0,0.0,0.0,0.0,0.0,0.0,0.0,0.0,0.0,0.0,0.0,0.0,0.0,0.0,0.0,0.0,0.0,0.0,0.0,0.0,0.0,0.0,0.0,0.0,3.7533,4.449,4.9012,4.8965,4.8991,4.7763,4.4753,0.0,0.0,0.0,0.0,0.0,0.0,0.0,0.0,0.0,0.0,0.0,0.0,0.0,0.0,0.0,0.0,0.0,0.0,0.0,0.0,0.0,0.0,0.0,0.0,0.0,0.0,0.0,0.0,0.0,0.0,0.0,0.0,0.0,0.0,0.0,0.0,0.0,0.0,0.0,0.0,0.0,0.0,0.0,0.0,0.0,0.0,0.0,0.0,0.0,0.0,0.0,0.0,0.0,0.0,0.0,0.0,0.0,0.0,0.0,0.0,0.0,0.0,0.0,0.0,0.0,0.0,0.0,0.0,0.0,0.0,0.0,0.0,0.0,0.0,0.0,0.0,0.0,0.0,0.0,0.0,0.0,0.0,0.0,0.0,0.0,0.0,0.0,0.0,0.0,0.0,0.0,0.0,0.0,0.0,0.0,0.0,0.0,0.0,0.0,0.0,0.0,0.0,0.0,0.0,4.1357,4.6422,4.8179,4.8984,4.9012,4.8984,4.7773,4.4779,0.0,0.0,0.0,0.0,0.0,0.0,0.0,0.0,0.0,0.0,0.0,0.0,0.0,0.0,0.0,0.0,0.0,0.0,0.0,0.0,0.0,0.0,0.0,0.0,0.0,0.0,0.0,0.0,0.0,0.0,0.0,0.0,0.0,0.0,0.0,0.0,0.0,0.0,0.0,0.0,0.0,0.0,0.0,0.0,0.0,0.0,0.0,0.0,0.0,0.0,0.0,0.0,0.0,0.0,0.0,0.0,0.0,0.0,0.0,0.0,0.0,0.0,0.0,0.0,0.0,0.0,0.0,0.0,0.0,0.0,0.0,0.0,0.0,0.0,0.0,0.0,0.0,0.0,0.0,0.0,0.0,0.0,0.0,0.0,0.0,0.0,0.0,0.0,0.0,0.0,0.0,0.0,0.0,0.0,0.0,0.0,0.0,0.0,0.0,0.0,0.0,0.0,0.0,4.4784,4.5966,4.8727,4.9012,4.9018,4.9018,4.901,4.7729,4.4803,3.9836,0.0,0.0,0.0,0.0,0.0,0.0,0.0,0.0,0.0,0.0,0.0,0.0,0.0,0.0,0.0,0.0,0.0,0.0,0.0,0.0,0.0,0.0,0.0,0.0,0.0,0.0,0.0,0.0,0.0,0.0,0.0,0.0,0.0,0.0,0.0,0.0,0.0,0.0,0.0,0.0,0.0,0.0,0.0,0.0,0.0,0.0,0.0,0.0,0.0,0.0,0.0,0.0,0.0,0.0,0.0,0.0,0.0,0.0,0.0,0.0,0.0,0.0,0.0,0.0,0.0,0.0,0.0,0.0,0.0,0.0,0.0,0.0,0.0,0.0,0.0,0.0,0.0,0.0,0.0,0.0,0.0,0.0,0.0,0.0,0.0,0.0,0.0,0.0,0.0,0.0,0.0,0.0,0.0,0.0,0.0,0.0,0.0,0.0,0.0,0.0,0.0,0.0,4.6302,4.9022,4.8978,4.9018,4.9018,4.9018,4.9026,4.7751,4.4814,3.8939,0.0,0.0,0.0,0.0,0.0,0.0,0.0,0.0,0.0,0.0,0.0,0.0,0.0,0.0,0.0,0.0,0.0,0.0,0.0,0.0,0.0,0.0,0.0,0.0,0.0,0.0,0.0,0.0,0.0,0.0,0.0,0.0,0.0,0.0,0.0,0.0,0.0,0.0,0.0,0.0,0.0,0.0,0.0,0.0,0.0,0.0,0.0,0.0,0.0,0.0,0.0,0.0,0.0,0.0,0.0,0.0,0.0,0.0,0.0,0.0,0.0,0.0,0.0,0.0,0.0,0.0,0.0,0.0,0.0,0.0,0.0,0.0,0.0,0.0,0.0,0.0,0.0,0.0,0.0,0.0,0.0,0.0,0.0,0.0,0.0,0.0,0.0,0.0,0.0,0.0,0.0,0.0,0.0,0.0,0.0,0.0,0.0,0.0,0.0,0.0,0.0,0.0,4.371,4.9026,4.9012,4.9018,4.9018,4.9018,4.8976,4.7761,4.478,3.8928,0.0,0.0,0.0,0.0,0.0,0.0,0.0,0.0,0.0,0.0,0.0,0.0,0.0,0.0,0.0,0.0,0.0,0.0,0.0,0.0,0.0,0.0,0.0,0.0,0.0,0.0,0.0,0.0,0.0,0.0,0.0,0.0,0.0,0.0,0.0,0.0,0.0,0.0,0.0,0.0,0.0,0.0,0.0,0.0,0.0,0.0,0.0,0.0,0.0,0.0,0.0,0.0,0.0,0.0,0.0,0.0,0.0,0.0,0.0,0.0,0.0,0.0,0.0,0.0,0.0,0.0,0.0,0.0,0.0,0.0,0.0,0.0,0.0,0.0,0.0,0.0,0.0,0.0,0.0,0.0,0.0,0.0,0.0,0.0,0.0,0.0,0.0,0.0,0.0,0.0,0.0,0.0,0.0,0.0,0.0,0.0,0.0,0.0,0.0,0.0,0.0,0.0,4.5747,4.8998,0.0,4.9018,4.9018,4.9018,4.8973,4.5329,3.6783,0.0,0.0,0.0,0.0,0.0,0.0,0.0,0.0,0.0,0.0,0.0,0.0,0.0,0.0,0.0,0.0,0.0,0.0,0.0,0.0,0.0,0.0,0.0,0.0,0.0,0.0,0.0,0.0,0.0,0.0,0.0,0.0,0.0,0.0,0.0,0.0,0.0,0.0,0.0,0.0,0.0,0.0,0.0,0.0,0.0,0.0,0.0,0.0,0.0,0.0,0.0,0.0,0.0,0.0,0.0,0.0,0.0,0.0,0.0,0.0,0.0,0.0,0.0,0.0,0.0,0.0,0.0,0.0,0.0,0.0,0.0,0.0,0.0,0.0,0.0,0.0,0.0,0.0,0.0,0.0,0.0,0.0,0.0,0.0,0.0,0.0,0.0,0.0,0.0,0.0,0.0,0.0,0.0,0.0,0.0,0.0,0.0,0.0,0.0,0.0,0.0,0.0,4.3802,4.721,4.9021,0.0,4.9018,4.9018,4.9018,4.8998,4.4729,3.4651,0.0,0.0,0.0,0.0,0.0,0.0,0.0,0.0,0.0,0.0,0.0,0.0,0.0,0.0,0.0,0.0,0.0,0.0,0.0,0.0,0.0,0.0,0.0,0.0,0.0,0.0,0.0,0.0,0.0,0.0,0.0,0.0,0.0,0.0,0.0,0.0,0.0,0.0,0.0,0.0,0.0,0.0,0.0,0.0,0.0,0.0,0.0,0.0,0.0,0.0,0.0,0.0,0.0,0.0,0.0,0.0,0.0,0.0,0.0,0.0,0.0,0.0,0.0,0.0,0.0,0.0,0.0,0.0,0.0,0.0,0.0,0.0,0.0,0.0,0.0,0.0,0.0,0.0,0.0,0.0,0.0,0.0,0.0,0.0,0.0,0.0,0.0,0.0,0.0,0.0,0.0,0.0,0.0,0.0,0.0,0.0,0.0,0.0,0.0,0.0,0.0,0.0,4.3836,4.7192,4.9001,4.9012,4.9018,4.9018,4.9018,4.8998,4.6464,0.0,0.0,0.0,0.0,0.0,0.0,0.0,0.0,0.0,0.0,0.0,0.0,0.0,0.0,0.0,0.0,0.0,0.0,0.0,0.0,0.0,0.0,0.0,0.0,0.0,0.0,0.0,0.0,0.0,0.0,0.0,0.0,0.0,0.0,0.0,0.0,0.0,0.0,0.0,0.0,0.0,0.0,0.0,0.0,0.0,0.0,0.0,0.0,0.0,0.0,0.0,0.0,0.0,0.0,0.0,0.0,0.0,0.0,0.0,0.0,0.0,0.0,0.0,0.0,0.0,0.0,0.0,0.0,0.0,0.0,0.0,0.0,0.0,0.0,0.0,0.0,0.0,0.0,0.0,0.0,0.0,0.0,0.0,0.0,0.0,0.0,0.0,0.0,0.0,0.0,0.0,0.0,0.0,0.0,0.0,0.0,0.0,0.0,0.0,0.0,0.0,0.0,0.0,4.3836,4.7216,4.8965,4.9029,4.9001,4.9001,4.9001,4.9021,4.6458,4.0493,0.0,0.0,0.0,0.0,0.0,0.0,0.0,0.0,0.0,0.0,0.0,0.0,0.0,0.0,0.0,0.0,0.0,0.0,0.0,0.0,0.0,0.0,0.0,0.0,0.0,0.0,0.0,0.0,0.0,0.0,0.0,0.0,0.0,0.0,0.0,0.0,0.0,0.0,0.0,0.0,0.0,0.0,0.0,0.0,0.0,0.0,0.0,0.0,0.0,0.0,0.0,0.0,0.0,0.0,0.0,0.0,0.0,0.0,0.0,0.0,0.0,0.0,0.0,0.0,0.0,0.0,0.0,0.0,0.0,0.0,0.0,0.0,0.0,0.0,0.0,0.0,0.0,0.0,0.0,0.0,0.0,0.0,0.0,0.0,0.0,0.0,0.0,0.0,0.0,0.0,0.0,0.0,0.0,0.0,0.0,0.0,0.0,0.0,0.0,0.0,0.0,0.0,4.3833,4.718,4.9447,5.0672,5.0807,5.0338,4.9106,4.8967,4.6439,4.0474,0.0,0.0,0.0,0.0,0.0,0.0,0.0,0.0,0.0,0.0,0.0,0.0,0.0,0.0,0.0,0.0,0.0,0.0,0.0,0.0,0.0,0.0,0.0,0.0,0.0,0.0,0.0,0.0,0.0,0.0,0.0,0.0,0.0,0.0,0.0,0.0,0.0,0.0,0.0,0.0,0.0,0.0,0.0,0.0,0.0,0.0,0.0,0.0,0.0,0.0,0.0,0.0,0.0,0.0,0.0,0.0,0.0,0.0,0.0,0.0,0.0,0.0,0.0,0.0,0.0,0.0,0.0,0.0,0.0,0.0,0.0,0.0,0.0,0.0,0.0,0.0,0.0,0.0,0.0,0.0,0.0,0.0,0.0,0.0,0.0,0.0,0.0,0.0,0.0,0.0,0.0,0.0,0.0,0.0,0.0,0.0,0.0,0.0,0.0,0.0,0.0,0.0,4.4184,4.7573,5.0459,5.3229,5.3502,5.2388,4.9641,4.9161,4.6578,4.0863,0.0,0.0,0.0,0.0,0.0,0.0,0.0,0.0,0.0,0.0,0.0,0.0,0.0,0.0,0.0,0.0,0.0,0.0,0.0,0.0,0.0,0.0,0.0,0.0,0.0,0.0,0.0,0.0,0.0,0.0,0.0,0.0,0.0,0.0,0.0,0.0,0.0,0.0,0.0,0.0,0.0,0.0,0.0,0.0,0.0,0.0,0.0,0.0,0.0,0.0,0.0,0.0,0.0,0.0,0.0,0.0,0.0,0.0,0.0,0.0,3.5768,0.0,0.0,0.0,0.0,0.0,0.0,0.0,0.0,0.0,0.0,0.0,0.0,0.0,0.0,0.0,0.0,0.0,0.0,0.0,0.0,0.0,0.0,0.0,0.0,0.0,0.0,0.0,0.0,0.0,0.0,0.0,0.0,0.0,0.0,0.0,0.0,0.0,0.0,0.0,0.0,0.0,4.6969,5.0695,5.278,5.344,5.3477,5.3273,5.2598,5.0351,4.7437,4.3888,4.0206,0.0,0.0,0.0,0.0,0.0,0.0,0.0,0.0,0.0,0.0,0.0,0.0,0.0,0.0,0.0,0.0,0.0,0.0,0.0,0.0,0.0,0.0,0.0,0.0,0.0,0.0,0.0,0.0,0.0,0.0,0.0,0.0,0.0,0.0,0.0,0.0,0.0,0.0,0.0,0.0,0.0,0.0,0.0,0.0,0.0,0.0,0.0,0.0,0.0,0.0,0.0,0.0,0.0,0.0,0.0,0.0,0.0,0.0,0.0,0.0,3.9358,0.0,0.0,0.0,0.0,0.0,0.0,0.0,0.0,0.0,0.0,0.0,0.0,0.0,0.0,0.0,0.0,0.0,0.0,0.0,0.0,0.0,0.0,0.0,0.0,0.0,0.0,0.0,0.0,0.0,0.0,0.0,0.0,0.0,0.0,0.0,0.0,0.0,0.0,0.0,0.0,4.8058,5.1623,5.3532,5.3515,5.3482,5.3515,5.3479,5.0735,4.8369,4.6801,4.3931,0.0,0.0,0.0,0.0,0.0,0.0,0.0,0.0,0.0,0.0,0.0,0.0,0.0,0.0,0.0,0.0,0.0,0.0,0.0,0.0,0.0,0.0,0.0,0.0,0.0,0.0,0.0,0.0,0.0,0.0,0.0,0.0,0.0,0.0,0.0,0.0,0.0,0.0,0.0,0.0,0.0,0.0,0.0,0.0,0.0,0.0,0.0,0.0,0.0,0.0,0.0,0.0,0.0,4.093,4.3638,4.7947,4.7947,4.7989,4.7742,4.3331,4.2395,4.3605,0.0,0.0,0.0,0.0,0.0,0.0,0.0,0.0,0.0,0.0,0.0,0.0,0.0,0.0,0.0,0.0,0.0,0.0,0.0,0.0,0.0,0.0,0.0,0.0,0.0,4.4044,4.2193,0.0,0.0,0.0,0.0,0.0,0.0,0.0,0.0,0.0,0.0,0.0,0.0,4.8265,5.1589,5.3508,5.3517,5.3518,5.3517,5.3481,5.1217,4.9565,4.9006,4.6715,4.3693,0.0,0.0,0.0,0.0,0.0,0.0,0.0,0.0,0.0,0.0,0.0,0.0,0.0,0.0,0.0,0.0,0.0,0.0,0.0,0.0,0.0,0.0,0.0,0.0,0.0,0.0,0.0,0.0,0.0,0.0,0.0,0.0,2.6055,2.6766,0.0,0.0,0.0,0.0,0.0,0.0,0.0,0.0,0.0,0.0,0.0,0.0,0.0,0.0,4.2581,4.4377,4.4846,4.4074,4.7016,4.9309,5.0662,5.0662,5.0692,5.0692,4.9907,0.0,4.6515,4.3563,0.0,0.0,0.0,0.0,0.0,0.0,0.0,0.0,0.0,0.0,0.0,0.0,0.0,0.0,0.0,0.0,0.0,0.0,0.0,0.0,0.0,0.0,4.3448,4.61,4.677,4.6505,0.0,4.1576,3.9753,4.4245,3.7431,0.0,0.0,0.0,0.0,0.0,0.0,0.0,4.8241,5.1654,5.3513,5.3484,5.3518,5.3484,5.3517,5.3109,5.182,4.9169,4.8633,4.7427,4.5117,4.2698,0.0,0.0,0.0,0.0,0.0,0.0,0.0,0.0,0.0,0.0,0.0,0.0,0.0,0.0,0.0,0.0,0.0,0.0,0.0,0.0,0.0,0.0,0.0,0.0,0.0,0.0,0.0,0.0,0.0,2.5912,2.8423,2.8674,2.8976,2.8699,0.0,0.0,0.0,0.0,0.0,0.0,0.0,0.0,0.0,4.3967,4.4526,4.5514,4.7219,4.8476,4.8835,4.8354,4.9182,5.0169,5.1195,5.1195,5.1199,5.1173,5.1208,5.0547,4.9261,4.6641,4.3296,3.9711,0.0,0.0,0.0,0.0,3.9365,4.1607,4.2017,4.4418,0.0,0.0,0.0,0.0,0.0,0.0,0.0,0.0,0.0,0.0,0.0,0.0,0.0,4.7023,4.7273,4.728,4.728,4.5525,4.4079,0.0,4.0121,3.5446,3.3877,0.0,0.0,0.0,0.0,0.0,5.0503,5.2663,5.3481,5.3484,5.3518,5.3518,5.3518,5.3009,5.2097,5.0919,5.0096,4.8809,4.7124,4.5456,4.3186,0.0,0.0,0.0,0.0,0.0,0.0,0.0,0.0,0.0,0.0,0.0,0.0,0.0,0.0,0.0,0.0,0.0,0.0,0.0,0.0,0.0,0.0,0.0,0.0,0.0,0.0,0.0,0.0,2.8448,3.0583,3.0432,3.1286,3.116,0.0,0.0,0.0,0.0,0.0,0.0,3.8929,4.0198,4.2822,4.7081,4.8119,4.9344,5.096,5.1468,5.1733,5.172,5.0803,5.0825,5.1727,5.1727,5.1921,5.2181,5.1488,5.1225,5.1023,4.9118,4.6713,4.4109,4.2198,4.1406,4.1448,4.1429,4.2671,4.4576,4.6584,4.7297,4.6976,4.4941,0.0,4.734,4.734,0.0,0.0,0.0,0.0,4.4772,4.6739,4.7283,4.7258,4.7347,4.7332,4.7309,4.7309,4.7332,4.6743,0.0,4.2787,4.0798,3.8842,0.0,0.0,0.0,0.0,4.417,5.1732,5.2707,5.2907,5.3448,5.3177,5.3111,5.3484,5.2774,5.2335,5.23,5.1251,5.0101,4.8815,4.7868,4.5974,4.2963,0.0,0.0,0.0,0.0,0.0,0.0,0.0,0.0,0.0,0.0,0.0,0.0,0.0,0.0,0.0,0.0,0.0,0.0,0.0,0.0,0.0,0.0,0.0,0.0,0.0,0.0,0.0,0.0,0.0,3.2164,3.3997,0.0,0.0,0.0,0.0,3.4474,3.6948,3.9291,4.1346,4.4283,4.7014,4.9737,5.1216,5.2306,5.3025,5.3054,5.3084,5.3114,5.3054,5.3084,5.3114,5.3114,5.3826,5.4819,5.2345,5.1208,5.1187,5.1061,4.9452,4.71,4.6966,4.6887,4.6872,4.6894,4.6941,4.713,4.7227,4.7285,4.7279,4.7138,4.7141,4.7292,4.7311,4.7045,0.0,0.0,4.688,4.713,4.7273,4.7297,4.7336,4.7279,4.7309,4.7309,4.7309,4.7309,4.7272,0.0,4.6966,4.6843,4.674,0.0,3.8292,4.5782,4.6884,4.7796,5.0269,5.0538,5.134,5.3307,5.2296,5.208,5.3416,5.345,5.3112,5.2367,5.2232,5.186,5.1082,4.9661,4.8477,4.7597,4.3301,0.0,0.0,0.0,0.0,0.0,0.0,0.0,0.0,0.0,0.0,0.0,0.0,0.0,0.0,0.0,0.0,0.0,0.0,0.0,0.0,0.0,0.0,0.0,0.0,0.0,0.0,0.0,0.0,3.4926,3.6558,0.0,0.0,3.6408,3.7538,3.7889,3.9829,4.2449,4.5608,4.68,4.9038,5.2564,5.3179,5.3803,5.4461,5.4461,5.4461,5.4461,5.4461,5.4461,5.4461,5.4461,5.475,5.5107,5.4141,5.3781,5.3766,5.3763,5.2181,4.9763,4.9762,4.9786,4.9813,4.9816,4.9849,4.9851,4.9853,4.9823,4.9551,4.7881,4.7255,4.7272,4.7262,4.7273,4.7311,4.7273,4.731,4.7347,4.7272,4.7336,4.7309,4.7309,4.7309,4.7309,4.7309,4.7309,4.7336,4.7297,4.7286,4.7311,4.7322,4.4989,4.4067,4.6868,4.7276,4.7917,4.9501,4.9642,5.0141,5.1404,5.1102,5.1238,5.2383,5.2021,5.1931,5.2267,5.186,5.1251,5.0507,4.9999,4.8917,4.7225,4.5602,4.2997,0.0,0.0,0.0,0.0,0.0,0.0,0.0,0.0,0.0,0.0,0.0,0.0,0.0,0.0,0.0,0.0,0.0,0.0,0.0,0.0,0.0,0.0,0.0,0.0,0.0,0.0,3.6935,3.696,3.8743,3.932,3.7638,3.9346,4.0676,4.1053,4.2258,4.4233,4.7079,4.7866,4.9844,5.3273,5.3774,5.4522,5.5508,5.5299,5.5179,5.5179,5.5179,5.5179,5.5179,5.5179,5.519,5.524,5.524,5.5219,5.5236,5.5243,5.4171,5.2432,5.1506,5.1148,5.118,5.118,5.1212,5.1213,5.1213,5.1183,5.088,4.9194,4.803,4.7317,4.7314,4.7282,4.7339,4.7312,4.7255,4.7285,4.7286,4.7316,4.7286,4.7285,4.7255,4.7431,4.7875,4.7992,4.7905,4.7815,4.7489,4.7302,4.7266,4.731,4.728,4.733,4.7272,4.761,4.8506,4.8618,4.8951,4.9742,4.9852,5.0397,5.1776,5.1229,5.1386,5.2605,5.1758,5.098,5.0473,4.9763,4.868,4.7192,4.6413,4.4451,4.1204,0.0,0.0,0.0,0.0,0.0,0.0,0.0,0.0,0.0,0.0,0.0,0.0,0.0,0.0,0.0,0.0,0.0,0.0,0.0,0.0,0.0,0.0,0.0,3.4826,3.6734,3.814,3.8165,4.0576,4.1605,3.9998,4.2283,4.3865,4.389,4.4392,4.4945,4.5641,4.751,4.9515,5.1764,5.3153,5.4614,5.6196,5.5568,5.5239,5.5239,5.5239,5.5239,5.5239,5.5209,5.5209,5.5209,5.5209,5.5179,5.5179,5.521,5.5219,5.4939,5.2299,5.1343,5.1298,5.1268,5.1155,5.1169,5.1208,5.121,5.115,5.1243,4.9494,4.7436,4.7288,4.7257,4.7312,4.7288,4.7406,4.7407,4.7405,4.7464,4.7405,4.7407,4.7406,4.7703,4.9012,4.934,4.9161,4.8713,4.7965,4.7369,4.7309,4.7309,4.7309,4.7309,4.7309,0.0,4.7309,4.7309,4.7679,4.8677,4.8841,4.9584,5.1704,5.1158,5.1516,5.3247,5.193,5.1085,5.1119,4.9024,4.7909,4.7909,4.5805,4.4282,4.3449,0.0,0.0,0.0,0.0,0.0,0.0,0.0,0.0,0.0,0.0,0.0,0.0,0.0,0.0,0.0,0.0,0.0,0.0,0.0,0.0,0.0,0.0,3.7111,3.7111,3.9371,4.1153,4.1555,4.2986,4.3765,4.3313,4.4342,4.5196,4.5598,4.6125,4.7136,4.8849,4.9482,5.0999,5.3888,5.4357,5.5255,5.6855,5.6645,5.6585,5.6585,5.6585,5.6585,5.6555,5.5603,5.5172,5.5172,5.5167,5.5179,5.5179,5.522,5.519,5.51,5.4368,5.4044,5.3833,5.1906,5.1155,5.1199,5.1233,5.1203,5.1173,5.115,5.0728,4.9794,4.7851,4.7318,4.7288,4.7258,4.8686,5.0125,5.0095,5.0125,5.0095,5.0125,4.9404,4.8955,4.9614,4.9764,4.9614,4.9194,4.8865,4.8416,4.7459,4.7309,4.7309,4.7309,4.7309,0.0,4.7309,4.7309,4.7679,4.8677,4.8841,4.9376,5.0703,5.0134,4.9733,4.97,4.8404,4.8125,4.9327,4.833,4.7965,4.8431,4.753,4.6286,0.0,0.0,0.0,0.0,0.0,0.0,0.0,0.0,0.0,0.0,0.0,0.0,0.0,0.0,0.0,0.0,0.0,0.0,0.0,0.0,0.0,0.0,3.809,3.9898,4.0375,4.163,4.2785,4.3564,4.4443,4.507,4.5296,4.5849,4.6401,4.6928,4.728,4.7951,4.9186,4.9445,5.0737,5.3181,5.3268,5.4318,5.6496,5.6338,5.6433,5.7094,5.7094,5.7094,5.7064,5.6392,5.5738,0.0,5.5189,5.5143,5.5155,5.5155,5.5197,0.0,0.0,0.0,0.0,0.0,5.1202,5.1149,5.122,5.119,5.116,5.1173,5.1178,5.0908,4.9371,4.8954,4.8894,4.8923,5.0065,5.1243,5.1151,5.1182,5.1121,5.0789,5.0095,4.9643,4.9944,5.0065,4.9944,4.9703,4.9673,0.0,4.8297,4.8117,4.8027,4.7758,4.7728,4.7608,4.7339,4.7309,4.7538,4.8157,4.8126,4.8594,4.9615,4.9032,0.0,0.0,0.0,4.7187,4.7517,4.7163,0.0,0.0,0.0,0.0,0.0,0.0,0.0,0.0,4.7569,4.7558,0.0,0.0,0.0,0.0,0.0,0.0,0.0,0.0,0.0,0.0,0.0,0.0,0.0,0.0,0.0,0.0,4.0953,4.2735,4.384,4.3564,4.3614,4.4593,4.5271,4.5874,4.6351,4.6903,4.7431,4.7958,4.8008,4.8033,4.8083,0.0,0.0,0.0,0.0,5.2642,5.5817,5.5353,5.5829,5.7334,5.7334,5.7334,5.7334,5.7304,5.6706,5.5663,5.5634,5.559,5.5662,5.5351,5.5215,5.5179,5.5179,5.523,5.4909,5.2545,5.163,5.1668,5.1624,0.0,0.0,5.116,5.1203,5.1178,5.1148,5.1243,5.1183,5.118,5.1241,5.1208,5.1169,5.1229,5.105,5.0269,4.9998,5.012,5.0239,5.0361,5.0361,5.0361,5.0361,5.0152,4.9583,4.9374,4.9075,4.8476,4.8386,4.8177,4.7608,4.7519,4.7605,4.7692,0.0,0.0,4.8975,4.8357,4.8604,5.0104,4.9006,4.7659,4.6253,4.6494,4.6557,4.6317,4.7766,4.9006,5.0182,5.0961,5.1694,5.2299,4.8925,4.8662,0.0,0.0,0.0,0.0,0.0,0.0,0.0,0.0,0.0,0.0,0.0,0.0,0.0,0.0,0.0,4.0626,4.2333,4.3865,4.4995,4.507,4.507,4.5296,4.62,4.6853,4.6954,4.7456,4.7983,4.856,4.8611,4.8786,4.9238,4.9364,0.0,5.183,5.1804,5.3359,5.6563,5.6419,5.7173,5.871,0.0,0.0,5.871,5.8714,5.8534,5.8384,5.8354,5.8338,5.8157,5.6093,5.5215,5.5179,5.5179,5.523,5.5159,5.46,5.4398,5.4382,5.4419,5.2995,5.1216,5.1238,5.1214,5.122,5.1199,5.1203,0.0,5.1233,5.1233,5.1169,5.1199,5.1229,5.1169,5.102,5.0896,5.099,5.102,5.102,5.102,5.102,5.102,5.099,5.087,4.9972,4.9224,4.9105,4.9075,4.9045,4.8895,4.8895,4.9191,5.0088,5.0143,5.0229,5.0368,4.9749,4.9189,4.8723,4.918,4.9116,4.8306,5.0074,5.0422,4.9085,5.0643,5.0928,4.9895,5.134,5.2353,5.2729,5.171,5.183,0.0,0.0,0.0,0.0,0.0,0.0,0.0,0.0,0.0,0.0,0.0,3.6734,0.0,0.0,4.1706,4.2811,4.3915,4.4945,4.5773,4.5899,4.5899,4.5899,4.6627,4.723,4.7481,4.8033,4.8586,4.9138,4.9188,4.9314,4.959,4.959,4.995,5.079,5.079,5.1989,5.4359,5.4359,5.5182,5.6736,5.7552,5.7716,5.757,5.8644,5.9135,5.9105,5.9061,5.9153,5.8882,5.6318,5.5218,5.5185,5.5185,5.5239,5.52,5.52,5.521,5.5159,5.5206,5.4368,5.3158,5.3181,5.227,5.1268,5.1768,5.1528,5.1229,5.1229,5.1229,5.1229,5.1229,5.1229,5.1229,5.1229,5.1229,5.1229,5.1229,5.1229,5.1229,5.1229,5.1229,5.1229,5.1229,5.069,5.0122,4.9793,4.9763,4.9643,4.9314,4.9254,4.9524,4.9995,5.0053,5.0053,5.0053,4.9748,4.9334,4.8865,4.9246,4.9413,4.9078,5.0174,5.0359,4.9565,5.0697,5.0882,4.9965,5.1559,5.2301,5.2489,5.2698,5.3233,0.0,0.0,0.0,0.0,0.0,0.0,0.0,0.0,3.4851,3.6634,3.8492,4.0124,4.1128,4.2585,4.394,4.4945,4.5573,4.6075,4.6426,4.6476,4.6426,4.6326,4.6903,4.7456,4.7857,4.8535,4.9113,4.9565,4.959,4.964,4.9741,4.9766,4.9816,4.9916,4.9916,5.0717,5.2147,5.2147,5.3052,5.4859,5.6137,5.662,5.6615,5.8297,5.9099,5.9099,5.9099,5.9057,5.8911,5.6809,5.5931,5.5871,5.5367,5.5232,5.5227,5.5239,5.5179,5.5149,5.514,5.518,5.5219,5.5024,5.3488,5.1869,5.2426,5.2192,5.1588,5.1588,5.1498,5.1409,5.1409,5.1319,5.1229,5.1229,5.1229,5.1229,5.1229,5.1229,5.1229,5.1229,5.1229,5.1229,5.1229,5.1229,5.105,5.0511,5.0421,5.0242,4.9703,4.9643,4.9643,4.9643,4.9643,4.9583,4.9464,4.9583,4.9583,4.9464,4.9583,4.9643,4.9643,4.9643,4.9643,4.9643,5.0272,5.0631,5.0631,5.1798,5.2456,5.2606,5.3144,5.3935,2.9891,3.1008,0.0,3.2466,3.3445,3.5303,0.0,0.0,3.9572,4.1706,4.2735,4.3438,4.4041,4.5146,4.615,4.6753,4.7305,4.7506,4.7104,4.7054,4.6853,4.6376,4.7205,4.7832,4.7908,4.8887,4.954,4.959,4.959,4.9816,5.0293,5.0318,5.0569,5.1071,5.1096,5.1583,5.2754,5.2754,5.3917,5.648,5.6622,5.7411,5.8714,5.8961,5.9099,5.9099,5.9099,5.9057,5.9138,5.8821,5.8655,5.8473,5.6154,5.5204,5.5219,5.5155,5.5179,5.5179,5.5149,5.525,5.5029,5.4311,5.3823,5.3584,5.3234,5.3025,5.2965,5.2965,5.2546,5.2097,5.2097,5.1648,5.1229,5.1229,5.1229,5.1229,5.1229,5.1229,5.1229,5.1229,5.1229,5.1229,5.1229,5.1229,5.1199,5.1109,5.1109,5.1079,5.102,5.099,5.099,5.099,5.099,5.078,5.0182,5.0661,5.075,5.0182,5.069,5.099,5.099,5.099,5.099,5.099,5.1648,5.1977,5.1977,5.2725,5.3384,5.3982,5.4072,5.4201,3.3344,0.0,0.0,0.0,3.7513,3.9069,4.0927,4.148,4.2057,4.3614,4.4392,4.4945,4.5497,4.625,4.6853,0.0,4.7581,4.7832,4.7606,4.733,4.6928,4.6376,4.6979,4.7581,4.7883,4.8636,4.9238,4.9565,4.9891,5.0167,5.0419,5.0745,5.1021,5.1272,5.1272,5.1545,5.1895,5.1895,5.2516,5.3619,5.461,5.5511,5.6475,5.823,5.9066,5.9099,5.9099,5.9147,5.9057,5.9057,5.9091,5.9002,5.7918,5.7453,5.7258,5.5795,5.5215,5.5185,5.5239,5.5179,5.5149,5.482,5.4331,5.4003,5.3862,5.3503,5.3174,5.3174,5.2995,5.2785,5.2785,5.2576,5.2366,5.2366,5.2366,5.2366,5.2366,5.2366,5.2366,5.2366,5.2366,5.2366,5.2366,5.2366,5.2366,5.2366,5.1708,5.1229,5.1229,5.1229,5.1229,5.1229,5.1229,5.1109,5.084,5.105,5.1259,5.1379,5.1648,5.1977,5.2336,5.2366,5.2366,5.2366,5.2636,5.2785,5.2785,5.3443,5.3922,5.4221,5.461,5.497,3.5244,0.0,0.0,3.8793,4.0576,4.2057,4.2208,4.2986,4.394,4.4895,4.5422,4.5874,4.6426,4.6853,0.0,4.7531,4.7908,4.8083,4.7933,4.7456,4.6928,4.6376,4.6527,4.6954,4.7631,4.836,4.9012,4.9565,5.0117,5.0494,5.0645,5.1197,5.1574,5.1724,5.1724,5.1649,5.1498,5.1498,5.169,5.2017,5.3321,5.436,5.5196,5.7847,5.9065,5.911,5.911,5.905,5.9099,5.9099,5.9087,5.9152,5.9152,5.9108,5.8851,5.6944,5.6302,5.6256,5.5718,5.5508,5.5478,5.5269,5.488,5.4491,5.4491,5.4132,5.3743,5.3743,5.3593,5.3473,5.3473,5.3324,5.3174,5.3174,5.3174,5.3174,5.3174,5.3174,5.3174,5.3174,5.3174,5.3174,5.3174,5.3174,5.3174,5.3174,5.2366,5.1768,5.1768,5.1768,5.1768,5.1768,5.1768,5.1768,5.1768,5.1768,5.1977,5.2456,5.2486,5.2665,5.3144,5.3174,5.3174,5.3174,5.3354,5.3473,5.3473,5.4311,5.476,5.476,5.5418,5.5957,0.0,0.0,3.9597,3.9647,4.1706,4.3865,4.4392,4.497,4.5573,4.615,4.6276,4.6451,4.7004,4.7129,4.7481,4.856,4.8736,4.856,4.7983,4.7456,4.6928,4.6376,4.5849,4.5974,0.0,4.8134,4.9012,4.9565,5.0117,5.067,5.1222,5.1774,5.2327,5.2854,5.2879,5.2628,5.2076,5.2076,5.2552,5.3576,5.3783,5.4934,5.6965,5.8451,5.91,5.905,5.905,5.9121,5.9099,5.9099,5.9099,5.9099,5.9099,5.9099,5.9039,5.9061,5.8972,5.8758,5.7075,5.6419,5.6299,5.5418,5.5179,5.5149,5.5149,5.5149,5.5119,5.5119,5.467,5.4192,5.4192,5.3683,5.3174,5.3174,5.3174,5.3174,5.3174,5.3174,5.3174,5.3174,5.3174,5.3174,5.3174,5.3174,5.3174,5.3174,5.3144,5.3114,5.3114,5.3114,5.3114,5.3114,5.3114,5.3114,5.3114,5.3114,5.3144,5.3144,5.3144,5.3144,5.3174,5.3174,5.3174,5.3174,5.3832,5.4192,5.4192,5.5478,5.6107,5.6137,5.6735,5.7034,0.0,0.0,4.1128,4.261,4.394,4.507,4.5623,4.5899,4.5974,4.5799,4.5447,4.5146,4.4945,4.5221,4.5824,4.6954,4.7732,4.8385,4.8937,4.856,4.7883,4.6954,4.7004,0.0,0.0,0.0,0.0,4.8987,4.9891,5.067,5.1247,5.2151,5.2729,5.2929,5.2929,5.2829,5.2653,5.2653,5.28,5.3113,5.3214,5.3556,5.4506,5.9426,6.1779,6.1644,5.9825,5.9126,5.91,5.9071,5.9119,5.9144,5.9071,5.9099,5.9099,5.9117,5.9135,5.9031,5.8429,5.742,5.6299,5.5927,5.5538,5.5179,5.5179,5.5179,5.5179,5.5179,5.5029,5.485,5.485,5.47,5.4521,5.4521,5.4521,5.4521,5.4521,5.4521,5.4521,5.4521,5.4521,5.4521,5.4521,5.4521,5.4521,5.4521,5.3743,5.3174,5.3174,5.3174,5.3174,5.3174,5.3174,5.3174,5.3174,5.3174,5.3384,5.3832,5.3862,5.4072,5.4491,5.4521,5.4521,5.4521,5.5179,5.5508,5.5508,5.6376,5.6795,5.6795,5.7004,5.7334,0.0,4.1354,4.2409,4.4443,4.5372,4.5874,4.6225,4.615,4.5849,4.5296,4.4568,4.3915,4.3564,4.3639,4.4292,4.6024,4.6878,4.7857,4.9389,4.8937,4.836,4.8058,4.7958,4.7933,0.0,0.0,0.0,4.9012,5.0268,5.1096,5.1272,5.2327,5.2929,5.2929,5.2929,5.2929,5.2929,5.2929,5.2929,5.2929,5.292,5.292,5.3035,5.7404,5.9501,5.938,5.7617,5.6926,5.691,5.6908,5.7797,5.916,5.9109,5.913,5.9099,5.9099,5.9099,5.9009,5.8866,5.7948,5.6795,5.6316,5.5897,5.5508,5.5269,5.5179,5.5179,5.5179,5.5179,5.5179,5.5179,5.5179,5.5179,5.5179,5.5179,5.5179,5.5179,5.5179,5.5179,5.5179,5.5179,5.5179,5.5179,5.5179,5.5179,5.5179,5.4461,5.3892,5.3892,5.3892,5.3892,5.3892,5.3892,5.3892,5.3892,5.3892,5.4102,5.4521,5.4551,5.476,5.5179,5.5418,5.5538,5.5538,5.6166,5.6496,5.6496,5.7154,5.7453,5.7453,5.7693,5.8052,4.1053,4.2308,4.3539,4.5171,4.5974,4.6326,4.6276,4.5849,4.5246,4.4593,4.3589,4.2785,0.0,0.0,4.2911,4.5648,4.6225,4.7079,4.9314,4.8711,4.8435,0.0,0.0,0.0,0.0,0.0,0.0,4.969,0.0,5.185,5.1348,5.2352,5.2929,5.2929,5.2929,5.2929,5.2929,5.2929,5.2929,5.2929,5.2929,5.2911,5.2924,5.2924,5.2881,5.2906,5.2906,5.2872,5.2855,5.2925,5.5187,5.8639,5.8958,5.8972,5.8961,5.8961,5.8991,5.9009,5.8274,5.8035,5.7932,5.6675,5.6256,5.6107,5.5478,5.5269,5.5239,5.5239,5.5209,5.5179,5.5179,5.5179,5.5179,5.5179,5.5209,5.5239,5.5239,5.5269,5.5299,5.5299,5.5299,5.5269,5.5239,5.5269,5.5299,5.5299,5.5299,5.5269,5.5209,5.5179,5.5179,5.5179,5.5179,5.5179,5.5179,5.5179,5.5209,5.5239,5.5239,5.5269,5.5299,5.5897,5.6226,5.6226,5.6825,5.7154,5.7154,5.7842,5.8171,5.8201,5.88,5.9099,4.3112,4.4593,4.5673,4.6502,4.6828,4.6702,4.5874,4.5246,4.4342,4.2534,4.1304,4.0023,3.8366,0.0,0.0,4.2911,4.4945,0.0,4.9841,4.9967,0.0,0.0,0.0,5.0368,5.0218,5.0971,0.0,0.0,5.1247,5.1599,5.1875,5.2553,5.2929,5.2929,5.2929,5.2929,5.2929,5.2929,5.2929,5.2929,5.2929,5.2941,5.2876,5.2876,5.286,5.2877,5.2877,5.296,5.2941,5.2907,5.2612,5.2456,5.727,5.8116,5.6756,5.6756,5.7739,5.8961,5.7488,5.7467,5.8082,5.7723,5.7274,5.6825,5.6645,5.6286,5.5927,5.5927,5.5568,5.5179,5.5179,5.5179,5.5179,5.5179,5.5568,5.5927,5.5927,5.6286,5.6615,5.6615,5.6615,5.6466,5.5987,5.6316,5.6615,5.6615,5.6615,5.6256,5.5299,5.5179,5.5179,5.5179,5.5179,5.5179,5.5179,5.5179,5.5388,5.5897,5.5927,5.6137,5.6585,5.6765,5.6855,5.6855,5.7513,5.7872,5.7872,5.853,5.886,5.886,5.9039,5.9099,4.4819,4.6175,4.7029,4.7104,4.6954,4.6301,4.4443,4.3589,4.2409,3.9722,3.8492,0.0,0.0,0.0,0.0,0.0,0.0,0.0,4.9967,5.0419,5.0695,0.0,5.1599,0.0,5.1523,5.2101,5.2327,0.0,5.2,5.2026,5.2101,5.2628,5.2929,5.2929,5.2929,5.2929,5.2929,5.2929,5.2929,5.2929,5.2929,5.2929,5.2929,5.2929,5.2929,5.2929,0.0,5.2929,5.2879,5.2928,5.2225,5.1254,5.3847,5.4948,5.507,5.5247,5.6023,5.6878,5.6022,5.6051,5.6636,5.7773,5.7872,5.7483,5.7184,5.6855,5.6585,5.6585,5.6316,5.6017,5.6017,5.6017,5.6017,5.6017,5.6316,5.6585,5.6585,5.6855,5.7094,5.7094,5.7094,5.6974,5.6645,5.6855,5.7094,5.7094,5.7094,5.6825,5.6107,5.6017,5.6017,5.6017,5.6017,5.6017,5.6017,5.6017,5.6166,5.6555,5.6585,5.6735,5.7094,5.7393,5.7543,5.7543,5.8201,5.856,5.856,5.8919,5.9249,5.9548,5.9548,5.9697,4.6301,4.7305,4.7908,4.7355,4.6778,4.5573,4.2785,4.1555,4.0099,3.686,0.0,0.0,3.4299,0.0,3.7211,4.0475,0.0,4.5824,4.9841,5.0419,5.1046,5.2729,5.2503,5.2402,5.2879,5.2929,5.2929,5.2929,5.2929,5.2729,5.2226,5.2678,5.2929,5.2929,5.2929,5.2929,5.2929,5.2929,5.2929,5.2929,5.2929,5.2929,5.2929,5.2929,5.2929,5.2929,0.0,0.0,5.2929,5.2929,5.2869,5.2775,5.0971,5.1805,5.3957,5.4211,5.4396,5.4607,5.4314,5.4286,5.4887,5.7189,5.791,5.7791,5.7437,5.7304,5.7244,5.7244,5.7154,5.7094,5.7094,5.7094,5.7094,5.7094,5.7154,5.7244,5.7244,5.7304,5.7334,5.7244,5.7304,5.7334,5.7244,5.7304,5.7363,5.7363,5.7363,5.7363,5.7363,5.7214,5.7094,5.7094,5.7094,5.7094,5.7094,5.7094,5.7124,5.7214,5.7244,5.7274,5.7363,5.7932,5.8261,5.8261,5.88,5.9159,5.9249,5.9249,5.9578,6.0206,6.0206,6.0535,4.7933,4.8485,4.8485,4.7908,4.7029,4.5573,4.2785,4.0676,0.0,0.0,0.0,3.3043,3.1587,3.3345,0.0,3.8843,0.0,0.0,0.0,0.0,5.1046,0.0,0.0,0.0,0.0,0.0,0.0,0.0,0.0,0.0,5.2779,5.2879,5.2929,5.2929,5.2929,5.2929,5.2929,5.2929,5.2929,5.2929,5.2929,5.2929,5.2929,5.2929,5.2929,5.2929,5.2929,0.0,5.2929,5.2929,5.2927,5.3011,5.3818,5.3839,5.3694,5.3668,5.4619,5.5401,5.3707,5.3889,5.5233,5.6537,5.6901,5.7125,5.8446,5.8381,5.7932,5.7932,5.7543,5.7094,5.7094,5.7094,5.7094,5.7094,5.7513,5.7932,5.7932,5.8381,5.859,5.8052,5.8381,5.859,5.8052,5.8411,5.877,5.877,5.877,5.877,5.877,5.7782,5.7094,5.7094,5.7094,5.7094,5.7094,5.7094,5.7334,5.7902,5.7932,5.8201,5.874,5.886,5.8949,5.8949,5.9039,5.9368,5.9907,5.9907,6.0266,6.0924,6.0924,6.1014,4.8033,4.8535,4.856,4.7707,4.6451,4.4392,4.0475,0.0,0.0,0.0,0.0,3.1461,3.0382,0.0,0.0,0.0,0.0,0.0,0.0,0.0,0.0,0.0,0.0,0.0,0.0,0.0,0.0,0.0,0.0,0.0,5.2929,5.2929,5.2929,5.2929,5.2929,5.2929,5.2929,5.2929,5.2929,5.2929,5.2929,5.2929,5.2929,5.2929,5.2929,5.2929,5.2929,0.0,5.2929,5.2929,5.2829,5.2927,5.3171,5.3079,5.277,5.2488,5.2855,5.3448,5.244,5.2386,5.2906,5.4188,5.511,5.5676,5.6394,5.6421,5.6191,5.6191,5.5961,5.5926,5.6727,5.6837,5.7084,5.7898,5.7813,5.7335,5.7335,5.6984,5.6762,5.7283,5.757,5.8048,5.8573,5.889,5.9099,5.9099,5.9099,5.9099,5.9099,5.853,5.8141,5.8141,5.8141,5.8141,5.8141,5.8141,5.8291,5.862,5.865,5.877,5.9099,5.9428,5.9608,5.9608,5.9967,6.0296,6.0625,6.0625,6.0954,6.1613,6.1613,6.1822,4.7707,4.8234,4.836,4.738,4.5773,4.3212,3.8442,3.6659,0.0,0.0,0.0,3.0306,2.988,0.0,0.0,0.0,0.0,0.0,0.0,0.0,0.0,0.0,0.0,0.0,0.0,0.0,0.0,0.0,0.0,0.0,5.2929,5.2929,5.2929,5.2929,5.2929,5.2929,5.2929,5.2929,5.2929,5.2929,5.2929,5.2929,5.2929,5.2929,5.2929,5.2929,5.2929,0.0,0.0,5.2929,5.2929,5.2879,5.2241,5.209,5.2226,5.18,5.1624,5.1624,5.1498,5.1172,5.1008,5.2104,5.3165,5.391,5.4268,5.4386,5.4386,5.4386,5.4386,5.4623,5.5907,5.6251,5.6508,5.7804,5.7104,5.6251,5.6251,5.556,5.5239,5.6652,5.7164,5.7927,5.927,5.9548,5.9409,5.905,5.894,5.894,5.894,5.894,5.916,5.9518,5.9279,5.9159,5.9308,5.9308,5.9368,5.9518,5.9548,5.9548,5.9548,6.0027,6.0296,6.0296,6.0835,6.1194,6.1313,6.1313,6.1672,6.2301,6.2301,6.26,4.7506,4.7933,4.7857,4.728,4.5497,4.2836,3.8843,0.0,0.0,0.0,3.0181,2.9854,2.9804,0.0,0.0,0.0,0.0,0.0,0.0,0.0,0.0,0.0,0.0,0.0,0.0,0.0,0.0,0.0,0.0,0.0,0.0,5.2929,5.2929,5.2929,5.2929,5.2929,5.2929,5.2929,5.2929,5.2929,5.2929,5.2929,5.2929,5.2929,5.2929,5.2929,5.2929,0.0,0.0,5.2929,5.2929,5.2929,5.2854,5.2854,5.2854,5.2804,5.2779,5.2703,5.2201,5.2,5.1875,5.1481,5.182,5.2455,5.391,5.4386,5.4386,5.4386,5.4386,5.4386,5.4505,5.4623,5.4623,5.4741,5.4741,5.4623,5.4623,5.556,5.6652,5.7456,5.8796,6.0066,6.0835,6.0924,6.0416,5.8784,5.8552,5.8552,5.8552,5.8552,5.916,6.0813,5.9847,5.9338,5.9937,5.9997,6.0266,6.0894,6.0924,6.0924,6.0924,6.0984,6.1014,6.1014,6.1074,6.1403,6.2002,6.2002,6.2331,6.2989,6.2989,6.3019,4.61,4.6928,4.723,4.6351,4.4468,4.1806,3.7914,0.0,0.0,3.0683,2.9955,2.9804,2.9804,2.998,3.0984,0.0,3.4424,0.0,0.0,0.0,0.0,0.0,0.0,0.0,0.0,0.0,0.0,0.0,0.0,0.0,0.0,5.313,5.2929,5.2929,5.2929,5.2929,5.2929,5.2929,5.2929,5.2929,5.2929,5.2929,5.2929,5.2929,5.2929,5.2929,5.2929,0.0,0.0,5.2929,5.2929,5.2929,5.2929,5.2929,5.2929,5.2929,5.2929,5.2904,5.2678,5.2377,5.2076,5.185,5.1753,5.1717,5.2334,5.2563,5.2511,5.2145,5.204,5.2292,5.3235,5.4338,5.5232,5.4994,5.4338,5.3868,5.3868,5.3646,5.3824,5.5033,5.5795,5.6605,5.7843,5.8018,5.7752,5.7126,5.7005,5.7005,5.7005,5.7005,5.7246,5.8018,5.9383,6.0416,6.0685,6.0715,6.0835,6.1104,6.0111,5.9997,6.1104,6.0495,6.0671,6.1702,6.2091,6.2421,6.269,6.1644,6.1792,6.3079,6.2028,6.1525,4.4317,4.5422,4.5949,4.5171,4.3438,4.0902,0.0,0.0,3.3119,3.0357,2.9804,2.9804,2.9804,2.9804,3.0457,0.0,3.3093,3.5002,0.0,0.0,0.0,0.0,0.0,0.0,0.0,0.0,0.0,0.0,0.0,0.0,0.0,5.3192,5.2867,5.2929,5.2929,5.2929,5.2929,5.2929,5.2929,5.2929,5.2929,5.2929,5.2929,5.2929,5.2929,5.2929,0.0,0.0,0.0,5.2929,5.2929,5.2929,5.2929,5.2929,5.2929,5.2929,5.2929,5.2929,5.2929,5.2678,5.2352,5.2352,5.2076,5.1774,5.1774,5.1548,5.1197,5.0795,5.067,5.0907,5.2001,5.3541,5.4459,5.4181,5.3414,5.2984,5.2984,5.2359,5.2436,5.3684,5.4326,5.5014,5.6431,5.6583,5.6459,5.5932,5.5807,5.5807,5.5807,5.5807,5.6057,5.6583,5.8708,6.0121,5.9946,5.9916,6.0004,6.018,5.9065,5.8918,6.0093,5.9496,5.9606,6.0882,6.1321,6.1555,6.1555,6.0387,6.0387,6.1555,6.0387,5.9749,4.2258,4.3413,4.384,4.3815,4.2559,4.0325,0.0,3.47,3.3119,3.0357,2.9804,2.9804,2.9804,2.9804,3.0331,3.1964,3.3169,3.5454,0.0,0.0,0.0,0.0,0.0,0.0,0.0,0.0,0.0,0.0,0.0,0.0,0.0,5.2858,5.2953,5.2929,5.2929,5.2929,5.2929,5.2929,5.2929,5.2929,5.2929,5.2929,5.2929,5.2929,5.2929,0.0,0.0,0.0,0.0,5.2929,5.2929,5.2929,5.2929,5.2929,5.2929,5.2929,5.2929,5.2929,5.2929,5.2929,5.2929,5.2929,5.2904,5.2904,5.2904,5.2151,5.1272,5.1272,5.1272,5.1272,5.1272,5.1272,5.1405,5.1405,5.1272,5.1272,5.1272,5.249,5.3734,5.4443,5.5834,5.7161,5.7867,5.7977,5.7341,5.5656,5.5393,5.5393,5.5393,5.5393,5.6049,5.785,5.7977,5.7729,5.7148,5.7093,5.7342,5.7949,5.7977,5.7977,5.7977,5.7977,5.7977,5.7977,5.8005,5.8005,5.8005,5.8005,5.8005,5.8005,5.8005,5.8005,3.8341,3.9722,4.0727,3.9572,3.8592,3.7211,3.4474,3.3294,3.219,3.0206,2.9804,2.9804,2.9804,2.9804,3.0834,3.3972,3.4801,0.0,0.0,0.0,0.0,0.0,0.0,0.0,0.0,0.0,0.0,0.0,0.0,0.0,0.0,5.5182,5.4436,5.3003,5.2892,5.2929,5.2929,5.2929,5.2929,5.2929,5.2929,5.2929,5.2929,5.2929,0.0,0.0,0.0,0.0,0.0,5.2929,5.2929,5.2929,5.2929,5.2929,5.2929,5.2929,5.2929,5.2929,5.2929,5.2929,5.2929,5.2929,5.2929,5.2929,5.2929,5.2678,5.2327,5.195,5.185,5.1749,5.1373,5.185,5.2302,5.1925,5.2126,5.2402,5.2402,5.2784,5.319,5.3368,5.3798,5.4252,5.4433,5.4459,5.4325,5.381,5.3674,5.3674,5.3674,5.3674,5.392,5.4459,5.4459,5.5393,5.7476,5.7729,5.7784,5.7977,5.6828,5.6699,5.8005,5.6828,5.6828,5.8005,5.8005,5.8005,5.8005,5.6828,5.6206,5.6206,5.6206,5.6828,0.0,3.6621,3.7864,3.6835,3.6157,3.5228,3.3219,3.2315,3.1512,3.008,2.9804,2.9804,2.9804,2.9955,3.1009,3.3822,0.0,0.0,0.0,0.0,0.0,0.0,0.0,0.0,0.0,0.0,0.0,0.0,0.0,0.0,0.0,5.6226,5.5551,5.4144,5.3368,5.2892,5.2929,5.2929,5.2929,5.2929,5.2929,5.2929,5.2929,5.2929,0.0,0.0,0.0,0.0,0.0,5.2929,5.2929,5.2929,5.2929,5.2929,5.2929,5.2929,5.2929,5.2929,5.2929,5.2929,5.2929,5.2929,5.2929,5.2929,5.2929,5.2929,5.2854,5.2503,5.2427,5.2327,5.2,5.2402,5.2829,5.2503,5.2678,5.2929,5.2929,5.2929,5.2929,5.2929,5.2929,5.2929,5.2929,5.2929,5.2929,5.2929,5.2929,5.2929,5.2929,5.2929,5.2929,5.2929,5.2929,5.381,5.5841,5.6103,5.6103,5.6103,5.5075,5.4942,5.5972,5.5075,5.4942,5.6103,5.6103,5.6103,5.6103,5.4942,5.4433,5.4433,5.4433,5.5075,0.0,3.3906,3.5228,3.5152,3.4776,3.4022,3.2416,3.1662,0.0,3.0005,2.9804,2.9854,3.0005,3.0382,3.1135,3.2516,0.0,0.0,0.0,0.0,0.0,0.0,0.0,0.0,0.0,0.0,0.0,0.0,0.0,0.0,0.0,5.6208,5.6175,5.615,5.4069,5.2839,5.2955,5.2929,5.2929,5.2929,5.2929,5.2929,5.2929,5.2929,0.0,0.0,0.0,0.0,0.0,5.2929,5.2929,5.2929,5.2929,5.2929,5.2929,5.2929,5.2929,5.2929,5.2929,5.2929,5.2929,5.2929,5.2929,5.2929,5.2929,5.2929,5.2929,5.2929,5.2929,5.2929,5.2929,5.2929,5.2929,5.2929,5.2929,5.2929,5.2929,5.2929,5.2929,5.2929,5.2929,5.2929,5.2929,5.2929,5.2929,5.2929,5.2929,5.2929,5.2929,5.2929,5.2929,5.2929,5.2929,5.2929,5.2929,5.2929,5.2929,5.2929,5.2929,5.2929,5.2929,5.2929,5.2929,5.2929,5.2929,5.2929,5.2929,5.2929,5.2929,5.2929,5.2929,5.2929,2.7264,0.0,3.2164,3.1361,3.1361,3.1361,0.0,3.0583,0.0,0.0,0.0,0.0,0.0,0.0,0.0,0.0,0.0,0.0,0.0,0.0,0.0,0.0,0.0,0.0,0.0,0.0,0.0,0.0,0.0,0.0,0.0,5.6143,5.6283,5.6175,5.401,5.2907,5.2839,5.2892,5.2929,5.2929,5.2929,5.2929,5.2929,5.2929,0.0,0.0,0.0,0.0,5.2929,5.2929,5.2929,5.2929,5.2929,5.2929,5.2929,5.2929,5.2929,5.2929,5.2929,5.2929,5.2929,5.2929,5.2929,5.2929,5.2929,5.2929,5.2929,5.2929,5.2929,5.2929,5.2929,5.2929,5.2929,5.2929,5.2929,5.2929,5.2929,5.2929,5.2929,5.2929,5.2929,5.2929,5.2929,5.2929,5.2929,5.2929,5.2929,5.2929,5.2929,5.2929,5.2929,5.2929,5.2929,5.2929,5.2929,5.2929,5.2929,5.2929,5.2929,5.2929,5.2929,5.2929,5.2929,5.2929,5.2929,5.2929,5.2929,5.2929,5.2929,5.2929,5.2929,5.2929,2.5273,2.8378,3.1311,3.0984,3.1135,3.126,0.0,0.0,0.0,0.0,0.0,0.0,0.0,0.0,0.0,0.0,0.0,0.0,0.0,0.0,0.0,0.0,0.0,0.0,0.0,0.0,0.0,0.0,0.0,0.0,0.0,5.6219,5.6118,5.6233,5.4996,5.3861,5.2964,5.2942,5.2929,5.2929,5.2929,5.2929,5.2929,5.2929,5.2929,0.0,0.0,0.0,5.2929,5.2929,5.2929,5.2929,5.2929,5.2929,5.2929,5.2929,5.2929,5.2929,5.2929,5.2929,5.2929,5.2929,5.2929,5.2929,5.2929,5.2929,5.2929,5.2929,5.2929,5.2929,5.2929,5.2929,5.2929,5.2929,5.2929,5.2929,5.2929,5.2929,5.2929,5.2929,5.2929,5.2929,5.2929,5.2929,5.2929,5.2929,5.2929,5.2929,5.2929,5.2929,5.2929,5.2929,5.2929,5.2929,5.2929,5.2929,5.2929,5.2929,5.2929,5.2929,5.2929,5.2929,5.2929,5.2929,5.2929,5.2929,5.2929,5.2929,5.2929,5.2929,5.3181,5.3281,2.5038,2.845,3.1522,3.183,3.2164,3.229,0.0,0.0,0.0,0.0,0.0,0.0,0.0,0.0,0.0,0.0,0.0,0.0,0.0,0.0,0.0,0.0,0.0,0.0,0.0,0.0,0.0,0.0,0.0,0.0,0.0,5.6219,5.6219,5.6219,5.6182,5.5375,5.3453,5.3242,5.3155,5.3055,5.3055,5.3005,5.2929,5.2929,5.2929,0.0,0.0,0.0,5.2929,5.2929,5.2929,5.2929,5.2929,5.2929,5.2929,5.2929,5.2929,5.2929,5.2929,5.2929,5.2929,5.2929,5.2929,5.2929,5.2929,5.2929,5.2929,5.2929,5.2929,5.2929,5.2929,5.2929,5.2929,5.2929,5.2929,5.2929,5.2929,5.2929,5.2929,5.2929,5.2929,5.2929,5.2929,5.2929,5.2929,5.2929,5.2929,5.2929,5.2929,5.2929,5.2929,5.2929,5.2929,5.2929,5.2929,5.2929,5.2929,5.2929,5.2929,5.2929,5.2929,5.2929,5.2929,5.2929,5.2929,5.298,5.3055,5.3055,5.308,5.3181,5.3632,5.3833,2.6341,2.9362,3.1479,3.1023,3.1913,3.2692,0.0,0.0,0.0,0.0,0.0,0.0,0.0,0.0,0.0,0.0,0.0,0.0,0.0,0.0,0.0,0.0,0.0,0.0,0.0,0.0,0.0,0.0,0.0,0.0,0.0,0.0,5.6219,5.6219,5.6182,5.6049,5.5652,5.5072,5.4326,5.3582,5.3582,5.3356,5.2929,5.2929,5.2929,0.0,0.0,5.2929,5.2929,5.2929,5.2929,5.2929,5.2929,5.2929,5.2929,5.2929,5.2929,5.2929,5.2929,5.2929,5.2929,5.2929,5.2929,5.2929,5.2929,5.2929,5.2929,5.2929,5.2929,5.2929,5.2929,5.2929,5.2929,5.2929,5.2929,5.2929,5.2929,5.2929,5.2929,5.2929,5.2929,5.2929,5.2929,5.2929,5.2929,5.2929,5.2929,5.2929,5.2929,5.2929,5.2929,5.2929,5.2929,5.2929,5.2929,5.2929,5.2929,5.2929,5.2929,5.2929,5.2929,5.2929,5.2929,5.2929,5.2929,5.313,5.3582,5.3582,5.3833,5.431,5.4386,5.4436,2.5383,2.805,3.0257,3.163,3.3646,0.0,0.0,0.0,0.0,0.0,0.0,0.0,0.0,0.0,0.0,0.0,0.0,0.0,0.0,0.0,0.0,0.0,0.0,0.0,0.0,0.0,0.0,0.0,0.0,0.0,0.0,0.0,5.6219,5.6219,5.6214,5.6138,5.6138,5.5559,5.4779,5.3708,5.3406,5.3155,5.2929,5.2929,5.2929,5.2929,0.0,5.2929,5.2929,5.2929,5.2929,5.2929,5.2929,5.2929,5.2929,5.2929,5.2929,5.2929,5.2929,5.2929,5.2929,5.2929,5.2929,5.2929,5.2929,5.2929,5.2929,5.2929,5.2929,5.2929,5.2929,5.2929,5.2929,5.2929,5.2929,5.2929,5.2929,5.2929,5.2929,5.2929,5.2929,5.2929,5.2929,5.2929,5.2929,5.2929,5.2929,5.2929,5.2929,5.2929,5.2929,5.2929,5.2929,5.2929,5.2929,5.2929,5.2929,5.2929,5.2929,5.2929,5.2929,5.2929,5.2929,5.2929,5.3206,5.3457,5.3708,5.4009,5.431,5.4587,5.4863,5.5013,2.49,2.7084,2.9167,0.0,0.0,0.0,0.0,0.0,0.0,0.0,0.0,0.0,0.0,0.0,0.0,0.0,0.0,0.0,0.0,0.0,0.0,0.0,0.0,0.0,0.0,0.0,0.0,0.0,0.0,0.0,0.0,0.0,5.6219,5.6219,5.6219,5.6219,5.6219,5.5541,5.4762,5.3909,5.3356,5.3055,5.2929,5.2929,5.2929,5.2929,5.2929,5.2929,5.2929,5.2929,5.2929,5.2929,5.2929,5.2929,5.2929,5.2929,5.2929,5.2929,5.2929,5.2929,5.2929,5.2929,5.2929,5.2929,5.2929,5.2929,5.2929,5.2929,5.2929,5.2929,5.2929,5.2929,5.2929,5.2929,5.2929,5.2929,5.2929,5.2929,5.2929,5.2929,5.2929,5.2929,5.2929,5.2929,5.2929,5.2929,5.2929,5.2929,5.2929,5.2929,5.2929,5.2929,5.2929,5.2929,5.2929,5.2929,5.2929,5.2929,5.2929,5.2929,5.2929,5.2929,5.298,5.3105,5.3507,5.3833,5.411,5.4536,5.4813,5.4963,5.539,5.5591,2.6447,2.7712,2.9022,0.0,0.0,0.0,0.0,0.0,0.0,0.0,0.0,0.0,0.0,0.0,0.0,0.0,0.0,0.0,0.0,0.0,0.0,0.0,0.0,0.0,0.0,0.0,0.0,0.0,0.0,0.0,0.0,0.0,0.0,5.6219,5.6219,5.6219,5.6219,5.5164,5.4587,5.4486,5.3909,5.3381,5.2929,5.2929,5.2929,5.2929,5.2929,5.2929,5.2929,5.2929,5.2929,5.2929,5.2929,5.2929,5.2929,5.2929,5.2929,5.2929,5.2929,5.2929,5.2929,5.2929,5.2929,5.2929,5.2929,5.2929,5.2929,5.2929,5.2929,5.2929,5.2929,5.2929,5.2929,5.2929,5.2929,5.2929,5.2929,5.2929,5.2929,5.2929,5.2929,5.2929,5.2929,5.2929,5.2929,5.2929,5.2929,5.2929,5.2929,5.2929,5.2929,5.2929,5.2929,5.2929,5.2929,5.2929,5.2929,5.2929,5.2929,5.2929,5.2929,5.2929,5.3155,5.3632,5.3683,5.421,5.5265,5.5315,5.5591,5.6093,5.6143,5.6143,2.3023,2.4724,2.726,0.0,0.0,0.0,0.0,0.0,0.0,0.0,0.0,0.0,0.0,0.0,0.0,0.0,0.0,0.0,0.0,0.0,0.0,0.0,0.0,0.0,0.0,0.0,0.0,0.0,0.0,0.0,0.0,0.0,0.0,5.492,5.5271,5.5491,5.5189,5.4411,5.4034,5.4009,5.3482,5.313,5.2929,5.2929,5.2929,5.2929,5.2929,5.2929,5.2929,5.2929,5.2929,5.2929,5.2929,5.2929,5.2929,5.2929,5.2929,5.2929,5.2929,5.2929,5.2929,5.2929,5.2929,5.2929,5.2929,5.2929,5.2929,5.2929,5.2929,5.2929,5.2929,5.2929,5.2929,5.2929,5.2929,5.2929,5.2929,5.2929,5.2929,5.2929,5.2929,5.2929,5.2929,5.2929,5.2929,5.2929,5.2929,5.2929,5.2929,5.2929,5.2929,5.2929,5.2929,5.2929,5.2929,5.2929,5.2929,5.2929,5.2929,5.308,5.3381,5.3406,5.3658,5.4235,5.4587,5.4963,5.539,5.5742,5.6018,5.6219,5.6219,5.6219,2.1569,2.3971,2.7964,0.0,0.0,0.0,0.0,0.0,0.0,0.0,0.0,0.0,0.0,0.0,0.0,0.0,0.0,0.0,0.0,0.0,0.0,0.0,0.0,0.0,0.0,0.0,0.0,0.0,0.0,0.0,0.0,0.0,0.0,0.0,5.4645,5.4888,5.4561,5.3984,5.3708,5.3683,5.3181,5.2929,5.2929,5.2929,5.2929,5.2929,5.2929,5.2929,5.2929,5.2929,5.2929,5.2929,5.2929,5.2929,5.2929,5.2929,5.2929,5.2929,5.2929,5.2929,5.2929,5.2929,5.2929,5.2929,5.2929,5.2929,5.2929,5.2929,5.2929,5.2929,5.2929,5.2929,5.2929,5.2929,5.2929,5.2929,5.2929,5.2929,5.2929,5.2929,5.2929,5.2929,5.2929,5.2929,5.2929,5.2929,5.2929,5.2929,5.2929,5.2929,5.2929,5.2929,5.2929,5.3005,5.3155,5.3181,5.3256,5.3432,5.3457,5.3532,5.3683,5.3884,5.4235,5.4813,5.5189,5.5465,5.5641,5.6018,5.6219,5.6219,5.6219,5.6219,2.3186,2.6428,0.0,0.0,0.0,0.0,0.0,0.0,0.0,0.0,0.0,0.0,0.0,0.0,0.0,0.0,0.0,0.0,0.0,0.0,0.0,0.0,0.0,0.0,0.0,0.0,0.0,0.0,0.0,0.0,0.0,0.0,0.0,0.0,5.4319,5.4561,5.4536,5.3984,5.3683,5.3683,5.3181,5.2929,5.2929,5.2929,5.2929,5.2929,5.2929,5.2929,5.2929,5.2929,5.2929,5.2929,5.2929,5.2929,5.2929,5.2929,5.2929,5.2929,5.2929,5.2929,5.2929,5.2929,5.2929,5.2929,5.2929,5.2929,5.2929,5.2929,5.2929,5.2929,5.2929,5.2929,5.2929,5.2929,5.2929,5.2929,5.2929,5.2929,5.2929,5.2929,5.2929,5.2929,5.2929,5.2929,5.2929,5.2929,5.2929,5.2929,5.2929,5.2929,5.2929,5.2955,5.2955,5.3155,5.3658,5.3708,5.3959,5.4536,5.4561,5.431,5.3733,5.426,5.4838,5.539,5.539,5.5666,5.6219,5.6219,5.6219,5.6219,5.6219,5.6219,3.1215,0.0,0.0,0.0,0.0,0.0,0.0,0.0,0.0,0.0,0.0,0.0,0.0,0.0,0.0,0.0,0.0,0.0,0.0,0.0,0.0,0.0,0.0,0.0,0.0,0.0,0.0,0.0,0.0,0.0,0.0,0.0,0.0,0.0,5.3733,5.3783,5.3406,5.3256,5.3155,5.3155,5.3005,5.2929,5.2929,5.2929,5.2929,5.2929,5.2929,5.2929,5.2929,5.2929,5.2929,5.2929,5.2929,5.2929,5.2929,5.2929,5.2929,5.2929,5.2929,5.2929,5.2929,5.2929,5.2929,5.2929,5.2929,5.2929,5.2929,5.2929,5.2929,5.2929,5.2929,5.2929,5.2929,5.2929,5.2929,5.2929,5.2929,5.2929,5.2929,5.2929,5.2929,5.2929,5.2929,5.2929,5.2929,5.2929,5.2929,5.3055,5.3432,5.3457,5.3632,5.4034,5.4084,5.4135,5.4285,5.431,5.4386,5.4561,5.4938,5.5064,5.4888,5.5064,5.539,5.5968,5.5968,5.6043,5.6219,5.6219,5.6219,5.6219,5.6219,5.6219,0.0,0.0,0.0,0.0,0.0,0.0,0.0,0.0,0.0,0.0,0.0,0.0,0.0,0.0,0.0,0.0,0.0,0.0,0.0,0.0,0.0,0.0,0.0,0.0,0.0,0.0,0.0,0.0,0.0,0.0,0.0,0.0,0.0,0.0,5.3231,5.3256,5.2929,5.2929,5.2929,5.2929,5.2929,5.2929,5.2929,5.2929,5.2929,5.2929,5.2929,5.2929,5.2929,5.2929,5.2929,5.2929,5.2929,5.2929,5.2929,5.2929,5.2929,5.2929,5.2929,5.2929,5.2929,5.2929,5.2929,5.2929,5.2929,5.2929,5.2929,5.2929,5.2929,5.2929,5.2929,5.2929,5.2929,5.2929,5.2929,5.2929,5.2929,5.2929,5.2929,5.2929,5.2929,5.2929,5.2929,5.2929,5.2929,5.2929,5.3105,5.3432,5.3984,5.4059,5.4185,5.4536,5.4561,5.4662,5.4863,5.4888,5.4988,5.5214,5.5541,5.5717,5.5717,5.5717,5.5867,5.6194,5.6219,5.6219,5.6219,5.6219,5.6219,5.6219,5.6219,5.6219,0.0,0.0,0.0,0.0,0.0,0.0,0.0,0.0,0.0,0.0,0.0,0.0,0.0,0.0,0.0,0.0,0.0,0.0,0.0,0.0,0.0,0.0,0.0,0.0,0.0,0.0,0.0,0.0,0.0,0.0,0.0,0.0,0.0,5.2929,5.2929,5.2929,5.2929,5.2929,5.2929,0.0,5.2929,5.2929,5.2929,5.2929,5.2929,5.2929,5.2929,5.2929,5.2929,5.2929,5.2929,5.2929,5.2929,5.2929,5.2929,5.2929,5.2929,5.2929,5.2929,5.2929,5.2929,5.2929,5.2929,5.2929,5.2929,5.2929,5.2929,5.2929,5.2929,5.2929,5.2929,5.2929,5.2929,5.2929,5.2929,5.2929,5.2929,5.2929,5.2929,5.2929,5.2955,5.3005,5.3005,5.303,5.308,5.308,5.3482,5.3984,5.4561,5.4637,5.4662,5.4712,5.4712,5.4913,5.5415,5.5465,5.5666,5.6168,5.6219,5.6219,5.6219,5.6219,5.6219,5.6219,5.6219,5.6219,5.6219,5.6219,5.6219,5.6219,5.6269,5.6269,0.0,0.0,0.0,0.0,0.0,0.0,0.0,0.0,0.0,0.0,0.0,0.0,0.0,0.0,0.0,0.0,0.0,0.0,0.0,0.0,0.0,0.0,0.0,0.0,0.0,0.0,0.0,0.0,0.0,0.0,0.0,0.0,0.0,5.2929,5.2929,5.2929,5.2929,5.2929,5.2929,0.0,5.2929,5.2929,5.2929,5.2929,5.2929,5.2929,5.2929,5.2929,5.2929,5.2929,5.2929,5.2929,5.2929,5.2929,5.2929,5.2929,5.2929,5.2929,5.2929,5.2929,5.2929,5.2929,5.2929,5.2929,5.2929,5.2929,5.2929,5.2929,5.2929,5.2929,5.2929,5.2929,5.2929,5.2929,5.2929,5.2929,5.2929,5.2929,5.2929,5.2929,5.3256,5.3532,5.3532,5.3909,5.421,5.421,5.431,5.4587,5.5139,5.5214,5.539,5.5817,5.5867,5.5917,5.6018,5.6043,5.6093,5.6194,5.6219,5.6219,5.6219,5.6219,5.6219,5.6219,5.6219,5.6219,5.6219,5.6219,5.6219,5.6219,5.6646,5.662,0.0,0.0,0.0,0.0,0.0,0.0,0.0,0.0,0.0,0.0,0.0,0.0,0.0,0.0,0.0,0.0,0.0,0.0,0.0,0.0,0.0,0.0,0.0,0.0,0.0,0.0,0.0,0.0,0.0,0.0,0.0,5.2929,5.2929,5.2929,5.2929,5.2929,5.2929,5.2929,5.2929,5.2929,5.2929,5.2929,5.2929,5.2929,5.2929,5.2929,5.2929,5.2929,5.2929,5.2929,5.2929,5.2929,5.2929,5.2929,5.2929,5.2929,5.2929,5.2929,5.2929,5.2929,5.2929,5.2929,5.2929,5.2929,5.2929,5.2929,5.2929,5.2929,5.2929,5.2929,5.2929,5.2929,5.2929,5.2929,5.2929,5.2929,5.2929,5.2929,5.3005,5.3256,5.3507,5.3783,5.4059,5.4361,5.4662,5.4913,5.4963,5.5164,5.5717,5.5792,5.5892,5.6168,5.6219,5.6219,5.6219,5.6219,5.6219,5.6219,5.6219,5.6219,5.6219,5.6219,5.6219,5.6219,5.6219,5.6219,5.6219,5.6219,5.6219,5.6219,5.652,5.6495,0.0,0.0,0.0,0.0,0.0,0.0,0.0,0.0,0.0,0.0,0.0,0.0,0.0,0.0,0.0,0.0,0.0,0.0,0.0,0.0,0.0,0.0,0.0,0.0,0.0,0.0,0.0,0.0,0.0,0.0,5.2929,5.2929,5.2929,5.2929,5.2929,5.2929,5.2929,5.2929,5.2929,5.2929,5.2929,5.2929,5.2929,5.2929,5.2929,5.2929,5.2929,5.2929,5.2929,5.2929,5.2929,5.2929,5.2929,5.2929,5.2929,5.2929,5.2929,5.2929,5.2929,5.2929,5.2929,5.2929,5.3005,5.3055,5.2955,5.3055,5.3181,5.308,5.313,5.3206,5.3206,5.313,5.3055,5.3055,5.3055,5.3055,5.3055,5.298,5.3105,5.3733,5.3934,5.4185,5.4737,5.4863,5.5013,5.5465,5.5541,5.5691,5.6143,5.6219,5.6219,5.6219,5.6219,5.6219,5.6219,5.6219,5.6219,5.6219,5.6219,5.6219,5.6219,5.6219,5.6219,5.6219,5.6219,5.6219,5.6219,5.6219,5.6219,5.6219,5.6319,5.6294,0.0,0.0,0.0,0.0,0.0,0.0,0.0,0.0,0.0,0.0,0.0,0.0,0.0,0.0,0.0,0.0,0.0,0.0,0.0,0.0,0.0,0.0,0.0,0.0,0.0,0.0,0.0,0.0,0.0,0.0,5.2929,5.2929,5.2929,5.2929,5.2929,5.2929,5.2929,5.2929,5.2929,5.2929,5.2929,5.2929,5.2929,5.2929,5.2929,5.2929,5.2929,5.2929,5.2929,5.2929,5.2929,5.2929,5.2929,5.2929,5.2929,5.2929,5.2929,5.2929,5.2929,5.2929,5.2929,5.2929,5.3281,5.3747,5.308,5.3582,5.4235,5.3733,5.3959,5.4336,5.4336,5.3984,5.3607,5.3607,5.3607,5.3607,5.3607,5.3256,5.3231,5.426,5.4838,5.534,5.5892,5.5993,5.6018,5.6093,5.6093,5.6118,5.6194,5.6219,5.6219,5.6219,5.6219,5.6219,5.6219,5.6219,5.6219,5.6219,5.6219,5.6219,5.6219,5.6219,5.6219,5.6219,5.6219,5.6219,5.6219,5.6219,5.6219,5.6219,5.6696,5.6671,0.0,0.0,0.0,0.0,0.0,0.0,0.0,0.0,0.0,0.0,0.0,0.0,0.0,0.0,0.0,0.0,0.0,0.0,0.0,0.0,0.0,0.0,0.0,0.0,0.0,0.0,0.0,0.0,0.0,5.2929,5.2929,5.2929,5.2929,5.2929,5.2929,5.2929,5.2929,5.2929,5.2929,5.2929,5.2929,5.2929,5.2929,5.2929,5.2929,5.2929,5.2929,5.2929,5.2929,5.2929,5.2929,5.2929,5.2929,5.2929,5.2929,5.2929,5.2929,5.2929,5.2929,5.2929,5.2929,5.2929,5.3331,5.4088,5.4126,5.439,5.4486,5.3994,5.4094,5.4319,5.4779,5.4628,5.4426,5.421,5.4185,5.426,5.4587,5.4235,5.4084,5.4863,5.5465,5.5917,5.6168,5.6219,5.6219,5.6219,5.6219,5.6219,5.6219,5.6219,5.6219,5.6219,5.6219,5.6219,5.6219,5.6219,5.6219,5.6219,5.6219,5.6219,5.6219,5.6219,5.6219,5.6219,5.6219,5.6219,5.6219,5.6219,5.6219,5.6219,5.647,5.6445,0.0,0.0,0.0,0.0,0.0,0.0,0.0,0.0,0.0,0.0,0.0,0.0,0.0,0.0,0.0,0.0,0.0,0.0,0.0,0.0,0.0,0.0,0.0,0.0,0.0,0.0,0.0,0.0,0.0,5.2929,5.2929,5.2929,5.2929,5.2929,5.2929,5.2929,5.2929,5.2929,5.2929,5.2929,5.2929,5.2929,5.2929,5.2929,5.2929,5.2929,5.2929,5.2929,5.2929,5.2929,5.2929,5.2929,5.2929,5.2929,5.2929,5.2929,5.2929,5.2929,5.2929,5.2929,5.2929,5.2929,5.3331,5.3884,5.5025,5.5268,5.4905,5.4361,5.4319,5.4737,5.5249,5.5441,5.5249,5.4955,5.4762,5.4838,5.5114,5.5089,5.5064,5.534,5.5842,5.6219,5.6219,5.6219,5.6219,5.6219,5.6219,5.6219,5.6219,5.6219,5.6219,5.6219,5.6219,5.6219,5.6219,5.6219,5.6219,5.6219,5.6219,5.6219,5.6219,5.6219,5.6219,5.6219,5.6219,5.6219,5.6219,5.6219,5.6219,5.6219,5.6219,5.6219,0.0,0.0,0.0,0.0,0.0,0.0,0.0,0.0,0.0,0.0,0.0,0.0,0.0,0.0,0.0,0.0,0.0,0.0,0.0,0.0,0.0,0.0,0.0,0.0,0.0,0.0,0.0,0.0,0.0,5.2929,5.2929,5.2929,5.2929,5.2929,5.2929,5.2929,5.2929,5.2929,5.2929,5.2929,5.2929,5.2929,5.2929,5.2929,5.2929,5.2929,5.2929,5.2929,5.2929,5.2929,5.2929,5.2929,5.2929,5.2929,5.2929,5.2929,5.2929,5.2929,5.2929,5.2929,5.2929,5.2929,5.2939,5.3346,5.5468,5.6072,5.5872,5.4809,5.5264,5.6074,5.6099,5.6099,5.6049,5.5534,5.534,5.5214,5.4712,5.5415,5.5968,5.5491,5.5842,5.6219,5.6219,5.6219,5.6219,5.6219,5.6219,5.6219,5.6219,5.6219,5.6219,5.6219,5.6219,5.6219,5.6219,5.6219,5.6219,5.6219,5.6219,5.6219,5.6219,5.6219,5.6219,5.6219,5.6219,5.6219,5.6219,5.6219,5.6219,5.6219,5.6219,5.6219,0.0,0.0,0.0,0.0,0.0,0.0,0.0,0.0,0.0,0.0,0.0,0.0,0.0,0.0,0.0,0.0,0.0,0.0,0.0,0.0,0.0,0.0,0.0,0.0,0.0,0.0,0.0,0.0,0.0,0.0,5.2929,5.2929,5.2929,5.2929,5.2929,5.2929,5.2929,5.2929,5.2929,5.2929,5.2929,5.2929,5.2929,5.2929,5.2929,5.2929,5.2929,5.2929,5.2929,5.2929,5.2929,5.2929,5.2929,5.2929,5.2929,5.2929,5.2929,5.2929,5.2929,5.2929,5.2929,5.2929,5.2928,5.3263,5.5509,5.5753,5.5249,5.5547,5.598,5.615,5.615,5.6157,5.6163,5.5942,5.5917,5.5867,5.5666,5.5942,5.6143,5.5968,5.6068,5.6219,5.6219,5.6219,5.6219,5.6219,5.6219,5.6219,5.6219,5.6219,5.6219,5.6219,5.6219,5.6219,5.6219,5.6219,5.6219,5.6219,5.6219,5.6219,5.6219,5.6219,5.6219,5.6219,5.6219,5.6219,5.6219,5.6219,5.6219,5.6219,5.6219,5.6219,0.0,0.0,0.0,0.0,0.0,0.0,0.0,0.0,0.0,0.0,0.0,0.0,0.0,0.0,0.0,0.0,0.0,0.0,0.0,0.0,0.0,0.0,0.0,0.0,0.0,0.0,0.0,0.0,0.0,0.0,5.2929,5.2929,5.2929,5.2929,5.2929,5.2929,5.2929,5.2929,5.2929,5.2929,5.2929,5.2929,5.2929,5.2929,5.2929,5.2929,5.2929,5.2929,5.2929,5.2929,5.2929,5.2929,5.2929,5.2929,5.2929,5.2929,5.2929,5.2929,5.2929,5.2929,5.2929,5.2929,5.2928,5.3188,5.4708,5.4657,5.4194,5.4859,5.5047,5.5307,5.604,5.6182,5.6219,5.6219,5.6219,5.6219,5.6219,5.6219,5.6219,5.6219,5.6219,5.6219,5.6219,5.6219,5.6219,5.6219,5.6219,5.6219,5.6219,5.6219,5.6219,5.6219,5.6219,5.6219,5.6219,5.6219,5.6219,5.6219,5.6219,5.6219,5.6219,5.6219,5.6219,5.6219,5.6219,5.6219,5.6219,5.6219,5.6219,5.6219,5.6219,5.6319,0.0,0.0,0.0,0.0,0.0,0.0,0.0,0.0,0.0,0.0,0.0,0.0,0.0,0.0,0.0,0.0,0.0,0.0,0.0,0.0,0.0,0.0,0.0,0.0,0.0,0.0,0.0,0.0,0.0,5.2929,5.2929,5.2929,5.2929,5.2929,5.2929,5.2929,5.2929,5.2929,5.2929,5.2929,5.2929,5.2929,5.2929,5.2929,5.2929,5.2929,5.2929,5.2929,5.2929,5.2929,5.2929,5.2929,5.2929,5.2929,5.2929,5.2929,5.2929,5.2929,5.2929,5.2929,5.2929,5.2929,5.2939,5.289,5.3017,5.2964,5.289,5.2829,5.2964,5.3378,5.5583,5.6175,5.6219,5.6219,5.6219,5.6219,5.6219,5.6219,5.6219,5.6219,5.6219,5.6219,5.6219,5.6219,5.6219,5.6219,5.6219,5.6219,5.6219,5.6219,5.6219,5.6219,5.6219,5.6219,5.6219,5.6219,5.6219,5.6219,5.6219,5.6219,5.6219,5.6219,5.6219,5.6219,5.6219,5.6219,5.6219,5.6219,5.6244,5.6244,5.6244,5.6545,2.961,0.0,0.0,0.0,0.0,0.0,0.0,0.0,0.0,0.0,0.0,0.0,0.0,0.0,0.0,0.0,0.0,0.0,0.0,0.0,0.0,0.0,0.0,0.0,0.0,0.0,0.0,0.0,5.2929,5.2929,5.2929,5.2929,5.2929,5.2929,5.2929,5.2929,5.2929,5.2929,5.2929,5.2929,5.2929,5.2929,5.2929,5.2929,5.2929,5.2929,5.2929,5.2929,5.2929,5.2929,5.2929,5.2929,5.2929,5.2929,5.2929,5.2929,5.2929,5.2929,5.2929,5.2929,5.2955,5.2903,5.2939,5.3188,5.4784,5.4163,5.2924,5.2889,5.2858,5.3477,5.5566,5.6214,5.6219,5.6219,5.6219,5.6219,5.6219,5.6219,5.6219,5.6219,5.6219,5.6219,5.6219,5.6219,5.6219,5.6219,5.6219,5.6219,5.6219,5.6219,5.6219,5.6219,5.6219,5.6219,5.6219,5.6219,5.6219,5.6219,5.6219,5.6219,5.6219,5.6219,5.6219,5.6219,5.6219,5.6219,5.6219,5.662,5.6796,5.6821,5.7248,5.7524,0.0,0.0,0.0,0.0,0.0,0.0,0.0,0.0,0.0,0.0,0.0,0.0,0.0,0.0,0.0,0.0,0.0,0.0,0.0,0.0,0.0,0.0,0.0,0.0,0.0,0.0,0.0,5.284,5.2854,5.2929,5.2929,5.2929,5.2929,5.2929,5.2929,5.2929,5.2929,5.2929,5.2929,5.2929,5.2929,5.2929,5.2929,5.2929,5.2929,5.2929,5.2929,5.2929,5.2929,5.2929,5.2929,5.2929,5.2929,5.2929,5.2929,5.2929,5.2929,5.2929,5.2929,5.2867,5.2854,5.2889,5.3528,5.4577,5.5829,5.4668,5.2915,5.2932,5.352,5.4602,5.5942,5.6219,5.6219,5.6219,5.6219,5.6219,5.6219,5.6219,5.6219,5.6219,5.6219,5.6219,5.6219,5.6219,5.6219,5.6219,5.6219,5.6219,5.6219,5.6219,5.6219,5.6219,5.6219,5.6219,5.6219,5.6219,5.6219,5.6219,5.6219,5.6219,5.6219,5.6219,5.6219,5.6219,5.6219,5.6445,5.6922,5.6997,5.7148,5.7399,5.775,5.8027,0.0,3.3221,0.0,0.0,0.0,0.0,3.5208,3.5169,0.0,0.0,0.0,0.0,0.0,0.0,0.0,0.0,0.0,0.0,0.0,0.0,0.0,0.0,0.0,0.0,0.0,5.1336,5.2597,5.2894,5.2952,5.2879,5.2929,5.2929,5.2929,5.2929,5.2929,5.2929,5.2929,5.2929,5.2929,5.2929,5.2929,5.2929,5.2929,5.2929,5.2929,5.2929,5.2929,5.2929,5.2929,5.2929,5.2929,5.2929,5.2929,5.2929,5.2929,5.2929,5.2929,5.2929,5.2929,5.2854,5.2964,5.3203,5.4628,5.6167,5.6122,5.4813,5.3222,5.3236,5.472,5.6132,5.6143,5.6219,5.6219,5.6219,5.6219,5.6219,5.6219,5.6219,5.6219,5.6219,5.6219,5.6219,5.6219,5.6219,5.6219,5.6219,5.6219,5.6219,5.6219,5.6219,5.6219,5.6219,5.6219,5.6219,5.6219,5.6219,5.6219,5.6219,5.6219,5.6219,5.6219,5.6219,5.6219,5.6219,5.6219,5.6746,5.7801,5.7349,5.7449,5.8077,5.8077,5.8328,3.4305,3.4034,3.4098,3.3071,0.0,0.0,0.0,3.2943,0.0,0.0,0.0,0.0,0.0,0.0,0.0,0.0,0.0,0.0,0.0,0.0,0.0,0.0,0.0,0.0,0.0,5.0012,5.1028,5.2756,5.2894,5.2927,5.2904,5.2929,5.2929,5.2929,5.2929,5.2929,5.2929,5.2929,5.2929,5.2929,5.2929,5.2929,5.2929,5.2929,5.2929,5.2929,5.2929,5.2929,5.2929,5.2929,5.2929,5.2929,5.2929,5.2929,5.2929,5.2929,5.2929,5.2929,5.2929,5.2854,5.3203,5.4937,5.5855,5.6264,5.6213,5.5893,5.5561,5.5624,5.5804,5.6143,5.6194,5.6219,5.6219,5.6219,5.6219,5.6219,5.6219,5.6219,5.6219,5.6219,5.6219,5.6219,5.6219,5.6219,5.6219,5.6219,5.6219,5.6219,5.6219,5.6219,5.6219,5.6219,5.6219,5.6219,5.6219,5.6219,5.6219,5.6219,5.6219,5.6219,5.6219,5.6219,5.6219,5.6219,5.6219,5.6545,5.7198,5.7549,5.8227,5.9182,5.9182,5.9232,3.5747,3.5529,3.5881,3.5604,0.0,0.0,0.0,0.0,0.0,0.0,0.0,0.0,0.0,0.0,0.0,0.0,0.0,0.0,0.0,0.0,0.0,0.0,0.0,0.0,0.0,4.9593,5.0112,5.1197,5.227,5.2911,5.2952,5.2829,5.2929,5.2929,5.2929,5.2929,5.2929,5.2929,5.2929,5.2929,5.2929,5.2929,5.2929,5.2929,5.2929,5.2929,5.2929,5.2929,5.2929,5.2929,5.2929,5.2929,5.2929,5.2854,5.2874,5.2874,5.2932,5.2946,5.2946,5.2882,5.3299,5.5521,5.5446,5.4563,5.4474,5.4472,5.4827,5.5821,5.6251,5.6148,5.6227,5.6201,5.6148,5.6227,5.6154,5.6154,5.6154,5.6152,5.5775,5.4334,5.4087,5.464,5.5951,5.6219,5.6219,5.6219,5.6219,5.6219,5.6219,5.6219,5.6219,5.6219,5.6219,5.6219,5.6219,5.6219,5.6219,5.6219,5.6219,5.6219,5.6219,5.6219,5.6219,5.6219,5.6219,5.662,5.7474,5.775,5.8303,5.9106,5.9382,5.9483,0.0,0.0,0.0,0.0,0.0,3.6634,0.0,0.0,0.0,3.6684,0.0,0.0,0.0,0.0,0.0,0.0,0.0,0.0,0.0,0.0,0.0,0.0,0.0,0.0,0.0,4.9339,4.9568,4.9587,5.1254,5.2495,5.2869,5.2927,5.2854,5.2929,5.2929,5.2929,5.2929,5.2929,5.2929,5.2929,5.2929,5.2929,5.2929,5.2929,5.2929,5.2929,5.2929,5.2929,5.2929,5.2929,5.2929,5.2929,5.2929,5.2839,5.2675,5.1216,5.0604,5.0595,5.0595,5.0607,5.0974,5.2743,5.3173,5.2668,5.1082,5.1675,5.3418,5.558,5.6223,5.6179,5.6147,5.4961,5.4202,5.5873,5.6167,5.582,5.4151,5.385,5.3335,5.1913,5.1418,5.221,5.5164,5.5582,5.5754,5.6219,5.6219,5.6219,5.6219,5.6219,5.6219,5.6219,5.6219,5.6219,5.6219,5.6219,5.6219,5.6219,5.6219,5.6219,5.6219,5.6219,5.6219,5.6219,5.5754,5.6029,5.6949,5.682,5.7417,5.888,5.9307,5.9328,0.0,0.0,0.0,0.0,3.9346,0.0,0.0,0.0,3.5655,3.3972,0.0,0.0,0.0,0.0,0.0,0.0,0.0,0.0,0.0,0.0,0.0,0.0,0.0,0.0,0.0,0.0,4.9585,4.9571,4.9771,5.0792,5.2838,5.2869,5.2901,5.2929,5.2929,5.2929,5.2929,5.2929,5.2929,5.2929,5.2929,5.2929,5.2929,5.2929,5.2929,5.2929,5.2929,5.2929,5.2929,5.2929,5.2929,5.2929,5.2929,5.2842,5.2015,4.514,4.2495,4.2465,4.2465,4.2604,4.2559,4.2857,4.74,5.1649,4.4571,4.7326,5.337,5.5516,5.6228,5.6188,5.626,5.0675,4.6958,5.4348,5.6129,5.4122,4.6669,4.5179,4.6139,4.9541,4.9274,4.9428,5.2878,5.3401,5.4025,5.5901,5.6219,5.6219,5.6219,5.6219,5.6219,5.6219,5.6219,5.6219,5.6219,5.6219,5.6219,5.6219,5.6219,5.6219,5.6219,5.6219,5.6219,5.6219,5.4348,5.3473,5.3593,5.2617,5.4674,5.9408,5.9458,5.85,0.0,0.0,0.0,0.0,0.0,0.0,3.691,0.0,3.583,0.0,0.0,0.0,0.0,0.0,0.0,0.0,0.0,0.0,0.0,0.0,0.0,0.0,0.0,0.0,0.0,0.0,0.0,0.0,0.0,4.8655,5.0842,5.2139,5.2844,5.2901,5.2966,5.2929,5.2929,5.2929,5.2929,5.2929,5.2929,5.2929,5.2929,5.2929,5.2929,5.2929,5.2929,5.2929,5.2929,5.2929,5.2878,5.2948,5.2948,5.2948,5.2495,4.9272,4.7924,4.7275,4.2774,4.1203,4.1138,4.1263,4.3455,4.5422,4.22,4.4163,4.7707,4.8714,4.8939,4.8962,4.8886,4.6342,4.4556,4.8172,4.8995,4.7899,4.4514,4.364,4.42,4.5958,4.5938,4.5892,4.7426,4.9717,5.2014,5.4025,5.4348,5.4819,5.6047,5.6219,5.6219,5.6219,5.6219,5.6219,5.6219,5.6219,5.6219,5.6219,5.5115,5.4348,5.4348,5.3251,5.2622,5.2622,5.1986,5.1798,5.2097,5.1853,5.3199,5.5711,5.5711,5.5228,4.2208,0.0,0.0,0.0,0.0,0.0,0.0,0.0,0.0,0.0,0.0,0.0,0.0,0.0,0.0,0.0,0.0,0.0,0.0,0.0,0.0,0.0,0.0,0.0,0.0,0.0,0.0,0.0,0.0,0.0,4.8586,5.0839,5.2317,5.281,5.2891,5.2929,5.2929,5.2929,5.2929,5.2929,5.2929,5.2929,5.2929,5.2929,5.2929,5.2929,5.2929,5.2929,5.2955,5.2854,5.2924,5.273,5.0508,4.9699,4.9937,5.2041,5.2962,5.1765,4.397,4.1124,4.1249,4.1277,4.1131,4.1191,4.1191,4.2035,4.3134,4.3616,4.3766,4.3738,4.3738,4.366,4.3758,4.3738,4.3696,4.3696,4.3696,4.3726,4.3711,4.3711,4.3711,4.3739,4.3775,4.6267,4.9118,5.1347,5.1921,5.2949,5.5115,5.5287,5.5582,5.6219,5.5729,5.5582,5.6194,5.5115,5.4497,5.4497,5.31,5.2319,5.2319,5.0762,5.0053,5.0188,4.9914,4.9993,5.0476,5.0327,5.0573,5.0919,5.2193,5.2591,0.0,0.0,0.0,4.0526,0.0,0.0,0.0,0.0,3.8467,0.0,0.0,0.0,0.0,0.0,0.0,0.0,0.0,0.0,0.0,0.0,0.0,0.0,0.0,0.0,0.0,0.0,0.0,0.0,0.0,0.0,4.6266,4.8557,5.065,5.2784,5.2891,5.2929,5.2929,5.2929,5.2929,5.2929,5.2929,5.2929,5.2929,5.2929,5.2929,5.2929,5.2929,5.2929,5.2842,5.2932,5.2921,5.2132,4.4511,4.1542,4.2544,5.011,5.2937,5.1768,4.3973,4.1124,4.1172,4.1152,4.1172,4.1133,4.124,4.1273,4.1683,4.3176,4.3633,4.3652,4.3672,4.3652,4.3652,4.3672,4.3672,4.3672,4.3672,4.3691,4.3711,4.3711,4.3711,4.3691,4.3672,4.3854,4.478,4.761,4.9252,5.0785,5.2949,5.3251,5.4025,5.6047,5.4348,5.4025,5.6047,5.2471,5.0142,5.0142,5.0142,5.0142,5.0142,4.9986,5.021,5.0523,4.8651,4.779,4.8231,4.6606,4.5836,4.6028,5.0731,5.1761,0.0,0.0,4.5573,4.261,0.0,0.0,0.0,0.0,0.0,0.0,0.0,0.0,0.0,0.0,0.0,0.0,0.0,0.0,0.0,0.0,0.0,0.0,0.0,0.0,0.0,0.0,0.0,0.0,0.0,0.0,0.0,4.7657,5.0589,5.2792,5.2869,5.284,5.2929,5.2929,5.2929,5.2929,5.2929,5.2929,5.2929,5.2929,5.2929,5.2929,5.2929,5.2903,5.2907,5.2847,4.9861,4.4909,4.2282,4.1183,4.2133,4.9979,4.9661,4.4827,4.2128,4.1133,4.117,4.117,4.1168,4.1221,4.1273,4.1979,4.293,4.3608,4.3699,4.3711,4.3711,4.3711,4.3711,4.3711,4.3711,4.3711,4.3711,4.3711,4.3711,4.3711,4.3711,4.3711,4.3711,4.3699,4.4076,4.5,4.6648,4.8575,5.0785,5.1093,5.1401,5.2014,5.1401,5.1378,5.2014,5.0785,4.9986,4.9986,4.8755,4.7963,4.7985,4.6858,4.6311,4.6455,4.64,4.6445,4.6436,4.6205,4.6094,4.6094,4.7733,4.8118,4.6552,4.6853,0.0,4.4166,4.3288,0.0,3.9546,0.0,0.0,0.0,0.0,0.0,0.0,0.0,0.0,0.0,0.0,0.0,0.0,0.0,0.0,0.0,0.0,0.0,0.0,0.0,3.0197,3.7062,0.0,0.0,0.0,0.0,4.9393,5.1685,5.2463,5.2876,5.2929,5.2929,5.2929,5.2929,5.2929,5.2929,5.2929,5.2929,5.2929,5.2955,5.2903,5.2973,5.273,4.9861,4.58,4.1203,4.1271,4.1198,4.1775,4.6918,4.5598,4.1282,4.1211,4.117,4.1384,4.1953,4.2028,4.2043,4.2159,4.2851,4.3731,4.3687,4.3699,4.3711,4.3711,4.3711,4.3711,4.3711,4.3711,4.3711,4.3711,4.3711,4.3711,4.3711,4.3711,4.3711,4.3711,4.3711,4.3739,4.3672,4.4886,4.6545,4.8597,4.8912,4.9227,4.9853,4.9383,4.8597,4.7804,4.8439,4.8597,4.7804,4.6384,4.584,4.6025,4.5051,4.4551,4.4844,4.5391,4.5742,4.5898,4.6172,4.6308,4.6308,4.6308,4.6308]},{"header":{"parameterUnit":"m.s-1","parameterCategory":1,"la1":30.6,"la2":29.2853,"lo1":-89.7004,"lo2":-87.6739,"dy":0.0162,"dx":0.0183,"nx":112,"ny":82,"refTime":"2024-08-03T12:00:00:Z","depth":0,"parameterNumber":3,"parameterNumberName":"V-component_of_WINDS"},"data":[0.0,0.0,0.0,0.0,0.0,0.0,0.0,0.0,0.0,0.0,0.0,0.0,0.0,0.0,0.0,0.0,0.0,0.0,0.0,0.0,0.0,0.0,0.0,0.0,0.0,0.0,0.0,0.0,0.0,0.0,0.0,0.0,0.0,0.0,0.0,0.0,0.0,0.0,0.0,0.0,0.0,0.0,0.0,0.0,0.0,0.0,0.0,0.0,0.0,0.0,0.0,0.0,0.0,0.0,0.0,0.0,0.0,0.0,0.0,0.0,0.0,0.0,0.0,0.0,0.0,0.0,0.0,0.0,0.0,0.0,0.0,0.0,0.0,0.0,0.0,0.0,0.0,0.0,0.0,0.0,0.0,0.0,0.0,0.0,0.0,0.0,0.0,0.0,0.0,0.0,0.0,-2.5317,-2.713,-2.8155,-2.7844,-2.7718,-2.6068,-2.2558,0.0,0.0,0.0,0.0,0.0,0.0,0.0,0.0,0.0,0.0,0.0,0.0,0.0,0.0,0.0,0.0,0.0,0.0,0.0,0.0,0.0,0.0,0.0,0.0,0.0,0.0,0.0,0.0,0.0,0.0,0.0,0.0,0.0,0.0,0.0,0.0,0.0,0.0,0.0,0.0,0.0,0.0,0.0,0.0,0.0,0.0,0.0,0.0,0.0,0.0,0.0,0.0,0.0,0.0,0.0,0.0,0.0,0.0,0.0,0.0,0.0,0.0,0.0,0.0,0.0,0.0,0.0,0.0,0.0,0.0,0.0,0.0,0.0,0.0,0.0,0.0,0.0,0.0,0.0,0.0,0.0,0.0,0.0,0.0,0.0,0.0,0.0,0.0,0.0,0.0,0.0,0.0,0.0,0.0,0.0,0.0,0.0,0.0,0.0,0.0,0.0,0.0,0.0,0.0,-2.3757,-2.6937,-2.7957,-2.8281,-2.8155,-2.7573,-2.5804,-2.2939,0.0,0.0,0.0,0.0,0.0,0.0,0.0,0.0,0.0,0.0,0.0,0.0,0.0,0.0,0.0,0.0,0.0,0.0,0.0,0.0,0.0,0.0,0.0,0.0,0.0,0.0,0.0,0.0,0.0,0.0,0.0,0.0,0.0,0.0,0.0,0.0,0.0,0.0,0.0,0.0,0.0,0.0,0.0,0.0,0.0,0.0,0.0,0.0,0.0,0.0,0.0,0.0,0.0,0.0,0.0,0.0,0.0,0.0,0.0,0.0,0.0,0.0,0.0,0.0,0.0,0.0,0.0,0.0,0.0,0.0,0.0,0.0,0.0,0.0,0.0,0.0,0.0,0.0,0.0,0.0,0.0,0.0,0.0,0.0,0.0,0.0,0.0,0.0,0.0,0.0,0.0,0.0,0.0,0.0,0.0,0.0,0.0,0.0,0.0,0.0,0.0,0.0,0.0,-2.3438,-2.4958,-2.7709,-2.8155,-2.8301,-2.8301,-2.7447,-2.605,-2.3822,-2.1181,0.0,0.0,0.0,0.0,0.0,0.0,0.0,0.0,0.0,0.0,0.0,0.0,0.0,0.0,0.0,0.0,0.0,0.0,0.0,0.0,0.0,0.0,0.0,0.0,0.0,0.0,0.0,0.0,0.0,0.0,0.0,0.0,0.0,0.0,0.0,0.0,0.0,0.0,0.0,0.0,0.0,0.0,0.0,0.0,0.0,0.0,0.0,0.0,0.0,0.0,0.0,0.0,0.0,0.0,0.0,0.0,0.0,0.0,0.0,0.0,0.0,0.0,0.0,0.0,0.0,0.0,0.0,0.0,0.0,0.0,0.0,0.0,0.0,0.0,0.0,0.0,0.0,0.0,0.0,0.0,0.0,0.0,0.0,0.0,0.0,0.0,0.0,0.0,0.0,0.0,0.0,0.0,0.0,0.0,0.0,0.0,0.0,0.0,0.0,0.0,0.0,0.0,-2.5402,-2.6203,-2.8135,-2.8301,-2.8301,-2.8301,-2.7176,-2.5927,-2.4459,-2.1363,0.0,0.0,0.0,0.0,0.0,0.0,0.0,0.0,0.0,0.0,0.0,0.0,0.0,0.0,0.0,0.0,0.0,0.0,0.0,0.0,0.0,0.0,0.0,0.0,0.0,0.0,0.0,0.0,0.0,0.0,0.0,0.0,0.0,0.0,0.0,0.0,0.0,0.0,0.0,0.0,0.0,0.0,0.0,0.0,0.0,0.0,0.0,0.0,0.0,0.0,0.0,0.0,0.0,0.0,0.0,0.0,0.0,0.0,0.0,0.0,0.0,0.0,0.0,0.0,0.0,0.0,0.0,0.0,0.0,0.0,0.0,0.0,0.0,0.0,0.0,0.0,0.0,0.0,0.0,0.0,0.0,0.0,0.0,0.0,0.0,0.0,0.0,0.0,0.0,0.0,0.0,0.0,0.0,0.0,0.0,0.0,0.0,0.0,0.0,0.0,0.0,0.0,-2.5619,-2.7176,-2.8155,-2.8301,-2.8301,-2.8301,-2.6454,-2.4995,-2.444,-2.0808,0.0,0.0,0.0,0.0,0.0,0.0,0.0,0.0,0.0,0.0,0.0,0.0,0.0,0.0,0.0,0.0,0.0,0.0,0.0,0.0,0.0,0.0,0.0,0.0,0.0,0.0,0.0,0.0,0.0,0.0,0.0,0.0,0.0,0.0,0.0,0.0,0.0,0.0,0.0,0.0,0.0,0.0,0.0,0.0,0.0,0.0,0.0,0.0,0.0,0.0,0.0,0.0,0.0,0.0,0.0,0.0,0.0,0.0,0.0,0.0,0.0,0.0,0.0,0.0,0.0,0.0,0.0,0.0,0.0,0.0,0.0,0.0,0.0,0.0,0.0,0.0,0.0,0.0,0.0,0.0,0.0,0.0,0.0,0.0,0.0,0.0,0.0,0.0,0.0,0.0,0.0,0.0,0.0,0.0,0.0,0.0,0.0,0.0,0.0,0.0,0.0,0.0,-2.5358,-2.6742,0.0,-2.8301,-2.8301,-2.8301,-2.6868,-2.5385,-2.4116,0.0,0.0,0.0,0.0,0.0,0.0,0.0,0.0,0.0,0.0,0.0,0.0,0.0,0.0,0.0,0.0,0.0,0.0,0.0,0.0,0.0,0.0,0.0,0.0,0.0,0.0,0.0,0.0,0.0,0.0,0.0,0.0,0.0,0.0,0.0,0.0,0.0,0.0,0.0,0.0,0.0,0.0,0.0,0.0,0.0,0.0,0.0,0.0,0.0,0.0,0.0,0.0,0.0,0.0,0.0,0.0,0.0,0.0,0.0,0.0,0.0,0.0,0.0,0.0,0.0,0.0,0.0,0.0,0.0,0.0,0.0,0.0,0.0,0.0,0.0,0.0,0.0,0.0,0.0,0.0,0.0,0.0,0.0,0.0,0.0,0.0,0.0,0.0,0.0,0.0,0.0,0.0,0.0,0.0,0.0,0.0,0.0,0.0,0.0,0.0,0.0,0.0,-2.4031,-2.5367,-2.6616,0.0,-2.8301,-2.8301,-2.8301,-2.6742,-2.5178,-2.3927,0.0,0.0,0.0,0.0,0.0,0.0,0.0,0.0,0.0,0.0,0.0,0.0,0.0,0.0,0.0,0.0,0.0,0.0,0.0,0.0,0.0,0.0,0.0,0.0,0.0,0.0,0.0,0.0,0.0,0.0,0.0,0.0,0.0,0.0,0.0,0.0,0.0,0.0,0.0,0.0,0.0,0.0,0.0,0.0,0.0,0.0,0.0,0.0,0.0,0.0,0.0,0.0,0.0,0.0,0.0,0.0,0.0,0.0,0.0,0.0,0.0,0.0,0.0,0.0,0.0,0.0,0.0,0.0,0.0,0.0,0.0,0.0,0.0,0.0,0.0,0.0,0.0,0.0,0.0,0.0,0.0,0.0,0.0,0.0,0.0,0.0,0.0,0.0,0.0,0.0,0.0,0.0,0.0,0.0,0.0,0.0,0.0,0.0,0.0,0.0,0.0,0.0,-2.4049,-2.5891,-2.7302,-2.8155,-2.8301,-2.8301,-2.8301,-2.5916,-2.4188,0.0,0.0,0.0,0.0,0.0,0.0,0.0,0.0,0.0,0.0,0.0,0.0,0.0,0.0,0.0,0.0,0.0,0.0,0.0,0.0,0.0,0.0,0.0,0.0,0.0,0.0,0.0,0.0,0.0,0.0,0.0,0.0,0.0,0.0,0.0,0.0,0.0,0.0,0.0,0.0,0.0,0.0,0.0,0.0,0.0,0.0,0.0,0.0,0.0,0.0,0.0,0.0,0.0,0.0,0.0,0.0,0.0,0.0,0.0,0.0,0.0,0.0,0.0,0.0,0.0,0.0,0.0,0.0,0.0,0.0,0.0,0.0,0.0,0.0,0.0,0.0,0.0,0.0,0.0,0.0,0.0,0.0,0.0,0.0,0.0,0.0,0.0,0.0,0.0,0.0,0.0,0.0,0.0,0.0,0.0,0.0,0.0,0.0,0.0,0.0,0.0,0.0,0.0,-2.4049,-2.6172,-2.7844,-2.8593,-2.872,-2.872,-2.872,-2.6616,-2.4702,-2.3379,0.0,0.0,0.0,0.0,0.0,0.0,0.0,0.0,0.0,0.0,0.0,0.0,0.0,0.0,0.0,0.0,0.0,0.0,0.0,0.0,0.0,0.0,0.0,0.0,0.0,0.0,0.0,0.0,0.0,0.0,0.0,0.0,0.0,0.0,0.0,0.0,0.0,0.0,0.0,0.0,0.0,0.0,0.0,0.0,0.0,0.0,0.0,0.0,0.0,0.0,0.0,0.0,0.0,0.0,0.0,0.0,0.0,0.0,0.0,0.0,0.0,0.0,0.0,0.0,0.0,0.0,0.0,0.0,0.0,0.0,0.0,0.0,0.0,0.0,0.0,0.0,0.0,0.0,0.0,0.0,0.0,0.0,0.0,0.0,0.0,0.0,0.0,0.0,0.0,0.0,0.0,0.0,0.0,0.0,0.0,0.0,0.0,0.0,0.0,0.0,0.0,0.0,-2.4297,-2.6557,-2.8261,-2.9108,-2.9186,-2.9062,-2.8926,-2.7283,-2.5477,-2.3722,0.0,0.0,0.0,0.0,0.0,0.0,0.0,0.0,0.0,0.0,0.0,0.0,0.0,0.0,0.0,0.0,0.0,0.0,0.0,0.0,0.0,0.0,0.0,0.0,0.0,0.0,0.0,0.0,0.0,0.0,0.0,0.0,0.0,0.0,0.0,0.0,0.0,0.0,0.0,0.0,0.0,0.0,0.0,0.0,0.0,0.0,0.0,0.0,0.0,0.0,0.0,0.0,0.0,0.0,0.0,0.0,0.0,0.0,0.0,0.0,0.0,0.0,0.0,0.0,0.0,0.0,0.0,0.0,0.0,0.0,0.0,0.0,0.0,0.0,0.0,0.0,0.0,0.0,0.0,0.0,0.0,0.0,0.0,0.0,0.0,0.0,0.0,0.0,0.0,0.0,0.0,0.0,0.0,0.0,0.0,0.0,0.0,0.0,0.0,0.0,0.0,0.0,-2.4871,-2.7052,-2.8694,-2.9505,-2.9657,-2.9489,-2.9095,-2.7814,-2.6352,-2.4674,0.0,0.0,0.0,0.0,0.0,0.0,0.0,0.0,0.0,0.0,0.0,0.0,0.0,0.0,0.0,0.0,0.0,0.0,0.0,0.0,0.0,0.0,0.0,0.0,0.0,0.0,0.0,0.0,0.0,0.0,0.0,0.0,0.0,0.0,0.0,0.0,0.0,0.0,0.0,0.0,0.0,0.0,0.0,0.0,0.0,0.0,0.0,0.0,0.0,0.0,0.0,0.0,0.0,0.0,0.0,0.0,0.0,0.0,0.0,0.0,-2.7945,0.0,0.0,0.0,0.0,0.0,0.0,0.0,0.0,0.0,0.0,0.0,0.0,0.0,0.0,0.0,0.0,0.0,0.0,0.0,0.0,0.0,0.0,0.0,0.0,0.0,0.0,0.0,0.0,0.0,0.0,0.0,0.0,0.0,0.0,0.0,0.0,0.0,0.0,0.0,0.0,0.0,-2.5237,-2.7382,-2.9106,-2.9928,-3.0102,-2.9987,-2.991,-2.8487,-2.6975,-2.5467,-2.333,0.0,0.0,0.0,0.0,0.0,0.0,0.0,0.0,0.0,0.0,0.0,0.0,0.0,0.0,0.0,0.0,0.0,0.0,0.0,0.0,0.0,0.0,0.0,0.0,0.0,0.0,0.0,0.0,0.0,0.0,0.0,0.0,0.0,0.0,0.0,0.0,0.0,0.0,0.0,0.0,0.0,0.0,0.0,0.0,0.0,0.0,0.0,0.0,0.0,0.0,0.0,0.0,0.0,0.0,0.0,0.0,0.0,0.0,0.0,0.0,-3.02,0.0,0.0,0.0,0.0,0.0,0.0,0.0,0.0,0.0,0.0,0.0,0.0,0.0,0.0,0.0,0.0,0.0,0.0,0.0,0.0,0.0,0.0,0.0,0.0,0.0,0.0,0.0,0.0,0.0,0.0,0.0,0.0,0.0,0.0,0.0,0.0,0.0,0.0,0.0,0.0,-2.5687,-2.7883,-2.9521,-3.0432,-3.0568,-3.0432,-3.0257,-2.8998,-2.7785,-2.6749,-2.4603,0.0,0.0,0.0,0.0,0.0,0.0,0.0,0.0,0.0,0.0,0.0,0.0,0.0,0.0,0.0,0.0,0.0,0.0,0.0,0.0,0.0,0.0,0.0,0.0,0.0,0.0,0.0,0.0,0.0,0.0,0.0,0.0,0.0,0.0,0.0,0.0,0.0,0.0,0.0,0.0,0.0,0.0,0.0,0.0,0.0,0.0,0.0,0.0,0.0,0.0,0.0,0.0,0.0,-3.5737,-3.6293,-3.7292,-3.7292,-3.7493,-3.7806,-3.5561,-3.4484,-3.4221,0.0,0.0,0.0,0.0,0.0,0.0,0.0,0.0,0.0,0.0,0.0,0.0,0.0,0.0,0.0,0.0,0.0,0.0,0.0,0.0,0.0,0.0,0.0,0.0,0.0,-3.4102,-3.3863,0.0,0.0,0.0,0.0,0.0,0.0,0.0,0.0,0.0,0.0,0.0,0.0,-2.6616,-2.8596,-2.9966,-3.0743,-3.0898,-3.0743,-3.0412,-2.957,-2.876,-2.8009,-2.6028,-2.4469,0.0,0.0,0.0,0.0,0.0,0.0,0.0,0.0,0.0,0.0,0.0,0.0,0.0,0.0,0.0,0.0,0.0,0.0,0.0,0.0,0.0,0.0,0.0,0.0,0.0,0.0,0.0,0.0,0.0,0.0,0.0,0.0,-3.0914,-3.1898,0.0,0.0,0.0,0.0,0.0,0.0,0.0,0.0,0.0,0.0,0.0,0.0,0.0,0.0,-3.573,-3.7236,-3.8133,-3.8313,-3.9802,-4.0467,-4.066,-4.066,-4.0685,-4.0685,-4.0414,0.0,-3.6016,-3.4652,0.0,0.0,0.0,0.0,0.0,0.0,0.0,0.0,0.0,0.0,0.0,0.0,0.0,0.0,0.0,0.0,0.0,0.0,0.0,0.0,0.0,0.0,-3.6944,-3.667,-3.6705,-3.6662,0.0,-3.2629,-2.9416,-2.8187,-2.6088,0.0,0.0,0.0,0.0,0.0,0.0,0.0,-2.87,-2.9672,-3.0276,-3.0879,-3.0898,-3.0879,-3.0743,-3.0354,-2.9618,-2.8818,-2.7796,-2.6833,-2.5917,-2.4404,0.0,0.0,0.0,0.0,0.0,0.0,0.0,0.0,0.0,0.0,0.0,0.0,0.0,0.0,0.0,0.0,0.0,0.0,0.0,0.0,0.0,0.0,0.0,0.0,0.0,0.0,0.0,0.0,0.0,-3.0881,-3.3873,-3.4173,-3.4532,-3.4203,0.0,0.0,0.0,0.0,0.0,0.0,0.0,0.0,0.0,-3.7056,-3.7362,-3.8191,-3.9622,-4.0676,-4.1342,-4.1664,-4.2378,-4.2848,-4.3148,-4.3148,-4.2961,-4.2749,-4.2401,-4.1299,-3.9536,-3.7433,-3.5849,-3.452,0.0,0.0,0.0,0.0,-3.245,-3.3095,-3.4329,-3.4703,0.0,0.0,0.0,0.0,0.0,0.0,0.0,0.0,0.0,0.0,0.0,0.0,0.0,-3.8079,-3.8452,-3.863,-3.863,-3.6701,-3.4438,0.0,-3.1065,-2.922,-2.6113,0.0,0.0,0.0,0.0,0.0,-2.9011,-2.9795,-3.0412,-3.0879,-3.0898,-3.0898,-3.0898,-3.0451,-3.0078,-2.9695,-2.8777,-2.8038,-2.7207,-2.6112,-2.4808,0.0,0.0,0.0,0.0,0.0,0.0,0.0,0.0,0.0,0.0,0.0,0.0,0.0,0.0,0.0,0.0,0.0,0.0,0.0,0.0,0.0,0.0,0.0,0.0,0.0,0.0,0.0,0.0,-3.3903,-3.6447,-3.6267,-3.7285,-3.7135,0.0,0.0,0.0,0.0,0.0,0.0,-3.9787,-3.9848,-4.0108,-4.0747,-4.0736,-4.1404,-4.276,-4.3187,-4.3601,-4.3979,-4.3968,-4.4181,-4.4571,-4.4571,-4.4345,-4.3979,-4.3588,-4.3174,-4.2624,-3.9775,-3.8336,-3.7673,-3.5881,-3.5364,-3.5556,-3.5698,-3.5805,-3.6259,-3.8061,-3.83,-3.7702,-3.7047,0.0,-3.5512,-3.3456,0.0,0.0,0.0,0.0,-3.5137,-3.6681,-3.7442,-3.8099,-3.8856,-3.9365,-3.9697,-3.9697,-3.9365,-3.8361,0.0,-3.5115,-3.3781,-3.0483,0.0,0.0,0.0,0.0,-3.0215,-3.0625,-3.1202,-3.1476,-3.1483,-3.148,-3.1285,-3.0879,-3.0623,-3.0368,-3.0195,-2.959,-2.8926,-2.8184,-2.7637,-2.6543,-2.4805,0.0,0.0,0.0,0.0,0.0,0.0,0.0,0.0,0.0,0.0,0.0,0.0,0.0,0.0,0.0,0.0,0.0,0.0,0.0,0.0,0.0,0.0,0.0,0.0,0.0,0.0,0.0,0.0,0.0,-3.8332,-4.0516,0.0,0.0,0.0,0.0,-4.1085,-4.1946,-4.3256,-4.4924,-4.3327,-4.3459,-4.5576,-4.4326,-4.389,-4.4493,-4.4518,-4.4543,-4.4568,-4.4518,-4.4543,-4.4568,-4.4568,-4.4568,-4.459,-4.451,-4.4515,-4.43,-4.1533,-4.0045,-3.9521,-3.8888,-3.8308,-3.7956,-3.8485,-3.9041,-3.9546,-4.0158,-4.0029,-3.9672,-4.0082,-3.886,-3.7115,-3.6964,-3.5774,0.0,0.0,-3.6627,-3.7321,-3.8452,-3.9162,-3.9544,-3.9672,-3.9697,-3.9697,-3.9697,-3.9697,-3.9315,0.0,-3.7025,-3.5781,-3.3958,0.0,-3.2995,-3.3415,-3.3288,-3.3623,-3.5199,-3.5223,-3.4466,-3.3149,-3.2996,-3.2385,-3.0995,-3.0859,-3.0664,-3.0234,-3.0156,-2.9941,-2.9492,-2.8672,-2.7988,-2.748,-2.5,0.0,0.0,0.0,0.0,0.0,0.0,0.0,0.0,0.0,0.0,0.0,0.0,0.0,0.0,0.0,0.0,0.0,0.0,0.0,0.0,0.0,0.0,0.0,0.0,0.0,0.0,0.0,0.0,-4.1624,-4.3569,0.0,0.0,-4.3389,-4.4736,-4.5155,-4.6634,-4.7352,-4.7023,-4.6393,-4.5929,-4.5693,-4.5219,-4.5146,-4.5698,-4.5698,-4.5698,-4.5698,-4.5698,-4.5698,-4.5698,-4.5698,-4.5535,-4.5225,-4.5229,-4.4928,-4.4519,-4.3536,-4.2633,-4.1756,-4.0839,-4.0316,-4.0158,-4.034,-4.0548,-4.073,-4.0913,-4.0889,-4.0666,-4.0534,-4.0004,-3.9315,-3.896,-3.8452,-3.7971,-3.8452,-3.8654,-3.8856,-3.9315,-3.9544,-3.9697,-3.9697,-3.9697,-3.9697,-3.9697,-3.9697,-3.9544,-3.9162,-3.8807,-3.7971,-3.6312,-3.6432,-3.6326,-3.4839,-3.5142,-3.5457,-3.5472,-3.5409,-3.5109,-3.451,-3.4469,-3.3914,-3.2416,-3.2035,-3.1358,-3.0329,-2.9941,-2.959,-2.916,-2.8867,-2.8242,-2.7266,-2.6328,-2.4824,0.0,0.0,0.0,0.0,0.0,0.0,0.0,0.0,0.0,0.0,0.0,0.0,0.0,0.0,0.0,0.0,0.0,0.0,0.0,0.0,0.0,0.0,0.0,0.0,0.0,0.0,-4.4018,-4.4047,-4.6172,-4.686,-4.4855,-4.689,-4.8476,-4.8925,-5.0361,-5.0884,-5.0047,-4.9784,-4.8981,-4.7548,-4.7159,-4.6773,-4.6577,-4.6401,-4.6301,-4.6301,-4.6301,-4.6301,-4.6301,-4.6301,-4.6105,-4.5739,-4.5739,-4.5519,-4.513,-4.4935,-4.4457,-4.3801,-4.2837,-4.2351,-4.219,-4.219,-4.2028,-4.1842,-4.1657,-4.1632,-4.1571,-4.0914,-4.066,-4.0413,-4.0055,-3.9851,-3.9722,-3.9876,-4.0004,-4.0029,-4.0208,-4.0234,-4.0208,-4.0029,-4.0004,-3.9976,-3.9994,-3.9915,-4.0019,-3.9944,-3.9848,-3.934,-3.8275,-3.8654,-3.863,-3.6812,-3.7266,-3.7532,-3.6885,-3.6803,-3.6554,-3.614,-3.6054,-3.5288,-3.3304,-3.2637,-3.1799,-3.0525,-2.9883,-2.9434,-2.9141,-2.873,-2.8105,-2.7246,-2.6797,-2.5664,-2.3789,0.0,0.0,0.0,0.0,0.0,0.0,0.0,0.0,0.0,0.0,0.0,0.0,0.0,0.0,0.0,0.0,0.0,0.0,0.0,0.0,0.0,0.0,0.0,-4.1504,-4.3778,-4.5454,-4.5484,-4.8356,-4.9583,-4.7668,-5.0391,-5.2276,-5.2306,-5.2905,-5.3563,-5.4152,-5.3464,-5.2636,-5.1539,-5.022,-4.8745,-4.7154,-4.6627,-4.6351,-4.6351,-4.6351,-4.6351,-4.6351,-4.6326,-4.6326,-4.6326,-4.6326,-4.6301,-4.6301,-4.5714,-4.5519,-4.549,-4.4865,-4.424,-4.3812,-4.3787,-4.3498,-4.2936,-4.2401,-4.2215,-4.2165,-4.1496,-4.0981,-4.0514,-4.0567,-4.0183,-3.9876,-4.0387,-4.0489,-4.0669,-4.1209,-4.126,-4.1209,-4.0669,-4.0489,-4.0563,-4.0582,-4.0492,-4.0525,-4.0514,-4.007,-3.9747,-3.9697,-3.9697,-3.9697,-3.9697,-3.9697,0.0,-3.9697,-3.9697,-3.9129,-3.769,-3.7477,-3.6356,-3.3417,-3.2748,-3.2035,-3.1053,-3.0133,-2.9643,-2.9662,-2.8447,-2.78,-2.78,-2.6445,-2.5566,-2.5212,0.0,0.0,0.0,0.0,0.0,0.0,0.0,0.0,0.0,0.0,0.0,0.0,0.0,0.0,0.0,0.0,0.0,0.0,0.0,0.0,0.0,0.0,-4.4227,-4.4227,-4.692,-4.9045,-4.9523,-5.1229,-5.2157,-5.1618,-5.2845,-5.3862,-5.4341,-5.497,-5.5189,-5.473,-5.4475,-5.3274,-5.0693,-5.0247,-4.9317,-4.7707,-4.7531,-4.7481,-4.7481,-4.7481,-4.7481,-4.7456,-4.7071,-4.6914,-4.6914,-4.6496,-4.6301,-4.6301,-4.613,-4.6105,-4.603,-4.5017,-4.455,-4.4376,-4.3941,-4.3498,-4.2961,-4.2799,-4.2774,-4.2749,-4.2165,-4.1817,-4.1597,-4.1231,-4.0952,-4.0926,-4.108,-4.1034,-4.1136,-4.1295,-4.132,-4.1295,-4.1136,-4.1089,-4.1078,-4.1081,-4.1022,-4.1081,-4.1096,-4.1003,-4.0626,-3.9823,-3.9697,-3.9697,-3.9697,-3.9697,0.0,-3.9697,-3.9697,-3.9129,-3.769,-3.7477,-3.6703,-3.4847,-3.4295,-3.3704,-3.3052,-3.2038,-3.1253,-3.0673,-2.9908,-2.9682,-3.0116,-2.8137,-2.7401,0.0,0.0,0.0,0.0,0.0,0.0,0.0,0.0,0.0,0.0,0.0,0.0,0.0,0.0,0.0,0.0,0.0,0.0,0.0,0.0,0.0,0.0,-4.5394,-4.7549,-4.8117,-4.9613,-5.099,-5.1917,-5.2965,-5.3713,-5.3982,-5.464,-5.5299,-5.5927,-5.6346,-5.6392,-5.584,-5.6133,-5.5128,-5.2718,-5.2575,-5.1546,-4.9328,-4.8974,-4.8625,-4.7908,-4.7908,-4.7908,-4.7883,-4.7529,-4.7395,0.0,-4.7136,-4.6889,-4.6692,-4.6692,-4.6522,0.0,0.0,0.0,0.0,0.0,-4.3924,-4.3685,-4.3361,-4.3336,-4.331,-4.2749,-4.2376,-4.2152,-4.1796,-4.1443,-4.1392,-4.16,-4.1638,-4.1681,-4.1979,-4.2004,-4.1954,-4.1682,-4.1663,-4.1656,-4.1722,-4.1638,-4.1722,-4.1706,-4.1681,0.0,-4.0526,-4.0375,-4.03,-4.0074,-4.0049,-3.9948,-3.9722,-3.9697,-3.9362,-3.8477,-3.8453,-3.7796,-3.6379,-3.5787,0.0,0.0,0.0,-3.2583,-3.175,-3.1365,0.0,0.0,0.0,0.0,0.0,0.0,0.0,0.0,-2.8301,-2.8014,0.0,0.0,0.0,0.0,0.0,0.0,0.0,0.0,0.0,0.0,0.0,0.0,0.0,0.0,0.0,0.0,-4.8805,-5.093,-5.2247,-5.1917,-5.1977,-5.3144,-5.3952,-5.467,-5.5239,-5.5897,-5.6526,-5.7154,-5.7214,-5.7244,-5.7304,0.0,0.0,0.0,0.0,-5.4512,-5.1372,-5.0722,-4.9611,-4.8109,-4.8109,-4.8109,-4.8109,-4.8083,-4.8005,-4.7962,-4.7937,-4.7688,-4.7122,-4.7066,-4.6743,-4.6301,-4.6301,-4.5935,-4.5465,-4.4878,-4.4684,-4.452,-4.4091,0.0,0.0,-4.331,-4.2774,-4.2376,-4.2351,-4.1867,-4.1632,-4.219,-4.2239,-4.2401,-4.2936,-4.2986,-4.2836,-4.2368,-4.2326,-4.2242,-4.2343,-4.2258,-4.2258,-4.2258,-4.2258,-4.2082,-4.1605,-4.143,-4.1178,-4.0676,-4.0601,-4.0425,-3.9948,-3.9873,-3.9769,-3.9665,0.0,0.0,-3.775,-3.7273,-3.6626,-3.5904,-3.4956,-3.4152,-3.3298,-3.3164,-3.3209,-3.3343,-3.4071,-3.4956,-3.5795,-3.6183,-3.6703,-3.7133,-3.1019,-2.9966,0.0,0.0,0.0,0.0,0.0,0.0,0.0,0.0,0.0,0.0,0.0,0.0,0.0,0.0,0.0,-4.8416,-5.0451,-5.2276,-5.3623,-5.3713,-5.3713,-5.3982,-5.5059,-5.5837,-5.5957,-5.6555,-5.7184,-5.7872,-5.7932,-5.8141,-5.868,-5.883,0.0,-5.6563,-5.6534,-5.5014,-5.183,-5.1698,-5.0805,-4.9264,0.0,0.0,-4.9264,-4.8832,-4.8682,-4.8557,-4.8103,-4.7877,-4.7728,-4.7277,-4.6743,-4.6301,-4.6301,-4.5935,-4.547,-4.541,-4.5042,-4.463,-4.4462,-4.4468,-4.4326,-4.3762,-4.3548,-4.3361,-4.2961,-4.2774,0.0,-4.2799,-4.2799,-4.2936,-4.2961,-4.2986,-4.2936,-4.2811,-4.2897,-4.2785,-4.2811,-4.2811,-4.2811,-4.2811,-4.2811,-4.2785,-4.2685,-4.1932,-4.1304,-4.1204,-4.1178,-4.1153,-4.1028,-4.1028,-4.055,-3.931,-3.9176,-3.9067,-3.8823,-3.8346,-3.8431,-3.9455,-3.8251,-3.718,-3.6567,-3.6214,-3.6466,-3.7156,-3.6626,-3.6832,-3.7769,-3.713,-3.7862,-3.9915,-3.6545,-3.5622,0.0,0.0,0.0,0.0,0.0,0.0,0.0,0.0,0.0,0.0,0.0,-4.3778,0.0,0.0,-4.9703,-5.102,-5.2336,-5.3563,-5.4551,-5.47,-5.47,-5.47,-5.5568,-5.6286,-5.6585,-5.7244,-5.7902,-5.856,-5.862,-5.877,-5.9099,-5.9099,-5.8743,-5.7915,-5.7915,-5.6736,-5.4359,-5.4359,-5.3522,-5.1989,-5.1142,-5.0839,-5.071,-4.9645,-4.9182,-4.9157,-4.8903,-4.8546,-4.8323,-4.7677,-4.7161,-4.6718,-4.6718,-4.6351,-4.591,-4.591,-4.5714,-4.547,-4.5105,-4.5017,-4.5001,-4.4427,-4.4055,-4.3787,-4.3438,-4.3237,-4.2986,-4.2986,-4.2986,-4.2986,-4.2986,-4.2986,-4.2986,-4.2986,-4.2986,-4.2986,-4.2986,-4.2986,-4.2986,-4.2986,-4.2986,-4.2986,-4.2986,-4.2534,-4.2057,-4.1781,-4.1756,-4.1656,-4.1379,-4.1329,-4.1006,-4.0305,-4.0171,-4.0171,-4.0171,-3.9927,-4.0128,-4.0821,-4.0236,-3.9658,-3.9389,-3.92,-3.9345,-3.978,-3.9609,-3.9753,-4.0281,-4.0282,-4.1046,-4.2315,-4.1172,-4.0479,0.0,0.0,0.0,0.0,0.0,0.0,0.0,0.0,-4.1534,-4.3658,-4.5873,-4.7818,-4.9015,-5.075,-5.2366,-5.3563,-5.4311,-5.491,-5.5329,-5.5388,-5.5329,-5.5209,-5.5897,-5.6555,-5.7034,-5.7842,-5.853,-5.9069,-5.9099,-5.9159,-5.9279,-5.9308,-5.9368,-5.9488,-5.9488,-5.8601,-5.6908,-5.6908,-5.5905,-5.391,-5.2578,-5.1883,-5.1425,-5.0232,-4.959,-4.959,-4.959,-4.9336,-4.8779,-4.8306,-4.777,-4.7298,-4.7288,-4.6964,-4.6547,-4.6351,-4.6301,-4.6276,-4.586,-4.5689,-4.5519,-4.4957,-4.4486,-4.4105,-4.3991,-4.3601,-4.3288,-4.3288,-4.3212,-4.3137,-4.3137,-4.3062,-4.2986,-4.2986,-4.2986,-4.2986,-4.2986,-4.2986,-4.2986,-4.2986,-4.2986,-4.2986,-4.2986,-4.2986,-4.2836,-4.2384,-4.2308,-4.2158,-4.1706,-4.1656,-4.1656,-4.1656,-4.1656,-4.1605,-4.1505,-4.1605,-4.1605,-4.1505,-4.1605,-4.1656,-4.1656,-4.1656,-4.1656,-4.1656,-4.2183,-4.2484,-4.2484,-4.3463,-4.4016,-4.4141,-4.4593,-4.4067,-3.3638,-3.5828,0.0,-3.8691,-3.9858,-4.2073,0.0,0.0,-4.716,-4.9703,-5.093,-5.1768,-5.2486,-5.3803,-5.4999,-5.5718,-5.6376,-5.6615,-5.6137,-5.6077,-5.5837,-5.5269,-5.6256,-5.7004,-5.7094,-5.8261,-5.9039,-5.9099,-5.9099,-5.9368,-5.9937,-5.9967,-6.0266,-6.0864,-6.0894,-5.9865,-5.7571,-5.7571,-5.5833,-5.2209,-5.2112,-5.1242,-4.9925,-4.9694,-4.959,-4.959,-4.959,-4.9336,-4.8749,-4.8704,-4.8352,-4.7774,-4.7749,-4.7777,-4.758,-4.6692,-4.6301,-4.6301,-4.6276,-4.6155,-4.6175,-4.5573,-4.5364,-4.5162,-4.4669,-4.4493,-4.4443,-4.4443,-4.4091,-4.3714,-4.3714,-4.3338,-4.2986,-4.2986,-4.2986,-4.2986,-4.2986,-4.2986,-4.2986,-4.2986,-4.2986,-4.2986,-4.2986,-4.2986,-4.2961,-4.2886,-4.2886,-4.2861,-4.2811,-4.2785,-4.2785,-4.2785,-4.2785,-4.261,-4.2108,-4.2509,-4.2585,-4.2108,-4.2534,-4.2785,-4.2785,-4.2785,-4.2785,-4.2785,-4.3338,-4.3614,-4.3614,-4.4242,-4.4794,-4.5296,-4.5372,-4.5279,-3.8868,0.0,0.0,0.0,-4.4706,-4.6561,-4.8775,-4.9434,-5.0122,-5.1977,-5.2905,-5.3563,-5.4221,-5.5119,-5.5837,0.0,-5.6705,-5.7004,-5.6735,-5.6406,-5.5927,-5.5269,-5.5987,-5.6705,-5.7064,-5.7962,-5.868,-5.9069,-5.9458,-5.9787,-6.0086,-6.0475,-6.0805,-6.1104,-6.1104,-6.0618,-5.9699,-5.9699,-5.8839,-5.7249,-5.6304,-5.5029,-5.3359,-5.2201,-5.0895,-4.959,-4.959,-4.9411,-4.9336,-4.9336,-4.8928,-4.8422,-4.8384,-4.8209,-4.7833,-4.7025,-4.6743,-4.6718,-4.6351,-4.6301,-4.6276,-4.5999,-4.5792,-4.5515,-4.5196,-4.4895,-4.4618,-4.4618,-4.4468,-4.4292,-4.4292,-4.4116,-4.394,-4.394,-4.394,-4.394,-4.394,-4.394,-4.394,-4.394,-4.394,-4.394,-4.394,-4.394,-4.394,-4.394,-4.3388,-4.2986,-4.2986,-4.2986,-4.2986,-4.2986,-4.2986,-4.2886,-4.266,-4.2836,-4.3011,-4.3112,-4.3338,-4.3614,-4.3915,-4.394,-4.394,-4.394,-4.4166,-4.4292,-4.4292,-4.4844,-4.5246,-4.5497,-4.5824,-4.6125,-4.1816,0.0,0.0,-4.6232,-4.8356,-5.0122,-5.0301,-5.1229,-5.2366,-5.3503,-5.4132,-5.467,-5.5329,-5.5837,0.0,-5.6645,-5.7094,-5.7304,-5.7124,-5.6555,-5.5927,-5.5269,-5.5448,-5.5957,-5.6765,-5.7633,-5.8411,-5.9069,-5.9727,-6.0176,-6.0356,-6.1014,-6.1463,-6.1642,-6.1642,-6.1553,-6.1373,-6.1373,-6.1058,-6.0368,-5.9219,-5.7786,-5.6168,-5.418,-5.2027,-4.9819,-4.9819,-4.9769,-4.959,-4.959,-4.9361,-4.8978,-4.8978,-4.8724,-4.8298,-4.7782,-4.7453,-4.7205,-4.6753,-4.6577,-4.6552,-4.6376,-4.605,-4.5723,-4.5723,-4.5422,-4.5095,-4.5095,-4.497,-4.4869,-4.4869,-4.4744,-4.4618,-4.4618,-4.4618,-4.4618,-4.4618,-4.4618,-4.4618,-4.4618,-4.4618,-4.4618,-4.4618,-4.4618,-4.4618,-4.4618,-4.394,-4.3438,-4.3438,-4.3438,-4.3438,-4.3438,-4.3438,-4.3438,-4.3438,-4.3438,-4.3614,-4.4016,-4.4041,-4.4192,-4.4593,-4.4618,-4.4618,-4.4618,-4.4769,-4.4869,-4.4869,-4.5573,-4.5949,-4.5949,-4.6502,-4.6954,0.0,0.0,-4.7189,-4.7249,-4.9703,-5.2276,-5.2905,-5.3593,-5.4311,-5.4999,-5.5149,-5.5359,-5.6017,-5.6166,-5.6585,-5.7872,-5.8082,-5.7872,-5.7184,-5.6555,-5.5927,-5.5269,-5.464,-5.479,0.0,-5.7363,-5.8411,-5.9069,-5.9727,-6.0386,-6.1044,-6.1702,-6.2361,-6.2989,-6.3019,-6.272,-6.2061,-6.2061,-6.099,-5.8725,-5.8694,-5.7888,-5.6224,-5.4506,-5.2517,-5.0434,-5.0434,-5.0049,-4.959,-4.959,-4.959,-4.959,-4.959,-4.959,-4.954,-4.8903,-4.8397,-4.7794,-4.7259,-4.7132,-4.7032,-4.6502,-4.6301,-4.6276,-4.6276,-4.6276,-4.625,-4.625,-4.5874,-4.5472,-4.5472,-4.5045,-4.4618,-4.4618,-4.4618,-4.4618,-4.4618,-4.4618,-4.4618,-4.4618,-4.4618,-4.4618,-4.4618,-4.4618,-4.4618,-4.4618,-4.4593,-4.4568,-4.4568,-4.4568,-4.4568,-4.4568,-4.4568,-4.4568,-4.4568,-4.4568,-4.4593,-4.4593,-4.4593,-4.4593,-4.4618,-4.4618,-4.4618,-4.4618,-4.5171,-4.5472,-4.5472,-4.6552,-4.7079,-4.7104,-4.7606,-4.7857,0.0,0.0,-4.9015,-5.078,-5.2366,-5.3713,-5.4371,-5.47,-5.479,-5.4581,-5.4162,-5.3803,-5.3563,-5.3892,-5.461,-5.5957,-5.6885,-5.7663,-5.8321,-5.7872,-5.7064,-5.5957,-5.6017,0.0,0.0,0.0,0.0,-5.8381,-5.9458,-6.0386,-6.1074,-6.2151,-6.2839,-6.3079,-6.3079,-6.2959,-6.275,-6.275,-6.237,-6.1641,-6.0413,-5.948,-5.8451,-5.6888,-5.5382,-5.4299,-5.4341,-5.4179,-5.3918,-5.2491,-5.1846,-5.164,-5.0229,-4.959,-4.959,-4.9386,-4.9182,-4.8878,-4.7951,-4.7333,-4.7032,-4.6928,-4.6602,-4.6301,-4.6301,-4.6301,-4.6301,-4.6301,-4.6175,-4.6024,-4.6024,-4.5899,-4.5748,-4.5748,-4.5748,-4.5748,-4.5748,-4.5748,-4.5748,-4.5748,-4.5748,-4.5748,-4.5748,-4.5748,-4.5748,-4.5748,-4.5095,-4.4618,-4.4618,-4.4618,-4.4618,-4.4618,-4.4618,-4.4618,-4.4618,-4.4618,-4.4794,-4.5171,-4.5196,-4.5372,-4.5723,-4.5748,-4.5748,-4.5748,-4.6301,-4.6577,-4.6577,-4.7305,-4.7657,-4.7657,-4.7832,-4.8109,0.0,-4.9284,-5.0541,-5.2965,-5.4072,-5.467,-5.5089,-5.4999,-5.464,-5.3982,-5.3114,-5.2336,-5.1917,-5.2007,-5.2785,-5.485,-5.5867,-5.7034,-5.886,-5.8321,-5.7633,-5.7274,-5.7154,-5.7124,0.0,0.0,0.0,-5.8411,-5.9907,-6.0894,-6.1104,-6.2361,-6.3079,-6.3079,-6.3079,-6.3079,-6.3079,-6.3079,-6.3079,-6.3079,-6.1961,-6.0878,-5.9946,-5.8927,-5.771,-5.6596,-5.662,-5.6431,-5.617,-5.4716,-5.3661,-5.2802,-5.1383,-5.0279,-4.959,-4.959,-4.959,-4.9515,-4.8526,-4.7981,-4.7657,-4.7255,-4.6903,-4.6577,-4.6376,-4.6301,-4.6301,-4.6301,-4.6301,-4.6301,-4.6301,-4.6301,-4.6301,-4.6301,-4.6301,-4.6301,-4.6301,-4.6301,-4.6301,-4.6301,-4.6301,-4.6301,-4.6301,-4.6301,-4.6301,-4.6301,-4.5698,-4.5221,-4.5221,-4.5221,-4.5221,-4.5221,-4.5221,-4.5221,-4.5221,-4.5221,-4.5397,-4.5748,-4.5773,-4.5949,-4.6301,-4.6502,-4.6602,-4.6602,-4.7129,-4.7405,-4.7405,-4.7958,-4.8209,-4.8209,-4.841,-4.8711,-4.8925,-5.0421,-5.1887,-5.3832,-5.479,-5.5209,-5.5149,-5.464,-5.3922,-5.3144,-5.1947,-5.099,0.0,0.0,-5.1139,-5.4401,-5.5089,-5.6107,-5.877,-5.8052,-5.7723,0.0,0.0,0.0,0.0,0.0,0.0,-5.9219,0.0,-6.1792,-6.1194,-6.2391,-6.3079,-6.3079,-6.3079,-6.3079,-6.3079,-6.3079,-6.3079,-6.3079,-6.3079,-6.2225,-6.0615,-6.0615,-5.9509,-5.7484,-5.7484,-5.7197,-5.668,-5.6507,-5.5187,-5.3264,-5.3086,-5.1717,-4.9694,-4.9694,-4.9719,-4.9515,-4.9115,-4.8913,-4.8611,-4.7556,-4.7205,-4.7079,-4.6552,-4.6376,-4.6351,-4.6351,-4.6326,-4.6301,-4.6301,-4.6301,-4.6301,-4.6301,-4.6326,-4.6351,-4.6351,-4.6376,-4.6401,-4.6401,-4.6401,-4.6376,-4.6351,-4.6376,-4.6401,-4.6401,-4.6401,-4.6376,-4.6326,-4.6301,-4.6301,-4.6301,-4.6301,-4.6301,-4.6301,-4.6301,-4.6326,-4.6351,-4.6351,-4.6376,-4.6401,-4.6903,-4.7179,-4.7179,-4.7682,-4.7958,-4.7958,-4.8535,-4.8812,-4.8837,-4.9339,-4.959,-5.1379,-5.3144,-5.4431,-5.5418,-5.5807,-5.5658,-5.467,-5.3922,-5.2845,-5.069,-4.9224,-4.7698,-4.5723,0.0,0.0,-5.1139,-5.3563,0.0,-5.9398,-5.9548,0.0,0.0,0.0,-6.0027,-5.9847,-6.0745,0.0,0.0,-6.1074,-6.1493,-6.1822,-6.263,-6.3079,-6.3079,-6.3079,-6.3079,-6.3079,-6.3079,-6.3079,-6.3079,-6.3079,-6.2814,-6.246,-6.246,-6.2166,-6.1638,-6.1638,-6.1463,-6.117,-5.9538,-5.8176,-5.6996,-5.411,-5.2328,-5.1328,-5.1328,-5.0636,-4.9694,-5.0861,-5.0176,-4.8736,-4.8435,-4.8058,-4.7682,-4.7531,-4.723,-4.6928,-4.6928,-4.6627,-4.6301,-4.6301,-4.6301,-4.6301,-4.6301,-4.6627,-4.6928,-4.6928,-4.723,-4.7506,-4.7506,-4.7506,-4.738,-4.6979,-4.7255,-4.7506,-4.7506,-4.7506,-4.7205,-4.6401,-4.6301,-4.6301,-4.6301,-4.6301,-4.6301,-4.6301,-4.6301,-4.6476,-4.6903,-4.6928,-4.7104,-4.7481,-4.7631,-4.7707,-4.7707,-4.8259,-4.856,-4.856,-4.9113,-4.9389,-4.9389,-4.954,-4.959,-5.3414,-5.5029,-5.6047,-5.6137,-5.5957,-5.5179,-5.2965,-5.1947,-5.0541,-4.7339,-4.5873,0.0,0.0,0.0,0.0,0.0,0.0,0.0,-5.9548,-6.0086,-6.0416,0.0,-6.1493,0.0,-6.1403,-6.2091,-6.2361,0.0,-6.1972,-6.2002,-6.2091,-6.272,-6.3079,-6.3079,-6.3079,-6.3079,-6.3079,-6.3079,-6.3079,-6.3079,-6.3079,-6.3079,-6.3079,-6.3079,-6.3079,-6.3079,0.0,-6.3079,-6.3019,-6.1697,-6.0343,-5.8962,-5.6496,-5.4709,-5.3413,-5.3119,-5.2471,-5.1891,-5.27,-5.2269,-5.0995,-4.9343,-4.856,-4.8234,-4.7983,-4.7707,-4.7481,-4.7481,-4.7255,-4.7004,-4.7004,-4.7004,-4.7004,-4.7004,-4.7255,-4.7481,-4.7481,-4.7707,-4.7908,-4.7908,-4.7908,-4.7807,-4.7531,-4.7707,-4.7908,-4.7908,-4.7908,-4.7682,-4.7079,-4.7004,-4.7004,-4.7004,-4.7004,-4.7004,-4.7004,-4.7004,-4.7129,-4.7456,-4.7481,-4.7606,-4.7908,-4.8159,-4.8284,-4.8284,-4.8837,-4.9138,-4.9138,-4.9439,-4.9715,-4.9967,-4.9967,-5.0092,-5.5179,-5.6376,-5.7094,-5.6436,-5.5748,-5.4311,-5.099,-4.9523,-4.7788,-4.3928,0.0,0.0,-4.0876,0.0,-4.4347,-4.8237,0.0,-5.461,-5.9398,-6.0086,-6.0835,-6.2839,-6.257,-6.245,-6.3019,-6.3079,-6.3079,-6.3079,-6.3079,-6.2839,-6.2241,-6.278,-6.3079,-6.3079,-6.3079,-6.3079,-6.3079,-6.3079,-6.3079,-6.3079,-6.3079,-6.3079,-6.3079,-6.3079,-6.3079,-6.3079,0.0,0.0,-6.3079,-6.3079,-6.1902,-5.9915,-5.9155,-5.7536,-5.5631,-5.5165,-5.4873,-5.4607,-5.479,-5.4762,-5.3937,-5.0374,-4.9242,-4.9141,-4.841,-4.8083,-4.8033,-4.8033,-4.7958,-4.7908,-4.7908,-4.7908,-4.7908,-4.7908,-4.7958,-4.8033,-4.8033,-4.8083,-4.8109,-4.8033,-4.8083,-4.8109,-4.8033,-4.8083,-4.8134,-4.8134,-4.8134,-4.8134,-4.8134,-4.8008,-4.7908,-4.7908,-4.7908,-4.7908,-4.7908,-4.7908,-4.7933,-4.8008,-4.8033,-4.8058,-4.8134,-4.8611,-4.8887,-4.8887,-4.9339,-4.964,-4.9715,-4.9715,-4.9992,-5.0519,-5.0519,-5.0795,-5.7124,-5.7782,-5.7782,-5.7094,-5.6047,-5.4311,-5.099,-4.8476,0.0,0.0,0.0,-3.9379,-3.7644,-3.9738,0.0,-4.6292,0.0,0.0,0.0,0.0,-6.0835,0.0,0.0,0.0,0.0,0.0,0.0,0.0,0.0,0.0,-6.2899,-6.3019,-6.3079,-6.3079,-6.3079,-6.3079,-6.3079,-6.3079,-6.3079,-6.3079,-6.3079,-6.3079,-6.3079,-6.3079,-6.3079,-6.3079,-6.3079,0.0,-6.3079,-6.3079,-6.2519,-6.1522,-6.0033,-5.9013,-5.8086,-5.8057,-5.7055,-5.6131,-5.6844,-5.6293,-5.4754,-5.2262,-5.1459,-5.121,-4.9697,-4.8987,-4.8611,-4.8611,-4.8284,-4.7908,-4.7908,-4.7908,-4.7908,-4.7908,-4.8259,-4.8611,-4.8611,-4.8987,-4.9163,-4.8711,-4.8987,-4.9163,-4.8711,-4.9012,-4.9314,-4.9314,-4.9314,-4.9314,-4.9314,-4.8485,-4.7908,-4.7908,-4.7908,-4.7908,-4.7908,-4.7908,-4.8109,-4.8586,-4.8611,-4.8837,-4.9289,-4.9389,-4.9464,-4.9464,-4.954,-4.9816,-5.0268,-5.0268,-5.0569,-5.1122,-5.1122,-5.1197,-5.7244,-5.7842,-5.7872,-5.6855,-5.5359,-5.2905,-4.8237,0.0,0.0,0.0,0.0,-3.7494,-3.6207,0.0,0.0,0.0,0.0,0.0,0.0,0.0,0.0,0.0,0.0,0.0,0.0,0.0,0.0,0.0,0.0,0.0,-6.3079,-6.3079,-6.3079,-6.3079,-6.3079,-6.3079,-6.3079,-6.3079,-6.3079,-6.3079,-6.3079,-6.3079,-6.3079,-6.3079,-6.3079,-6.3079,-6.3079,0.0,-6.3079,-6.3079,-6.2959,-6.2519,-6.1436,-6.0792,-6.0439,-6.0115,-5.9479,-5.8841,-5.9273,-5.8694,-5.7484,-5.5625,-5.4156,-5.3066,-5.2359,-5.1927,-5.1716,-5.1716,-5.1504,-5.1022,-5.0188,-5.0064,-4.9842,-4.9014,-4.9596,-5.0503,-5.0503,-5.1309,-5.1786,-5.068,-5.071,-5.046,-4.9366,-4.9414,-4.959,-4.959,-4.959,-4.959,-4.959,-4.9113,-4.8786,-4.8786,-4.8786,-4.8786,-4.8786,-4.8786,-4.8912,-4.9188,-4.9213,-4.9314,-4.959,-4.9866,-5.0017,-5.0017,-5.0318,-5.0594,-5.087,-5.087,-5.1147,-5.1699,-5.1699,-5.1875,-5.6855,-5.7483,-5.7633,-5.6466,-5.4551,-5.1498,-4.5813,-4.3688,0.0,0.0,0.0,-3.6118,-3.5609,0.0,0.0,0.0,0.0,0.0,0.0,0.0,0.0,0.0,0.0,0.0,0.0,0.0,0.0,0.0,0.0,0.0,-6.3079,-6.3079,-6.3079,-6.3079,-6.3079,-6.3079,-6.3079,-6.3079,-6.3079,-6.3079,-6.3079,-6.3079,-6.3079,-6.3079,-6.3079,-6.3079,-6.3079,0.0,0.0,-6.3079,-6.3079,-6.3019,-6.2535,-6.2355,-6.2241,-6.1732,-6.1523,-6.1523,-6.1373,-6.0984,-6.0253,-5.8892,-5.6764,-5.4859,-5.4505,-5.4386,-5.4386,-5.4386,-5.4386,-5.4149,-5.2822,-5.2455,-5.2236,-5.0916,-5.1642,-5.2455,-5.2455,-5.3187,-5.3577,-5.2368,-5.1924,-5.1249,-5.0175,-4.9967,-5.0071,-5.0434,-5.0562,-5.0562,-5.0562,-5.0562,-5.0305,-4.9941,-4.9741,-4.964,-4.9766,-4.9766,-4.9816,-4.9941,-4.9967,-4.9967,-4.9967,-5.0368,-5.0594,-5.0594,-5.1046,-5.1348,-5.1448,-5.1448,-5.1749,-5.2277,-5.2277,-5.2528,-5.6615,-5.7124,-5.7034,-5.6346,-5.4221,-5.105,-4.6292,0.0,0.0,0.0,-3.5968,-3.5579,-3.5519,0.0,0.0,0.0,0.0,0.0,0.0,0.0,0.0,0.0,0.0,0.0,0.0,0.0,0.0,0.0,0.0,0.0,0.0,-6.3079,-6.3079,-6.3079,-6.3079,-6.3079,-6.3079,-6.3079,-6.3079,-6.3079,-6.3079,-6.3079,-6.3079,-6.3079,-6.3079,-6.3079,-6.3079,0.0,0.0,-6.3079,-6.3079,-6.3079,-6.2989,-6.2989,-6.2989,-6.2929,-6.2899,-6.281,-6.2211,-6.1972,-6.1822,-6.1081,-5.883,-5.6251,-5.4859,-5.4386,-5.4386,-5.4386,-5.4386,-5.4386,-5.4268,-5.4149,-5.4149,-5.4029,-5.4029,-5.4149,-5.4149,-5.3187,-5.2368,-5.2648,-5.1563,-5.0625,-5.1046,-5.1122,-5.1601,-5.3162,-5.3418,-5.3418,-5.3418,-5.3418,-5.2802,-5.1254,-5.0218,-4.9791,-5.0293,-5.0343,-5.0569,-5.1096,-5.1122,-5.1122,-5.1122,-5.1172,-5.1197,-5.1197,-5.1247,-5.1523,-5.2026,-5.2026,-5.2302,-5.2854,-5.2854,-5.2879,-5.494,-5.5927,-5.6286,-5.5239,-5.2995,-4.9823,-4.5185,0.0,0.0,-3.6567,-3.5699,-3.5519,-3.5519,-3.5729,-3.6926,0.0,-4.1025,0.0,0.0,0.0,0.0,0.0,0.0,0.0,0.0,0.0,0.0,0.0,0.0,0.0,0.0,-6.3318,-6.3079,-6.3079,-6.3079,-6.3079,-6.3079,-6.3079,-6.3079,-6.3079,-6.3079,-6.3079,-6.3079,-6.3079,-6.3079,-6.3079,-6.3079,0.0,0.0,-6.3079,-6.3079,-6.3079,-6.3079,-6.3079,-6.3079,-6.3079,-6.3079,-6.3049,-6.278,-6.2421,-6.2061,-6.1792,-6.0595,-5.9232,-5.8635,-5.8377,-5.8319,-5.7913,-5.7797,-5.7569,-5.6591,-5.6024,-5.5474,-5.4994,-5.6024,-5.7014,-5.7014,-5.7277,-5.7217,-5.6493,-5.5795,-5.5142,-5.4413,-5.434,-5.4566,-5.5166,-5.529,-5.529,-5.529,-5.529,-5.5041,-5.434,-5.2078,-5.0695,-5.0921,-5.0946,-5.1046,-5.1272,-5.2254,-5.2385,-5.1272,-5.2587,-5.2741,-5.1774,-5.2101,-5.2377,-5.2603,-5.3587,-5.3715,-5.2929,-5.392,-5.4433,-5.2815,-5.4132,-5.476,-5.3832,-5.1768,-4.8745,0.0,0.0,-3.9469,-3.6178,-3.5519,-3.5519,-3.5519,-3.5519,-3.6297,0.0,-3.9439,-4.1713,0.0,0.0,0.0,0.0,0.0,0.0,0.0,0.0,0.0,0.0,0.0,0.0,0.0,-6.3674,-6.3284,-6.3079,-6.3079,-6.3079,-6.3079,-6.3079,-6.3079,-6.3079,-6.3079,-6.3079,-6.3079,-6.3079,-6.3079,-6.3079,0.0,0.0,0.0,-6.3079,-6.3079,-6.3079,-6.3079,-6.3079,-6.3079,-6.3079,-6.3079,-6.3079,-6.3079,-6.278,-6.2391,-6.2391,-6.2061,-6.1702,-6.1702,-6.1433,-6.1014,-6.0535,-6.0386,-6.0134,-5.9035,-5.8174,-5.7639,-5.7095,-5.8291,-5.9364,-5.9364,-5.9968,-6.0056,-5.9102,-5.8513,-5.7973,-5.6926,-5.683,-5.6953,-5.7416,-5.7538,-5.7538,-5.7538,-5.7538,-5.7294,-5.683,-5.4746,-5.3191,-5.3035,-5.3009,-5.3087,-5.3242,-5.4361,-5.4463,-5.34,-5.4758,-5.5099,-5.3864,-5.4252,-5.4459,-5.4459,-5.5578,-5.5578,-5.4459,-5.5578,-5.6206,-5.0361,-5.1738,-5.2247,-5.2217,-5.072,-4.8057,0.0,-4.1354,-3.9469,-3.6178,-3.5519,-3.5519,-3.5519,-3.5519,-3.6148,-3.8093,-3.9529,-4.2252,0.0,0.0,0.0,0.0,0.0,0.0,0.0,0.0,0.0,0.0,0.0,0.0,0.0,-6.4407,-6.367,-6.3079,-6.3079,-6.3079,-6.3079,-6.3079,-6.3079,-6.3079,-6.3079,-6.3079,-6.3079,-6.3079,-6.3079,0.0,0.0,0.0,0.0,-6.3079,-6.3079,-6.3079,-6.3079,-6.3079,-6.3079,-6.3079,-6.3079,-6.3079,-6.3079,-6.3079,-6.3079,-6.3079,-6.3049,-6.3049,-6.3049,-6.2151,-6.1104,-6.1104,-6.1104,-6.1104,-6.1104,-6.1104,-6.0992,-6.0992,-6.1104,-6.1104,-6.1104,-5.9853,-5.8898,-5.9414,-5.8325,-5.7411,-5.7867,-5.7977,-5.8606,-6.0209,-6.0451,-6.0451,-6.0451,-6.0451,-5.9843,-5.8103,-5.7977,-5.7729,-5.7148,-5.7093,-5.7342,-5.7949,-5.7977,-5.7977,-5.7977,-5.7977,-5.7977,-5.7977,-5.8005,-5.8005,-5.8005,-5.8005,-5.8005,-5.8005,-5.8005,-5.8005,-4.5693,-4.7339,-4.8536,-4.716,-4.5992,-4.4347,-4.1085,-3.9679,-3.8362,-3.5998,-3.5519,-3.5519,-3.5519,-3.5519,-3.6746,-4.0487,-4.1474,0.0,0.0,0.0,0.0,0.0,0.0,0.0,0.0,0.0,0.0,0.0,0.0,0.0,0.0,-6.5472,-6.4874,-6.373,-6.3314,-6.3079,-6.3079,-6.3079,-6.3079,-6.3079,-6.3079,-6.3079,-6.3079,-6.3079,0.0,0.0,0.0,0.0,0.0,-6.3079,-6.3079,-6.3079,-6.3079,-6.3079,-6.3079,-6.3079,-6.3079,-6.3079,-6.3079,-6.3079,-6.3079,-6.3079,-6.3079,-6.3079,-6.3079,-6.278,-6.2361,-6.1912,-6.1792,-6.1672,-6.1224,-6.1792,-6.2331,-6.1882,-6.2121,-6.245,-6.245,-6.2076,-6.173,-6.1937,-6.1616,-6.1321,-6.1525,-6.1555,-6.1673,-6.2175,-6.2292,-6.2292,-6.2292,-6.2292,-6.2028,-6.1555,-6.1555,-6.0451,-5.798,-5.7729,-5.7784,-5.7977,-5.9104,-5.9228,-5.8005,-5.9104,-5.9104,-5.8005,-5.8005,-5.8005,-5.8005,-5.9104,-5.9749,-5.9749,-5.9749,-5.9104,0.0,-4.4228,-4.5125,-4.3898,-4.309,-4.1983,-3.9589,-3.8512,-3.7554,-3.5848,-3.5519,-3.5519,-3.5519,-3.5699,-3.6956,-4.0307,0.0,0.0,0.0,0.0,0.0,0.0,0.0,0.0,0.0,0.0,0.0,0.0,0.0,0.0,0.0,-6.6124,-6.562,-6.4813,-6.3884,-6.3314,-6.3079,-6.3079,-6.3079,-6.3079,-6.3079,-6.3079,-6.3079,-6.3079,0.0,0.0,0.0,0.0,0.0,-6.3079,-6.3079,-6.3079,-6.3079,-6.3079,-6.3079,-6.3079,-6.3079,-6.3079,-6.3079,-6.3079,-6.3079,-6.3079,-6.3079,-6.3079,-6.3079,-6.3079,-6.2989,-6.257,-6.248,-6.2361,-6.1972,-6.245,-6.2959,-6.257,-6.278,-6.3079,-6.3079,-6.3079,-6.3079,-6.3079,-6.3079,-6.3079,-6.3079,-6.3079,-6.3079,-6.3079,-6.3079,-6.3079,-6.3079,-6.3079,-6.3079,-6.3079,-6.3079,-6.2175,-6.0144,-5.99,-5.99,-5.99,-6.0899,-6.1019,-6.0022,-6.0899,-6.1019,-5.99,-5.99,-5.99,-5.99,-6.1019,-6.1525,-6.1525,-6.1525,-6.0899,0.0,-4.2058,-4.1983,-4.1893,-4.1444,-4.0546,-3.8631,-3.7734,0.0,-3.5759,-3.5519,-3.5579,-3.5759,-3.6207,-3.7105,-3.8751,0.0,0.0,0.0,0.0,0.0,0.0,0.0,0.0,0.0,0.0,0.0,0.0,0.0,0.0,0.0,-6.6395,-6.6064,-6.6034,-6.4723,-6.3815,-6.3109,-6.3079,-6.3079,-6.3079,-6.3079,-6.3079,-6.3079,-6.3079,0.0,0.0,0.0,0.0,0.0,-6.3079,-6.3079,-6.3079,-6.3079,-6.3079,-6.3079,-6.3079,-6.3079,-6.3079,-6.3079,-6.3079,-6.3079,-6.3079,-6.3079,-6.3079,-6.3079,-6.3079,-6.3079,-6.3079,-6.3079,-6.3079,-6.3079,-6.3079,-6.3079,-6.3079,-6.3079,-6.3079,-6.3079,-6.3079,-6.3079,-6.3079,-6.3079,-6.3079,-6.3079,-6.3079,-6.3079,-6.3079,-6.3079,-6.3079,-6.3079,-6.3079,-6.3079,-6.3079,-6.3079,-6.3079,-6.3079,-6.3079,-6.3079,-6.3079,-6.3079,-6.3079,-6.3079,-6.3079,-6.3079,-6.3079,-6.3079,-6.3079,-6.3079,-6.3079,-6.3079,-6.3079,-6.3079,-6.3079,-3.7698,0.0,-3.8332,-3.7375,-3.7375,-3.7375,0.0,-3.6447,0.0,0.0,0.0,0.0,0.0,0.0,0.0,0.0,0.0,0.0,0.0,0.0,0.0,0.0,0.0,0.0,0.0,0.0,0.0,0.0,0.0,0.0,0.0,-6.6909,-6.6485,-6.6064,-6.5229,-6.4468,-6.3815,-6.3314,-6.3079,-6.3079,-6.3079,-6.3079,-6.3079,-6.3079,0.0,0.0,0.0,0.0,-6.3079,-6.3079,-6.3079,-6.3079,-6.3079,-6.3079,-6.3079,-6.3079,-6.3079,-6.3079,-6.3079,-6.3079,-6.3079,-6.3079,-6.3079,-6.3079,-6.3079,-6.3079,-6.3079,-6.3079,-6.3079,-6.3079,-6.3079,-6.3079,-6.3079,-6.3079,-6.3079,-6.3079,-6.3079,-6.3079,-6.3079,-6.3079,-6.3079,-6.3079,-6.3079,-6.3079,-6.3079,-6.3079,-6.3079,-6.3079,-6.3079,-6.3079,-6.3079,-6.3079,-6.3079,-6.3079,-6.3079,-6.3079,-6.3079,-6.3079,-6.3079,-6.3079,-6.3079,-6.3079,-6.3079,-6.3079,-6.3079,-6.3079,-6.3079,-6.3079,-6.3079,-6.3079,-6.3079,-6.3079,-3.6094,-3.6817,-3.7315,-3.6926,-3.7105,-3.7255,0.0,0.0,0.0,0.0,0.0,0.0,0.0,0.0,0.0,0.0,0.0,0.0,0.0,0.0,0.0,0.0,0.0,0.0,0.0,0.0,0.0,0.0,0.0,0.0,0.0,-6.6999,-6.6879,-6.6425,-6.5832,-6.5049,-6.3965,-6.3374,-6.3079,-6.3079,-6.3079,-6.3079,-6.3079,-6.3079,-6.3079,0.0,0.0,0.0,-6.3079,-6.3079,-6.3079,-6.3079,-6.3079,-6.3079,-6.3079,-6.3079,-6.3079,-6.3079,-6.3079,-6.3079,-6.3079,-6.3079,-6.3079,-6.3079,-6.3079,-6.3079,-6.3079,-6.3079,-6.3079,-6.3079,-6.3079,-6.3079,-6.3079,-6.3079,-6.3079,-6.3079,-6.3079,-6.3079,-6.3079,-6.3079,-6.3079,-6.3079,-6.3079,-6.3079,-6.3079,-6.3079,-6.3079,-6.3079,-6.3079,-6.3079,-6.3079,-6.3079,-6.3079,-6.3079,-6.3079,-6.3079,-6.3079,-6.3079,-6.3079,-6.3079,-6.3079,-6.3079,-6.3079,-6.3079,-6.3079,-6.3079,-6.3079,-6.3079,-6.3079,-6.3079,-6.3378,-6.3498,-3.5925,-3.6909,-3.7901,-3.8102,-3.8332,-3.8482,0.0,0.0,0.0,0.0,0.0,0.0,0.0,0.0,0.0,0.0,0.0,0.0,0.0,0.0,0.0,0.0,0.0,0.0,0.0,0.0,0.0,0.0,0.0,0.0,0.0,-6.6999,-6.6999,-6.6999,-6.6365,-6.5411,-6.427,-6.3734,-6.3348,-6.3228,-6.3228,-6.3169,-6.3079,-6.3079,-6.3079,0.0,0.0,0.0,-6.3079,-6.3079,-6.3079,-6.3079,-6.3079,-6.3079,-6.3079,-6.3079,-6.3079,-6.3079,-6.3079,-6.3079,-6.3079,-6.3079,-6.3079,-6.3079,-6.3079,-6.3079,-6.3079,-6.3079,-6.3079,-6.3079,-6.3079,-6.3079,-6.3079,-6.3079,-6.3079,-6.3079,-6.3079,-6.3079,-6.3079,-6.3079,-6.3079,-6.3079,-6.3079,-6.3079,-6.3079,-6.3079,-6.3079,-6.3079,-6.3079,-6.3079,-6.3079,-6.3079,-6.3079,-6.3079,-6.3079,-6.3079,-6.3079,-6.3079,-6.3079,-6.3079,-6.3079,-6.3079,-6.3079,-6.3079,-6.3079,-6.3139,-6.3228,-6.3228,-6.3258,-6.3378,-6.3917,-6.4156,-3.7444,-3.8965,-3.9398,-3.7301,-3.8033,-3.896,0.0,0.0,0.0,0.0,0.0,0.0,0.0,0.0,0.0,0.0,0.0,0.0,0.0,0.0,0.0,0.0,0.0,0.0,0.0,0.0,0.0,0.0,0.0,0.0,0.0,0.0,-6.6999,-6.6999,-6.6365,-6.5915,-6.5739,-6.5053,-6.4457,-6.3857,-6.3857,-6.3588,-6.3079,-6.3079,-6.3079,0.0,0.0,-6.3079,-6.3079,-6.3079,-6.3079,-6.3079,-6.3079,-6.3079,-6.3079,-6.3079,-6.3079,-6.3079,-6.3079,-6.3079,-6.3079,-6.3079,-6.3079,-6.3079,-6.3079,-6.3079,-6.3079,-6.3079,-6.3079,-6.3079,-6.3079,-6.3079,-6.3079,-6.3079,-6.3079,-6.3079,-6.3079,-6.3079,-6.3079,-6.3079,-6.3079,-6.3079,-6.3079,-6.3079,-6.3079,-6.3079,-6.3079,-6.3079,-6.3079,-6.3079,-6.3079,-6.3079,-6.3079,-6.3079,-6.3079,-6.3079,-6.3079,-6.3079,-6.3079,-6.3079,-6.3079,-6.3079,-6.3079,-6.3079,-6.3079,-6.3318,-6.3857,-6.3857,-6.4156,-6.4725,-6.4814,-6.4874,-3.6589,-3.843,-3.961,-3.837,-4.0098,0.0,0.0,0.0,0.0,0.0,0.0,0.0,0.0,0.0,0.0,0.0,0.0,0.0,0.0,0.0,0.0,0.0,0.0,0.0,0.0,0.0,0.0,0.0,0.0,0.0,0.0,0.0,-6.6999,-6.6999,-6.6697,-6.6607,-6.6607,-6.592,-6.4994,-6.4006,-6.3647,-6.3348,-6.3079,-6.3079,-6.3079,-6.3079,0.0,-6.3079,-6.3079,-6.3079,-6.3079,-6.3079,-6.3079,-6.3079,-6.3079,-6.3079,-6.3079,-6.3079,-6.3079,-6.3079,-6.3079,-6.3079,-6.3079,-6.3079,-6.3079,-6.3079,-6.3079,-6.3079,-6.3079,-6.3079,-6.3079,-6.3079,-6.3079,-6.3079,-6.3079,-6.3079,-6.3079,-6.3079,-6.3079,-6.3079,-6.3079,-6.3079,-6.3079,-6.3079,-6.3079,-6.3079,-6.3079,-6.3079,-6.3079,-6.3079,-6.3079,-6.3079,-6.3079,-6.3079,-6.3079,-6.3079,-6.3079,-6.3079,-6.3079,-6.3079,-6.3079,-6.3079,-6.3079,-6.3079,-6.3408,-6.3707,-6.4006,-6.4366,-6.4725,-6.5054,-6.5383,-6.5562,-3.64,-3.7971,-3.9597,0.0,0.0,0.0,0.0,0.0,0.0,0.0,0.0,0.0,0.0,0.0,0.0,0.0,0.0,0.0,0.0,0.0,0.0,0.0,0.0,0.0,0.0,0.0,0.0,0.0,0.0,0.0,0.0,0.0,-6.6999,-6.6999,-6.6999,-6.6999,-6.6999,-6.6191,-6.5263,-6.4246,-6.3588,-6.3228,-6.3079,-6.3079,-6.3079,-6.3079,-6.3079,-6.3079,-6.3079,-6.3079,-6.3079,-6.3079,-6.3079,-6.3079,-6.3079,-6.3079,-6.3079,-6.3079,-6.3079,-6.3079,-6.3079,-6.3079,-6.3079,-6.3079,-6.3079,-6.3079,-6.3079,-6.3079,-6.3079,-6.3079,-6.3079,-6.3079,-6.3079,-6.3079,-6.3079,-6.3079,-6.3079,-6.3079,-6.3079,-6.3079,-6.3079,-6.3079,-6.3079,-6.3079,-6.3079,-6.3079,-6.3079,-6.3079,-6.3079,-6.3079,-6.3079,-6.3079,-6.3079,-6.3079,-6.3079,-6.3079,-6.3079,-6.3079,-6.3079,-6.3079,-6.3079,-6.3079,-6.3139,-6.3288,-6.3767,-6.4156,-6.4485,-6.4994,-6.5323,-6.5503,-6.6011,-6.6251,-3.8843,-3.9393,-3.9945,0.0,0.0,0.0,0.0,0.0,0.0,0.0,0.0,0.0,0.0,0.0,0.0,0.0,0.0,0.0,0.0,0.0,0.0,0.0,0.0,0.0,0.0,0.0,0.0,0.0,0.0,0.0,0.0,0.0,0.0,-6.6999,-6.6999,-6.6999,-6.6999,-6.5742,-6.5054,-6.4934,-6.4246,-6.3617,-6.3079,-6.3079,-6.3079,-6.3079,-6.3079,-6.3079,-6.3079,-6.3079,-6.3079,-6.3079,-6.3079,-6.3079,-6.3079,-6.3079,-6.3079,-6.3079,-6.3079,-6.3079,-6.3079,-6.3079,-6.3079,-6.3079,-6.3079,-6.3079,-6.3079,-6.3079,-6.3079,-6.3079,-6.3079,-6.3079,-6.3079,-6.3079,-6.3079,-6.3079,-6.3079,-6.3079,-6.3079,-6.3079,-6.3079,-6.3079,-6.3079,-6.3079,-6.3079,-6.3079,-6.3079,-6.3079,-6.3079,-6.3079,-6.3079,-6.3079,-6.3079,-6.3079,-6.3079,-6.3079,-6.3079,-6.3079,-6.3079,-6.3079,-6.3079,-6.3079,-6.3348,-6.3917,-6.3977,-6.4605,-6.5862,-6.5922,-6.6251,-6.6849,-6.6909,-6.6909,-3.7386,-3.8623,-3.9849,0.0,0.0,0.0,0.0,0.0,0.0,0.0,0.0,0.0,0.0,0.0,0.0,0.0,0.0,0.0,0.0,0.0,0.0,0.0,0.0,0.0,0.0,0.0,0.0,0.0,0.0,0.0,0.0,0.0,0.0,-6.5742,-6.6162,-6.6131,-6.5772,-6.4844,-6.4395,-6.4366,-6.3737,-6.3318,-6.3079,-6.3079,-6.3079,-6.3079,-6.3079,-6.3079,-6.3079,-6.3079,-6.3079,-6.3079,-6.3079,-6.3079,-6.3079,-6.3079,-6.3079,-6.3079,-6.3079,-6.3079,-6.3079,-6.3079,-6.3079,-6.3079,-6.3079,-6.3079,-6.3079,-6.3079,-6.3079,-6.3079,-6.3079,-6.3079,-6.3079,-6.3079,-6.3079,-6.3079,-6.3079,-6.3079,-6.3079,-6.3079,-6.3079,-6.3079,-6.3079,-6.3079,-6.3079,-6.3079,-6.3079,-6.3079,-6.3079,-6.3079,-6.3079,-6.3079,-6.3079,-6.3079,-6.3079,-6.3079,-6.3079,-6.3079,-6.3079,-6.3258,-6.3617,-6.3647,-6.3947,-6.4635,-6.5054,-6.5503,-6.6011,-6.643,-6.6759,-6.6999,-6.6999,-6.6999,-3.6801,-3.8361,-4.0123,0.0,0.0,0.0,0.0,0.0,0.0,0.0,0.0,0.0,0.0,0.0,0.0,0.0,0.0,0.0,0.0,0.0,0.0,0.0,0.0,0.0,0.0,0.0,0.0,0.0,0.0,0.0,0.0,0.0,0.0,0.0,-6.5413,-6.5413,-6.5024,-6.4336,-6.4006,-6.3977,-6.3378,-6.3079,-6.3079,-6.3079,-6.3079,-6.3079,-6.3079,-6.3079,-6.3079,-6.3079,-6.3079,-6.3079,-6.3079,-6.3079,-6.3079,-6.3079,-6.3079,-6.3079,-6.3079,-6.3079,-6.3079,-6.3079,-6.3079,-6.3079,-6.3079,-6.3079,-6.3079,-6.3079,-6.3079,-6.3079,-6.3079,-6.3079,-6.3079,-6.3079,-6.3079,-6.3079,-6.3079,-6.3079,-6.3079,-6.3079,-6.3079,-6.3079,-6.3079,-6.3079,-6.3079,-6.3079,-6.3079,-6.3079,-6.3079,-6.3079,-6.3079,-6.3079,-6.3079,-6.3169,-6.3348,-6.3378,-6.3468,-6.3677,-6.3707,-6.3797,-6.3977,-6.4216,-6.4635,-6.5323,-6.5772,-6.6101,-6.6311,-6.6759,-6.6999,-6.6999,-6.6999,-6.6999,-3.7836,-3.8998,0.0,0.0,0.0,0.0,0.0,0.0,0.0,0.0,0.0,0.0,0.0,0.0,0.0,0.0,0.0,0.0,0.0,0.0,0.0,0.0,0.0,0.0,0.0,0.0,0.0,0.0,0.0,0.0,0.0,0.0,0.0,0.0,-6.5023,-6.5024,-6.4994,-6.4336,-6.3977,-6.3977,-6.3378,-6.3079,-6.3079,-6.3079,-6.3079,-6.3079,-6.3079,-6.3079,-6.3079,-6.3079,-6.3079,-6.3079,-6.3079,-6.3079,-6.3079,-6.3079,-6.3079,-6.3079,-6.3079,-6.3079,-6.3079,-6.3079,-6.3079,-6.3079,-6.3079,-6.3079,-6.3079,-6.3079,-6.3079,-6.3079,-6.3079,-6.3079,-6.3079,-6.3079,-6.3079,-6.3079,-6.3079,-6.3079,-6.3079,-6.3079,-6.3079,-6.3079,-6.3079,-6.3079,-6.3079,-6.3079,-6.3079,-6.3079,-6.3079,-6.3079,-6.3079,-6.3109,-6.3109,-6.3348,-6.3947,-6.4006,-6.4306,-6.4994,-6.5024,-6.4725,-6.4036,-6.4665,-6.5353,-6.6011,-6.6011,-6.634,-6.6999,-6.6999,-6.6999,-6.6999,-6.6999,-6.6999,-3.7699,0.0,0.0,0.0,0.0,0.0,0.0,0.0,0.0,0.0,0.0,0.0,0.0,0.0,0.0,0.0,0.0,0.0,0.0,0.0,0.0,0.0,0.0,0.0,0.0,0.0,0.0,0.0,0.0,0.0,0.0,0.0,0.0,0.0,-6.4036,-6.4096,-6.3647,-6.3468,-6.3348,-6.3348,-6.3169,-6.3079,-6.3079,-6.3079,-6.3079,-6.3079,-6.3079,-6.3079,-6.3079,-6.3079,-6.3079,-6.3079,-6.3079,-6.3079,-6.3079,-6.3079,-6.3079,-6.3079,-6.3079,-6.3079,-6.3079,-6.3079,-6.3079,-6.3079,-6.3079,-6.3079,-6.3079,-6.3079,-6.3079,-6.3079,-6.3079,-6.3079,-6.3079,-6.3079,-6.3079,-6.3079,-6.3079,-6.3079,-6.3079,-6.3079,-6.3079,-6.3079,-6.3079,-6.3079,-6.3079,-6.3079,-6.3079,-6.3228,-6.3677,-6.3707,-6.3917,-6.4395,-6.4455,-6.4515,-6.4695,-6.4725,-6.4814,-6.5024,-6.5473,-6.5622,-6.5413,-6.5622,-6.6011,-6.67,-6.67,-6.6789,-6.6999,-6.6999,-6.6999,-6.6999,-6.6999,-6.6999,0.0,0.0,0.0,0.0,0.0,0.0,0.0,0.0,0.0,0.0,0.0,0.0,0.0,0.0,0.0,0.0,0.0,0.0,0.0,0.0,0.0,0.0,0.0,0.0,0.0,0.0,0.0,0.0,0.0,0.0,0.0,0.0,0.0,0.0,-6.3438,-6.3468,-6.3079,-6.3079,-6.3079,-6.3079,-6.3079,-6.3079,-6.3079,-6.3079,-6.3079,-6.3079,-6.3079,-6.3079,-6.3079,-6.3079,-6.3079,-6.3079,-6.3079,-6.3079,-6.3079,-6.3079,-6.3079,-6.3079,-6.3079,-6.3079,-6.3079,-6.3079,-6.3079,-6.3079,-6.3079,-6.3079,-6.3079,-6.3079,-6.3079,-6.3079,-6.3079,-6.3079,-6.3079,-6.3079,-6.3079,-6.3079,-6.3079,-6.3079,-6.3079,-6.3079,-6.3079,-6.3079,-6.3079,-6.3079,-6.3079,-6.3079,-6.3288,-6.3677,-6.4336,-6.4425,-6.4575,-6.4994,-6.5024,-6.5144,-6.5383,-6.5413,-6.5533,-6.5802,-6.6191,-6.64,-6.64,-6.64,-6.658,-6.6969,-6.6999,-6.6999,-6.6999,-6.6999,-6.6999,-6.6999,-6.6999,-6.6999,0.0,0.0,0.0,0.0,0.0,0.0,0.0,0.0,0.0,0.0,0.0,0.0,0.0,0.0,0.0,0.0,0.0,0.0,0.0,0.0,0.0,0.0,0.0,0.0,0.0,0.0,0.0,0.0,0.0,0.0,0.0,0.0,0.0,-6.3079,-6.3079,-6.3079,-6.3079,-6.3079,-6.3079,0.0,-6.3079,-6.3079,-6.3079,-6.3079,-6.3079,-6.3079,-6.3079,-6.3079,-6.3079,-6.3079,-6.3079,-6.3079,-6.3079,-6.3079,-6.3079,-6.3079,-6.3079,-6.3079,-6.3079,-6.3079,-6.3079,-6.3079,-6.3079,-6.3079,-6.3079,-6.3079,-6.3079,-6.3079,-6.3079,-6.3079,-6.3079,-6.3079,-6.3079,-6.3079,-6.3079,-6.3079,-6.3079,-6.3079,-6.3079,-6.3079,-6.3109,-6.3169,-6.3169,-6.3199,-6.3258,-6.3258,-6.3737,-6.4336,-6.5024,-6.5114,-6.5144,-6.5203,-6.5203,-6.5443,-6.6041,-6.6101,-6.634,-6.6939,-6.6999,-6.6999,-6.6999,-6.6999,-6.6999,-6.6999,-6.6999,-6.6999,-6.6999,-6.6999,-6.6999,-6.6999,-6.7059,-6.7059,0.0,0.0,0.0,0.0,0.0,0.0,0.0,0.0,0.0,0.0,0.0,0.0,0.0,0.0,0.0,0.0,0.0,0.0,0.0,0.0,0.0,0.0,0.0,0.0,0.0,0.0,0.0,0.0,0.0,0.0,0.0,0.0,0.0,-6.3079,-6.3079,-6.3079,-6.3079,-6.3079,-6.3079,0.0,-6.3079,-6.3079,-6.3079,-6.3079,-6.3079,-6.3079,-6.3079,-6.3079,-6.3079,-6.3079,-6.3079,-6.3079,-6.3079,-6.3079,-6.3079,-6.3079,-6.3079,-6.3079,-6.3079,-6.3079,-6.3079,-6.3079,-6.3079,-6.3079,-6.3079,-6.3079,-6.3079,-6.3079,-6.3079,-6.3079,-6.3079,-6.3079,-6.3079,-6.3079,-6.3079,-6.3079,-6.3079,-6.3079,-6.3079,-6.3079,-6.3468,-6.3797,-6.3797,-6.4246,-6.4605,-6.4605,-6.4725,-6.5054,-6.5712,-6.5802,-6.6011,-6.652,-6.658,-6.664,-6.6759,-6.6789,-6.6849,-6.6969,-6.6999,-6.6999,-6.6999,-6.6999,-6.6999,-6.6999,-6.6999,-6.6999,-6.6999,-6.6999,-6.6999,-6.6999,-6.7508,-6.7478,0.0,0.0,0.0,0.0,0.0,0.0,0.0,0.0,0.0,0.0,0.0,0.0,0.0,0.0,0.0,0.0,0.0,0.0,0.0,0.0,0.0,0.0,0.0,0.0,0.0,0.0,0.0,0.0,0.0,0.0,0.0,-6.3079,-6.3079,-6.3079,-6.3079,-6.3079,-6.3079,-6.3079,-6.3079,-6.3079,-6.3079,-6.3079,-6.3079,-6.3079,-6.3079,-6.3079,-6.3079,-6.3079,-6.3079,-6.3079,-6.3079,-6.3079,-6.3079,-6.3079,-6.3079,-6.3079,-6.3079,-6.3079,-6.3079,-6.3079,-6.3079,-6.3079,-6.3079,-6.3079,-6.3079,-6.3079,-6.3079,-6.3079,-6.3079,-6.3079,-6.3079,-6.3079,-6.3079,-6.3079,-6.3079,-6.3079,-6.3079,-6.3079,-6.3169,-6.3468,-6.3767,-6.4096,-6.4425,-6.4784,-6.5144,-6.5443,-6.5503,-6.5742,-6.64,-6.649,-6.661,-6.6939,-6.6999,-6.6999,-6.6999,-6.6999,-6.6999,-6.6999,-6.6999,-6.6999,-6.6999,-6.6999,-6.6999,-6.6999,-6.6999,-6.6999,-6.6999,-6.6999,-6.6999,-6.6999,-6.7358,-6.7328,0.0,0.0,0.0,0.0,0.0,0.0,0.0,0.0,0.0,0.0,0.0,0.0,0.0,0.0,0.0,0.0,0.0,0.0,0.0,0.0,0.0,0.0,0.0,0.0,0.0,0.0,0.0,0.0,0.0,0.0,-6.3079,-6.3079,-6.3079,-6.3079,-6.3079,-6.3079,-6.3079,-6.3079,-6.3079,-6.3079,-6.3079,-6.3079,-6.3079,-6.3079,-6.3079,-6.3079,-6.3079,-6.3079,-6.3079,-6.3079,-6.3079,-6.3079,-6.3079,-6.3079,-6.3079,-6.3079,-6.3079,-6.3079,-6.3079,-6.3079,-6.3079,-6.3079,-6.3169,-6.3228,-6.3109,-6.3228,-6.3378,-6.3258,-6.3318,-6.3408,-6.3408,-6.3318,-6.3228,-6.3228,-6.3228,-6.3228,-6.3228,-6.3139,-6.3288,-6.4036,-6.4276,-6.4575,-6.5233,-6.5383,-6.5562,-6.6101,-6.6191,-6.637,-6.6909,-6.6999,-6.6999,-6.6999,-6.6999,-6.6999,-6.6999,-6.6999,-6.6999,-6.6999,-6.6999,-6.6999,-6.6999,-6.6999,-6.6999,-6.6999,-6.6999,-6.6999,-6.6999,-6.6999,-6.6999,-6.6999,-6.7119,-6.7089,0.0,0.0,0.0,0.0,0.0,0.0,0.0,0.0,0.0,0.0,0.0,0.0,0.0,0.0,0.0,0.0,0.0,0.0,0.0,0.0,0.0,0.0,0.0,0.0,0.0,0.0,0.0,0.0,0.0,0.0,-6.3079,-6.3079,-6.3079,-6.3079,-6.3079,-6.3079,-6.3079,-6.3079,-6.3079,-6.3079,-6.3079,-6.3079,-6.3079,-6.3079,-6.3079,-6.3079,-6.3079,-6.3079,-6.3079,-6.3079,-6.3079,-6.3079,-6.3079,-6.3079,-6.3079,-6.3079,-6.3079,-6.3079,-6.3079,-6.3079,-6.3079,-6.3079,-6.3498,-6.377,-6.3258,-6.3857,-6.4635,-6.4036,-6.4306,-6.4755,-6.4755,-6.4336,-6.3887,-6.3887,-6.3887,-6.3887,-6.3887,-6.3468,-6.3438,-6.4665,-6.5353,-6.5951,-6.661,-6.6729,-6.6759,-6.6849,-6.6849,-6.6879,-6.6969,-6.6999,-6.6999,-6.6999,-6.6999,-6.6999,-6.6999,-6.6999,-6.6999,-6.6999,-6.6999,-6.6999,-6.6999,-6.6999,-6.6999,-6.6999,-6.6999,-6.6999,-6.6999,-6.6999,-6.6999,-6.6999,-6.7567,-6.7537,0.0,0.0,0.0,0.0,0.0,0.0,0.0,0.0,0.0,0.0,0.0,0.0,0.0,0.0,0.0,0.0,0.0,0.0,0.0,0.0,0.0,0.0,0.0,0.0,0.0,0.0,0.0,0.0,0.0,-6.3079,-6.3079,-6.3079,-6.3079,-6.3079,-6.3079,-6.3079,-6.3079,-6.3079,-6.3079,-6.3079,-6.3079,-6.3079,-6.3079,-6.3079,-6.3079,-6.3079,-6.3079,-6.3079,-6.3079,-6.3079,-6.3079,-6.3079,-6.3079,-6.3079,-6.3079,-6.3079,-6.3079,-6.3079,-6.3079,-6.3079,-6.3079,-6.3079,-6.3558,-6.3891,-6.3654,-6.4249,-6.4934,-6.4633,-6.4753,-6.5023,-6.4994,-6.4815,-6.4576,-6.4605,-6.4575,-6.4665,-6.5054,-6.4635,-6.4455,-6.5383,-6.6101,-6.664,-6.6939,-6.6999,-6.6999,-6.6999,-6.6999,-6.6999,-6.6999,-6.6999,-6.6999,-6.6999,-6.6999,-6.6999,-6.6999,-6.6999,-6.6999,-6.6999,-6.6999,-6.6999,-6.6999,-6.6999,-6.6999,-6.6999,-6.6999,-6.6999,-6.6999,-6.6999,-6.6999,-6.6999,-6.7298,-6.7268,0.0,0.0,0.0,0.0,0.0,0.0,0.0,0.0,0.0,0.0,0.0,0.0,0.0,0.0,0.0,0.0,0.0,0.0,0.0,0.0,0.0,0.0,0.0,0.0,0.0,0.0,0.0,0.0,0.0,-6.3079,-6.3079,-6.3079,-6.3079,-6.3079,-6.3079,-6.3079,-6.3079,-6.3079,-6.3079,-6.3079,-6.3079,-6.3079,-6.3079,-6.3079,-6.3079,-6.3079,-6.3079,-6.3079,-6.3079,-6.3079,-6.3079,-6.3079,-6.3079,-6.3079,-6.3079,-6.3079,-6.3079,-6.3079,-6.3079,-6.3079,-6.3079,-6.3079,-6.3558,-6.4216,-6.386,-6.4425,-6.5144,-6.4784,-6.5023,-6.5233,-6.5262,-6.5201,-6.5262,-6.5203,-6.5263,-6.5353,-6.5682,-6.5652,-6.5622,-6.5951,-6.655,-6.6999,-6.6999,-6.6999,-6.6999,-6.6999,-6.6999,-6.6999,-6.6999,-6.6999,-6.6999,-6.6999,-6.6999,-6.6999,-6.6999,-6.6999,-6.6999,-6.6999,-6.6999,-6.6999,-6.6999,-6.6999,-6.6999,-6.6999,-6.6999,-6.6999,-6.6999,-6.6999,-6.6999,-6.6999,-6.6999,-6.6999,0.0,0.0,0.0,0.0,0.0,0.0,0.0,0.0,0.0,0.0,0.0,0.0,0.0,0.0,0.0,0.0,0.0,0.0,0.0,0.0,0.0,0.0,0.0,0.0,0.0,0.0,0.0,0.0,0.0,-6.3079,-6.3079,-6.3079,-6.3079,-6.3079,-6.3079,-6.3079,-6.3079,-6.3079,-6.3079,-6.3079,-6.3079,-6.3079,-6.3079,-6.3079,-6.3079,-6.3079,-6.3079,-6.3079,-6.3079,-6.3079,-6.3079,-6.3079,-6.3079,-6.3079,-6.3079,-6.3079,-6.3079,-6.3079,-6.3079,-6.3079,-6.3079,-6.3079,-6.3935,-6.4714,-6.3528,-6.4504,-6.5707,-6.4457,-6.4993,-6.5945,-6.5975,-6.5975,-6.5915,-6.589,-6.5951,-6.5802,-6.5203,-6.6041,-6.67,-6.6131,-6.655,-6.6999,-6.6999,-6.6999,-6.6999,-6.6999,-6.6999,-6.6999,-6.6999,-6.6999,-6.6999,-6.6999,-6.6999,-6.6999,-6.6999,-6.6999,-6.6999,-6.6999,-6.6999,-6.6999,-6.6999,-6.6999,-6.6999,-6.6999,-6.6999,-6.6999,-6.6999,-6.6999,-6.6999,-6.6999,-6.6999,-6.6999,0.0,0.0,0.0,0.0,0.0,0.0,0.0,0.0,0.0,0.0,0.0,0.0,0.0,0.0,0.0,0.0,0.0,0.0,0.0,0.0,0.0,0.0,0.0,0.0,0.0,0.0,0.0,0.0,0.0,0.0,-6.3079,-6.3079,-6.3079,-6.3079,-6.3079,-6.3079,-6.3079,-6.3079,-6.3079,-6.3079,-6.3079,-6.3079,-6.3079,-6.3079,-6.3079,-6.3079,-6.3079,-6.3079,-6.3079,-6.3079,-6.3079,-6.3079,-6.3079,-6.3079,-6.3079,-6.3079,-6.3079,-6.3079,-6.3079,-6.3079,-6.3079,-6.3079,-6.364,-6.4327,-6.3855,-6.4419,-6.5262,-6.4751,-6.5255,-6.6034,-6.6034,-6.6335,-6.6637,-6.667,-6.664,-6.658,-6.634,-6.667,-6.6909,-6.67,-6.6819,-6.6999,-6.6999,-6.6999,-6.6999,-6.6999,-6.6999,-6.6999,-6.6999,-6.6999,-6.6999,-6.6999,-6.6999,-6.6999,-6.6999,-6.6999,-6.6999,-6.6999,-6.6999,-6.6999,-6.6999,-6.6999,-6.6999,-6.6999,-6.6999,-6.6999,-6.6999,-6.6999,-6.6999,-6.6999,-6.6999,-6.6999,0.0,0.0,0.0,0.0,0.0,0.0,0.0,0.0,0.0,0.0,0.0,0.0,0.0,0.0,0.0,0.0,0.0,0.0,0.0,0.0,0.0,0.0,0.0,0.0,0.0,0.0,0.0,0.0,0.0,0.0,-6.3079,-6.3079,-6.3079,-6.3079,-6.3079,-6.3079,-6.3079,-6.3079,-6.3079,-6.3079,-6.3079,-6.3079,-6.3079,-6.3079,-6.3079,-6.3079,-6.3079,-6.3079,-6.3079,-6.3079,-6.3079,-6.3079,-6.3079,-6.3079,-6.3079,-6.3079,-6.3079,-6.3079,-6.3079,-6.3079,-6.3079,-6.3079,-6.364,-6.4236,-6.3773,-6.4278,-6.4873,-6.4517,-6.5024,-6.5622,-6.5615,-6.6365,-6.6999,-6.6999,-6.6999,-6.6999,-6.6999,-6.6999,-6.6999,-6.6999,-6.6999,-6.6999,-6.6999,-6.6999,-6.6999,-6.6999,-6.6999,-6.6999,-6.6999,-6.6999,-6.6999,-6.6999,-6.6999,-6.6999,-6.6999,-6.6999,-6.6999,-6.6999,-6.6999,-6.6999,-6.6999,-6.6999,-6.6999,-6.6999,-6.6999,-6.6999,-6.6999,-6.6999,-6.6999,-6.6999,-6.6999,-6.7119,0.0,0.0,0.0,0.0,0.0,0.0,0.0,0.0,0.0,0.0,0.0,0.0,0.0,0.0,0.0,0.0,0.0,0.0,0.0,0.0,0.0,0.0,0.0,0.0,0.0,0.0,0.0,0.0,0.0,-6.3079,-6.3079,-6.3079,-6.3079,-6.3079,-6.3079,-6.3079,-6.3079,-6.3079,-6.3079,-6.3079,-6.3079,-6.3079,-6.3079,-6.3079,-6.3079,-6.3079,-6.3079,-6.3079,-6.3079,-6.3079,-6.3079,-6.3079,-6.3079,-6.3079,-6.3079,-6.3079,-6.3079,-6.3079,-6.3079,-6.3079,-6.3079,-6.3079,-6.3935,-6.4734,-6.3464,-6.3965,-6.4734,-6.3519,-6.3965,-6.5041,-6.508,-6.6064,-6.6999,-6.6999,-6.6999,-6.6999,-6.6999,-6.6999,-6.6999,-6.6999,-6.6999,-6.6999,-6.6999,-6.6999,-6.6999,-6.6999,-6.6999,-6.6999,-6.6999,-6.6999,-6.6999,-6.6999,-6.6999,-6.6999,-6.6999,-6.6999,-6.6999,-6.6999,-6.6999,-6.6999,-6.6999,-6.6999,-6.6999,-6.6999,-6.6999,-6.6999,-6.6999,-6.6999,-6.7029,-6.7029,-6.7029,-6.7388,-3.2313,0.0,0.0,0.0,0.0,0.0,0.0,0.0,0.0,0.0,0.0,0.0,0.0,0.0,0.0,0.0,0.0,0.0,0.0,0.0,0.0,0.0,0.0,0.0,0.0,0.0,0.0,0.0,-6.3079,-6.3079,-6.3079,-6.3079,-6.3079,-6.3079,-6.3079,-6.3079,-6.3079,-6.3079,-6.3079,-6.3079,-6.3079,-6.3079,-6.3079,-6.3079,-6.3079,-6.3079,-6.3079,-6.3079,-6.3079,-6.3079,-6.3079,-6.3079,-6.3079,-6.3079,-6.3079,-6.3079,-6.3079,-6.3079,-6.3079,-6.3079,-6.3109,-6.3609,-6.3935,-6.4236,-6.3862,-6.398,-6.4201,-6.3875,-6.4407,-6.5162,-6.6221,-6.6697,-6.6999,-6.6999,-6.6999,-6.6999,-6.6999,-6.6999,-6.6999,-6.6999,-6.6999,-6.6999,-6.6999,-6.6999,-6.6999,-6.6999,-6.6999,-6.6999,-6.6999,-6.6999,-6.6999,-6.6999,-6.6999,-6.6999,-6.6999,-6.6999,-6.6999,-6.6999,-6.6999,-6.6999,-6.6999,-6.6999,-6.6999,-6.6999,-6.6999,-6.6999,-6.6999,-6.7478,-6.7687,-6.7717,-6.8226,-6.8555,0.0,0.0,0.0,0.0,0.0,0.0,0.0,0.0,0.0,0.0,0.0,0.0,0.0,0.0,0.0,0.0,0.0,0.0,0.0,0.0,0.0,0.0,0.0,0.0,0.0,0.0,0.0,-6.2694,-6.2989,-6.3079,-6.3079,-6.3079,-6.3079,-6.3079,-6.3079,-6.3079,-6.3079,-6.3079,-6.3079,-6.3079,-6.3079,-6.3079,-6.3079,-6.3079,-6.3079,-6.3079,-6.3079,-6.3079,-6.3079,-6.3079,-6.3079,-6.3079,-6.3079,-6.3079,-6.3079,-6.3079,-6.3079,-6.3079,-6.3079,-6.3284,-6.3549,-6.3875,-6.436,-6.4755,-6.4508,-6.4576,-6.4764,-6.4498,-6.4925,-6.5652,-6.667,-6.6999,-6.6999,-6.6999,-6.6999,-6.6999,-6.6999,-6.6999,-6.6999,-6.6999,-6.6999,-6.6999,-6.6999,-6.6999,-6.6999,-6.6999,-6.6999,-6.6999,-6.6999,-6.6999,-6.6999,-6.6999,-6.6999,-6.6999,-6.6999,-6.6999,-6.6999,-6.6999,-6.6999,-6.6999,-6.6999,-6.6999,-6.6999,-6.6999,-6.6999,-6.7268,-6.7837,-6.7926,-6.8106,-6.8405,-6.8824,-6.9153,0.0,-3.6896,0.0,0.0,0.0,0.0,-4.2711,-4.2286,0.0,0.0,0.0,0.0,0.0,0.0,0.0,0.0,0.0,0.0,0.0,0.0,0.0,0.0,0.0,0.0,0.0,-6.0641,-6.1312,-6.1931,-6.2549,-6.3019,-6.3079,-6.3079,-6.3079,-6.3079,-6.3079,-6.3079,-6.3079,-6.3079,-6.3079,-6.3079,-6.3079,-6.3079,-6.3079,-6.3079,-6.3079,-6.3079,-6.3079,-6.3079,-6.3079,-6.3079,-6.3079,-6.3079,-6.3079,-6.3079,-6.3079,-6.3079,-6.3079,-6.3079,-6.3079,-6.3549,-6.3965,-6.397,-6.4815,-6.5763,-6.5133,-6.5323,-6.5723,-6.5158,-6.5502,-6.6306,-6.6909,-6.6999,-6.6999,-6.6999,-6.6999,-6.6999,-6.6999,-6.6999,-6.6999,-6.6999,-6.6999,-6.6999,-6.6999,-6.6999,-6.6999,-6.6999,-6.6999,-6.6999,-6.6999,-6.6999,-6.6999,-6.6999,-6.6999,-6.6999,-6.6999,-6.6999,-6.6999,-6.6999,-6.6999,-6.6999,-6.6999,-6.6999,-6.6999,-6.6999,-6.6999,-6.7627,-6.8884,-6.8345,-6.8465,-6.9213,-6.9213,-6.9512,-3.9638,-4.0025,-4.0636,-3.9763,0.0,0.0,0.0,-3.926,0.0,0.0,0.0,0.0,0.0,0.0,0.0,0.0,0.0,0.0,0.0,0.0,0.0,0.0,0.0,0.0,0.0,-5.9867,-6.0544,-6.1226,-6.1931,-6.2519,-6.3049,-6.3079,-6.3079,-6.3079,-6.3079,-6.3079,-6.3079,-6.3079,-6.3079,-6.3079,-6.3079,-6.3079,-6.3079,-6.3079,-6.3079,-6.3079,-6.3079,-6.3079,-6.3079,-6.3079,-6.3079,-6.3079,-6.3079,-6.3079,-6.3079,-6.3079,-6.3079,-6.3079,-6.3079,-6.3549,-6.397,-6.4039,-6.4538,-6.501,-6.4381,-6.4298,-6.4482,-6.484,-6.5918,-6.6909,-6.6969,-6.6999,-6.6999,-6.6999,-6.6999,-6.6999,-6.6999,-6.6999,-6.6999,-6.6999,-6.6999,-6.6999,-6.6999,-6.6999,-6.6999,-6.6999,-6.6999,-6.6999,-6.6999,-6.6999,-6.6999,-6.6999,-6.6999,-6.6999,-6.6999,-6.6999,-6.6999,-6.6999,-6.6999,-6.6999,-6.6999,-6.6999,-6.6999,-6.6999,-6.6999,-6.7388,-6.8166,-6.8585,-6.9393,-7.053,-7.053,-7.059,-4.2414,-4.2342,-4.2761,-4.2432,0.0,0.0,0.0,0.0,0.0,0.0,0.0,0.0,0.0,0.0,0.0,0.0,0.0,0.0,0.0,0.0,0.0,0.0,0.0,0.0,0.0,-5.8841,-5.9986,-6.1014,-6.1744,-6.2225,-6.2549,-6.2959,-6.3079,-6.3079,-6.3079,-6.3079,-6.3079,-6.3079,-6.3079,-6.3079,-6.3079,-6.3079,-6.3079,-6.3079,-6.3079,-6.3079,-6.3079,-6.3079,-6.3079,-6.3079,-6.3079,-6.3079,-6.3079,-6.3549,-6.4141,-6.4141,-6.4498,-6.5092,-6.5092,-6.5596,-6.6113,-6.6462,-6.6372,-6.6191,-6.6971,-6.667,-6.5922,-6.5647,-6.6153,-6.7211,-6.7907,-6.7574,-6.7211,-6.7907,-6.812,-6.812,-6.812,-6.8727,-6.9184,-6.9233,-6.9228,-6.8692,-6.7274,-6.6999,-6.6999,-6.6999,-6.6999,-6.6999,-6.6999,-6.6999,-6.6999,-6.6999,-6.6999,-6.6999,-6.6999,-6.6999,-6.6999,-6.6999,-6.6999,-6.6999,-6.6999,-6.6999,-6.6999,-6.6999,-6.6999,-6.7478,-6.8495,-6.8824,-6.9482,-7.044,-7.0769,-7.0889,0.0,0.0,0.0,0.0,0.0,-4.3658,0.0,0.0,0.0,-4.3718,0.0,0.0,0.0,0.0,0.0,0.0,0.0,0.0,0.0,0.0,0.0,0.0,0.0,0.0,0.0,-5.7261,-5.8811,-6.0421,-6.0813,-6.1193,-6.1902,-6.2519,-6.2989,-6.3079,-6.3079,-6.3079,-6.3079,-6.3079,-6.3079,-6.3079,-6.3079,-6.3079,-6.3079,-6.3079,-6.3079,-6.3079,-6.3079,-6.3079,-6.3079,-6.3079,-6.3079,-6.3079,-6.3079,-6.3815,-6.4759,-6.4677,-6.5651,-6.6838,-6.6838,-6.7464,-6.8263,-6.8736,-6.8058,-6.7412,-6.935,-6.9202,-6.8065,-6.7125,-6.7301,-6.815,-6.9336,-6.8786,-6.8142,-6.9306,-6.9671,-6.955,-6.9623,-7.0497,-7.1424,-7.1452,-7.1425,-7.0557,-6.7819,-6.7427,-6.7335,-6.6999,-6.6999,-6.6999,-6.6999,-6.6999,-6.6999,-6.6999,-6.6999,-6.6999,-6.6999,-6.6999,-6.6999,-6.6999,-6.6999,-6.6999,-6.6999,-6.6999,-6.6999,-6.6999,-6.7335,-6.7969,-6.9084,-6.9544,-6.9963,-7.0171,-7.0679,-7.1018,0.0,0.0,0.0,0.0,-4.689,0.0,0.0,0.0,-4.2491,-4.0487,0.0,0.0,0.0,0.0,0.0,0.0,0.0,0.0,0.0,0.0,0.0,0.0,0.0,0.0,0.0,0.0,-5.58,-5.8297,-5.7508,-5.8173,-6.1052,-6.1902,-6.249,-6.3079,-6.3079,-6.3079,-6.3079,-6.3079,-6.3079,-6.3079,-6.3079,-6.3079,-6.3079,-6.3079,-6.3079,-6.3079,-6.3079,-6.3079,-6.3079,-6.3079,-6.3079,-6.3079,-6.3079,-6.3254,-6.3381,-6.3285,-6.4203,-6.539,-6.539,-6.6555,-6.8109,-6.7598,-6.7381,-6.7311,-6.8307,-6.8859,-6.924,-6.9793,-7.0373,-7.0955,-7.1047,-7.1044,-7.0945,-7.1148,-7.12,-7.1174,-7.1182,-7.126,-7.1388,-7.1413,-7.136,-7.092,-6.9224,-6.8969,-6.8531,-6.7213,-6.6999,-6.6999,-6.6999,-6.6999,-6.6999,-6.6999,-6.6999,-6.6999,-6.6999,-6.6999,-6.6999,-6.6999,-6.6999,-6.6999,-6.6999,-6.6999,-6.6999,-6.6999,-6.8325,-6.9062,-6.9216,-7.1761,-7.2226,-7.0799,-7.0859,-7.1601,0.0,0.0,0.0,0.0,0.0,0.0,-4.3988,0.0,-4.2701,0.0,0.0,0.0,0.0,0.0,0.0,0.0,0.0,0.0,0.0,0.0,0.0,0.0,0.0,0.0,0.0,0.0,0.0,0.0,0.0,-5.6716,-5.9266,-6.0778,-6.1872,-6.249,-6.2844,-6.3079,-6.3079,-6.3079,-6.3079,-6.3079,-6.3079,-6.3079,-6.3079,-6.3079,-6.3079,-6.3079,-6.3079,-6.3079,-6.3079,-6.3079,-6.3579,-6.4232,-6.4232,-6.4232,-6.425,-6.4212,-6.566,-6.7516,-6.7466,-6.8573,-6.9839,-6.8674,-6.9207,-6.9944,-6.8194,-6.8989,-7.0397,-6.9894,-7.0546,-7.1574,-7.2476,-7.2047,-7.1651,-7.2436,-7.2638,-7.2711,-7.2641,-7.3352,-7.3927,-7.3907,-7.3874,-7.3442,-7.1994,-7.1004,-6.9973,-6.8531,-6.8325,-6.7998,-6.7091,-6.6999,-6.6999,-6.6999,-6.6999,-6.6999,-6.6999,-6.6999,-6.6999,-6.6999,-6.7759,-6.8325,-6.8325,-6.9085,-6.9516,-6.9516,-7.0576,-7.1294,-7.1705,-7.337,-7.3897,-7.3596,-7.3596,-7.3959,-5.0301,0.0,0.0,0.0,0.0,0.0,0.0,0.0,0.0,0.0,0.0,0.0,0.0,0.0,0.0,0.0,0.0,0.0,0.0,0.0,0.0,0.0,0.0,0.0,0.0,0.0,0.0,0.0,0.0,0.0,-5.7647,-5.9525,-6.0986,-6.2106,-6.2754,-6.3079,-6.3079,-6.3079,-6.3079,-6.3079,-6.3079,-6.3079,-6.3079,-6.3079,-6.3079,-6.3079,-6.3079,-6.3079,-6.3109,-6.3549,-6.4201,-6.5116,-6.5527,-6.5654,-6.567,-6.5718,-6.6882,-6.8695,-6.902,-7.0164,-7.1086,-7.0075,-7.0884,-7.1706,-6.9581,-7.0306,-7.1788,-7.1175,-7.1771,-7.2792,-7.3884,-7.3385,-7.2826,-7.3884,-7.4181,-7.4181,-7.4181,-7.4978,-7.5709,-7.5709,-7.5709,-7.5377,-7.4315,-7.2975,-7.1467,-7.0028,-6.9847,-6.9317,-6.7759,-6.7668,-6.7427,-6.6999,-6.7305,-6.7427,-6.6969,-6.7759,-6.8206,-6.8206,-6.9201,-6.9745,-6.9745,-7.0838,-7.1484,-7.1676,-7.2626,-7.3424,-7.4135,-7.5319,-7.6047,-7.6567,-7.5942,-7.581,0.0,0.0,0.0,-4.8297,0.0,0.0,0.0,0.0,-4.5843,0.0,0.0,0.0,0.0,0.0,0.0,0.0,0.0,0.0,0.0,0.0,0.0,0.0,0.0,0.0,0.0,0.0,0.0,0.0,0.0,0.0,-5.688,-5.8384,-6.0096,-6.2076,-6.2754,-6.3079,-6.3079,-6.3079,-6.3079,-6.3079,-6.3079,-6.3079,-6.3079,-6.3079,-6.3079,-6.3079,-6.3079,-6.3079,-6.3254,-6.4498,-6.5062,-6.5246,-6.6615,-6.7131,-6.7103,-6.7105,-6.7151,-6.7466,-6.8693,-7.0164,-7.1312,-7.1278,-7.1312,-7.1604,-7.2892,-7.3322,-7.3674,-7.5161,-7.5574,-7.5608,-7.5642,-7.5608,-7.5608,-7.5642,-7.5642,-7.5642,-7.5642,-7.5676,-7.5709,-7.5709,-7.5709,-7.5676,-7.5642,-7.445,-7.3074,-7.1591,-7.1328,-7.087,-6.9317,-6.9085,-6.8531,-6.7091,-6.8325,-6.8531,-6.7091,-6.9631,-7.1278,-7.1278,-7.1278,-7.1278,-7.1278,-7.1388,-7.1708,-7.249,-7.3853,-7.5016,-7.5707,-7.795,-7.8992,-7.8926,-7.6646,-7.6379,0.0,0.0,-5.4311,-5.078,0.0,0.0,0.0,0.0,0.0,0.0,0.0,0.0,0.0,0.0,0.0,0.0,0.0,0.0,0.0,0.0,0.0,0.0,0.0,0.0,0.0,0.0,0.0,0.0,0.0,0.0,0.0,-5.6795,-5.8711,-6.073,-6.1902,-6.2694,-6.3079,-6.3079,-6.3079,-6.3079,-6.3079,-6.3079,-6.3079,-6.3079,-6.3079,-6.3079,-6.3079,-6.3609,-6.4468,-6.4971,-6.6168,-6.7851,-6.8327,-6.854,-6.8419,-6.7543,-6.7729,-6.8699,-7.0113,-7.1244,-7.2033,-7.2033,-7.2395,-7.2858,-7.3322,-7.3821,-7.4356,-7.4776,-7.531,-7.5709,-7.5709,-7.5709,-7.5709,-7.5709,-7.5709,-7.5709,-7.5709,-7.5709,-7.5709,-7.5709,-7.5709,-7.5709,-7.5709,-7.531,-7.4455,-7.3076,-7.2871,-7.2355,-7.087,-7.0648,-7.0424,-6.9973,-7.0424,-7.0392,-6.9973,-7.087,-7.1388,-7.1388,-7.2282,-7.2809,-7.2842,-7.4265,-7.5204,-7.5437,-7.6843,-7.7682,-7.8051,-7.923,-7.9837,-7.9837,-7.905,-7.8908,-5.5478,-5.5837,0.0,-5.2636,-5.1588,0.0,-4.713,0.0,0.0,0.0,0.0,0.0,0.0,0.0,0.0,0.0,0.0,0.0,0.0,0.0,0.0,0.0,0.0,0.0,0.0,0.0,-4.6947,-4.8519,0.0,0.0,0.0,0.0,-5.7832,-5.9984,-6.1426,-6.246,-6.3079,-6.3079,-6.3079,-6.3079,-6.3079,-6.3079,-6.3079,-6.3079,-6.3079,-6.3109,-6.3609,-6.4262,-6.5116,-6.6168,-6.7583,-6.9256,-6.9715,-6.994,-6.987,-6.9232,-6.9549,-7.0434,-7.1379,-7.2033,-7.2406,-7.2665,-7.3163,-7.3559,-7.3763,-7.4221,-7.4613,-7.4911,-7.531,-7.5709,-7.5709,-7.5709,-7.5709,-7.5709,-7.5709,-7.5709,-7.5709,-7.5709,-7.5709,-7.5709,-7.5709,-7.5709,-7.5709,-7.5709,-7.5377,-7.4512,-7.4335,-7.377,-7.2388,-7.2175,-7.1961,-7.1529,-7.1853,-7.2388,-7.2914,-7.2494,-7.2388,-7.2914,-7.3871,-7.4439,-7.4739,-7.6102,-7.7164,-7.7671,-7.8619,-7.9228,-7.9498,-7.9972,-8.0209,-8.0209,-8.0209,-8.0209]}]]